[[{"header":{"parameterUnit":"m.s-1","parameterCategory":1,"la1":31.0,"la2":29.5877,"lo1":-88.7671,"lo2":-86.6584,"dy":0.0162,"dx":0.0185,"nx":115,"ny":88,"refTime":"2026-05-20T12:00:00:Z","depth":0,"parameterNumber":2,"parameterNumberName":"U-component_of_WINDS"},"data":[0.0,0.0,0.0,0.0,0.0,0.0,0.0,0.0,0.0,0.0,0.0,0.0,0.0,0.0,0.0,0.0,0.0,0.0,0.0,0.0,0.0,0.0,0.0,0.0,0.0,0.0,0.0,0.0,0.0,0.0,0.0,0.0,0.0,0.0,0.0,0.0,0.0,0.0,0.0,0.0,0.0,0.0,0.0,0.0,0.0,0.0,0.0,0.0,0.0,0.0,0.0,0.0,0.0,0.0,0.0,0.0,0.0,0.0,0.0,0.0,0.0,0.0,0.0,0.0,0.0,0.0,0.0,0.0,0.0,0.0,0.0,0.0,0.0,0.0,0.0,0.0,0.0,0.0,0.0,0.0,0.0,0.0,0.0,0.0,0.0,0.0,0.0,0.0,0.0,0.0,0.0,0.0,0.0,0.0,0.0,0.0,0.0,0.0,0.0,0.0,0.0,0.0,0.0,0.0,0.0,0.0,0.0,0.0,0.0,0.0,0.0,0.0,0.0,0.0,0.0,0.0,0.0,0.0,0.0,0.0,0.0,0.0,0.0,0.0,0.0,0.0,0.0,0.0,0.0,0.0,0.0,0.0,0.0,0.0,0.0,0.0,0.0,0.0,0.0,0.0,0.0,0.0,0.0,0.0,0.0,0.0,0.0,0.0,0.0,0.0,0.0,0.0,0.0,0.0,0.0,0.0,0.0,0.0,0.0,0.0,0.0,0.0,0.0,0.0,0.0,0.0,0.0,0.0,0.0,0.0,0.0,0.0,0.0,0.0,0.0,0.0,0.0,0.0,0.0,0.0,0.0,0.0,0.0,0.0,0.0,0.0,0.0,0.0,0.0,0.0,0.0,0.0,0.0,0.0,0.0,0.0,0.0,0.0,0.0,0.0,0.0,0.0,0.0,0.0,0.0,0.0,0.0,0.0,0.0,0.0,0.0,0.0,0.0,0.0,0.0,0.0,0.0,0.0,0.0,0.0,0.0,0.0,0.0,0.0,0.0,0.0,0.0,0.0,0.0,0.0,0.0,0.0,0.0,0.0,0.0,0.0,0.0,0.0,0.0,0.0,0.0,0.0,0.0,0.0,0.0,0.0,0.0,0.0,0.0,0.0,0.0,0.0,0.0,0.0,0.0,0.0,0.0,0.0,0.0,0.0,0.0,0.0,0.0,0.0,0.0,0.0,0.0,0.0,0.0,0.0,0.0,0.0,0.0,0.0,0.0,0.0,0.0,0.0,0.0,0.0,0.0,0.0,0.0,0.0,0.0,0.0,0.0,0.0,0.0,0.0,0.0,0.0,0.0,0.0,0.0,0.0,0.0,0.0,0.0,0.0,0.0,0.0,0.0,0.0,0.0,0.0,0.0,0.0,0.0,0.0,0.0,0.0,0.0,0.0,0.0,0.0,0.0,0.0,0.0,0.0,0.0,0.0,0.0,0.0,0.0,0.0,0.0,0.0,0.0,0.0,0.0,0.0,0.0,0.0,0.0,0.0,0.0,0.0,0.0,0.0,0.0,0.0,0.0,0.0,0.0,0.0,0.0,0.0,0.0,0.0,0.0,0.0,0.0,0.0,0.0,0.0,0.0,0.0,0.0,0.0,0.0,0.0,0.0,0.0,0.0,0.0,0.0,0.0,0.0,0.0,0.0,0.0,0.0,0.0,0.0,0.0,0.0,0.0,0.0,0.0,0.0,0.0,0.0,0.0,0.0,0.0,0.0,0.0,0.0,0.0,0.0,0.0,0.0,0.0,0.0,0.0,0.0,0.0,0.0,0.0,0.0,0.0,0.0,0.0,0.0,0.0,0.0,0.0,0.0,0.0,0.0,0.0,0.0,0.0,0.0,0.0,0.0,0.0,0.0,0.0,0.0,0.0,0.0,0.0,0.0,0.0,0.0,0.0,0.0,0.0,0.0,0.0,0.0,0.0,0.0,0.0,0.0,0.0,0.0,0.0,0.0,0.0,0.0,0.0,0.0,0.0,0.0,0.0,0.0,0.0,0.0,0.0,0.0,0.0,0.0,0.0,0.0,0.0,0.0,0.0,0.0,0.0,0.0,0.0,0.0,0.0,0.0,0.0,0.0,0.0,0.0,0.0,0.0,0.0,0.0,0.0,0.0,0.0,0.0,0.0,0.0,0.0,0.0,0.0,0.0,0.0,0.0,0.0,0.0,0.0,0.0,0.0,0.0,0.0,0.0,0.0,0.0,0.0,0.0,0.0,0.0,0.0,0.0,0.0,0.0,0.0,0.0,0.0,0.0,0.0,0.0,0.0,0.0,0.0,0.0,0.0,0.0,0.0,0.0,0.0,0.0,0.0,0.0,0.0,0.0,0.0,0.0,0.0,0.0,0.0,0.0,0.0,0.0,0.0,0.0,0.0,0.0,0.0,0.0,0.0,0.0,0.0,0.0,0.0,0.0,0.0,0.0,0.0,0.0,0.0,0.0,0.0,0.0,0.0,0.0,0.0,0.0,0.0,0.0,0.0,0.0,0.0,0.0,0.0,0.0,0.0,0.0,0.0,0.0,0.0,0.0,0.0,0.0,0.0,0.0,0.0,0.0,0.0,0.0,0.0,0.0,0.0,0.0,0.0,0.0,0.0,0.0,0.0,0.0,0.0,0.0,0.0,0.0,0.0,0.0,0.0,0.0,0.0,0.0,0.0,0.0,0.0,0.0,0.0,0.0,0.0,0.0,0.0,0.0,0.0,0.0,0.0,0.0,0.0,0.0,0.0,0.0,0.0,0.0,0.0,0.0,0.0,0.0,0.0,0.0,0.0,0.0,0.0,0.0,0.0,0.0,0.0,0.0,0.0,0.0,0.0,0.0,0.0,0.0,0.0,0.0,0.0,0.0,0.0,0.0,0.0,0.0,0.0,0.0,0.0,0.0,0.0,0.0,0.0,0.0,0.0,0.0,0.0,0.0,0.0,0.0,0.0,0.0,0.0,0.0,0.0,0.0,0.0,0.0,0.0,0.0,0.0,0.0,0.0,0.0,0.0,0.0,0.0,0.0,0.0,0.0,0.0,0.0,0.0,0.0,0.0,0.0,0.0,0.0,0.0,0.0,0.0,0.0,0.0,0.0,0.0,0.0,0.0,0.0,0.0,0.0,0.0,0.0,0.0,0.0,0.0,0.0,0.0,0.0,0.0,0.0,0.0,0.0,0.0,0.0,0.0,0.0,0.0,0.0,0.0,0.0,0.0,0.0,0.0,0.0,0.0,0.0,0.0,0.0,0.0,0.0,0.0,0.0,0.0,0.0,0.0,0.0,0.0,0.0,0.0,0.0,0.0,0.0,0.0,0.0,0.0,0.0,0.0,0.0,0.0,0.0,0.0,0.0,0.0,0.0,0.0,0.0,0.0,0.0,0.0,0.0,0.0,0.0,0.0,0.0,0.0,0.0,0.0,0.0,0.0,0.0,0.0,0.0,0.0,0.0,0.0,0.0,0.0,0.0,0.0,0.0,0.0,0.0,0.0,0.0,0.0,0.0,0.0,0.0,0.0,0.0,0.0,0.0,0.0,0.0,0.0,0.0,0.0,0.0,0.0,0.0,0.0,0.0,0.0,0.0,0.0,0.0,0.0,0.0,0.0,0.0,0.0,0.0,0.0,0.0,0.0,0.0,0.0,0.0,0.0,0.0,0.0,0.0,0.0,0.0,0.0,0.0,0.0,0.0,0.0,0.0,0.0,0.0,0.0,0.0,0.0,0.0,0.0,0.0,0.0,0.0,0.0,0.0,0.0,0.0,0.0,0.0,0.0,0.0,0.0,0.0,0.0,0.0,0.0,0.0,0.0,0.0,0.0,0.0,0.0,0.0,0.0,0.0,0.0,0.0,0.0,0.0,0.0,0.0,0.0,0.0,0.0,0.0,0.0,0.0,0.0,0.0,0.0,0.0,0.0,0.0,0.0,0.0,0.0,0.0,0.0,0.0,0.0,0.0,0.0,0.0,0.0,0.0,0.0,0.0,0.0,0.0,0.0,0.0,0.0,0.0,0.0,0.0,0.0,0.0,0.0,0.0,0.0,0.0,0.0,0.0,0.0,0.0,0.0,0.0,0.0,0.0,0.0,0.0,0.0,0.0,0.0,0.0,0.0,0.0,0.0,0.0,0.0,0.0,0.0,0.0,0.0,0.0,0.0,0.0,0.0,0.0,0.0,0.0,0.0,0.0,0.0,0.0,0.0,0.0,0.0,0.0,0.0,0.0,0.0,0.0,0.0,0.0,0.0,0.0,0.0,0.0,0.0,0.0,0.0,0.0,0.0,0.0,0.0,0.0,0.0,-0.8319,0.0,0.0,0.0,0.0,0.0,0.0,0.0,0.0,0.0,0.0,0.0,0.0,0.0,0.0,0.0,0.0,0.0,0.0,0.0,0.0,0.0,0.0,0.0,0.0,0.0,0.0,0.0,0.0,0.0,0.0,0.0,0.0,0.0,0.0,0.0,0.0,0.0,0.0,0.0,0.0,0.0,0.0,0.0,0.0,0.0,0.0,0.0,0.0,0.0,0.0,0.0,0.0,0.0,0.0,0.0,0.0,0.0,0.0,0.0,0.0,0.0,0.0,0.0,0.0,0.0,0.0,0.0,0.0,0.0,0.0,0.0,0.0,0.0,0.0,0.0,0.0,0.0,0.0,0.0,0.0,0.0,0.0,0.0,0.0,0.0,0.0,0.0,0.0,0.0,0.0,0.0,0.0,0.0,0.0,0.0,0.0,0.0,0.0,0.0,0.0,0.0,0.0,0.0,0.0,0.0,0.0,0.0,0.0,0.0,0.0,-0.9473,-0.9222,-0.894,-0.8637,-0.8333,0.0,0.0,0.0,0.0,0.0,0.0,0.0,0.0,0.0,0.0,0.0,0.0,0.0,0.0,0.0,0.0,0.0,0.0,0.0,0.0,0.0,0.0,0.0,0.0,0.0,0.0,0.0,0.0,0.0,0.0,0.0,0.0,0.0,0.0,0.0,0.0,0.0,0.0,0.0,0.0,0.0,0.0,0.0,0.0,0.0,0.0,0.0,0.0,0.0,0.0,0.0,0.0,0.0,0.0,0.0,0.0,0.0,0.0,0.0,0.0,0.0,0.0,0.0,0.0,0.0,0.0,0.0,0.0,0.0,0.0,0.0,0.0,0.0,0.0,0.0,0.0,0.0,0.0,0.0,0.0,0.0,0.0,0.0,0.0,0.0,0.0,0.0,0.0,0.0,0.0,0.0,0.0,0.0,0.0,0.0,0.0,0.0,0.0,0.0,0.0,0.0,0.0,0.0,0.0,0.0,0.0,0.0,0.0,0.0,0.0,0.0,0.0,-0.9447,-0.9099,-0.8646,0.0,0.0,0.0,0.0,0.0,0.0,0.0,0.0,0.0,0.0,0.0,0.0,0.0,0.0,0.0,0.0,0.0,0.0,0.0,0.0,0.0,0.0,0.0,0.0,0.0,0.0,0.0,0.0,0.0,0.0,0.0,0.0,0.0,0.0,0.0,0.0,0.0,0.0,0.0,0.0,0.0,0.0,0.0,0.0,0.0,0.0,0.0,0.0,0.0,0.0,0.0,0.0,0.0,0.0,0.0,0.0,0.0,0.0,0.0,0.0,0.0,0.0,0.0,0.0,0.0,0.0,0.0,0.0,0.0,0.0,0.0,0.0,0.0,0.0,0.0,0.0,0.0,0.0,0.0,0.0,0.0,0.0,0.0,0.0,0.0,0.0,0.0,0.0,0.0,0.0,0.0,0.0,0.0,0.0,0.0,0.0,0.0,0.0,0.0,0.0,0.0,0.0,0.0,0.0,0.0,0.0,0.0,0.0,0.0,0.0,-1.0449,-1.0333,-1.0573,0.0,-0.9548,0.0,0.0,0.0,0.0,0.0,0.0,0.0,0.0,0.0,0.0,0.0,0.0,0.0,0.0,0.0,0.0,0.0,0.0,0.0,0.0,0.0,0.0,0.0,0.0,0.0,0.0,0.0,0.0,0.0,0.0,0.0,0.0,0.0,0.0,0.0,0.0,0.0,0.0,0.0,0.0,0.0,0.0,0.0,0.0,0.0,0.0,0.0,0.0,0.0,0.0,0.0,0.0,0.0,0.0,0.0,0.0,0.0,0.0,0.0,0.0,0.0,0.0,0.0,0.0,0.0,0.0,0.0,0.0,0.0,0.0,0.0,0.0,0.0,0.0,0.0,0.0,0.0,0.0,0.0,0.0,0.0,0.0,0.0,0.0,0.0,0.0,0.0,0.0,0.0,0.0,0.0,0.0,0.0,0.0,0.0,0.0,0.0,0.0,0.0,0.0,0.0,0.0,0.0,0.0,0.0,0.0,0.0,0.0,0.0,0.0,-1.0798,-1.1104,-1.1028,-1.0643,0.0,0.0,0.0,0.0,0.0,0.0,0.0,0.0,0.0,0.0,0.0,0.0,0.0,0.0,0.0,0.0,0.0,0.0,0.0,0.0,0.0,0.0,0.0,0.0,0.0,0.0,0.0,0.0,0.0,0.0,0.0,0.0,0.0,0.0,0.0,0.0,0.0,0.0,0.0,0.0,0.0,0.0,0.0,0.0,0.0,0.0,0.0,0.0,0.0,0.0,0.0,0.0,0.0,0.0,0.0,0.0,0.0,0.0,0.0,0.0,0.0,0.0,0.0,0.0,0.0,0.0,0.0,0.0,0.0,0.0,0.0,0.0,0.0,0.0,0.0,0.0,0.0,0.0,0.0,0.0,0.0,0.0,0.0,0.0,0.0,0.0,0.0,0.0,0.0,0.0,0.0,0.0,0.0,0.0,0.0,0.0,0.0,0.0,0.0,0.0,0.0,0.0,0.0,0.0,0.0,0.0,0.0,0.0,0.0,0.0,-1.0582,-1.1297,-1.193,-1.1406,-1.0897,-1.0495,0.0,0.0,0.0,0.0,0.0,0.0,0.0,0.0,0.0,0.0,0.0,0.0,0.0,0.0,0.0,0.0,0.0,0.0,0.0,0.0,0.0,0.0,0.0,0.0,0.0,0.0,0.0,0.0,0.0,0.0,0.0,0.0,0.0,0.0,0.0,0.0,0.0,0.0,0.0,0.0,0.0,0.0,0.0,0.0,0.0,0.0,0.0,0.0,0.0,0.0,0.0,0.0,0.0,0.0,0.0,0.0,0.0,0.0,0.0,0.0,0.0,0.0,0.0,0.0,0.0,0.0,0.0,0.0,0.0,0.0,0.0,0.0,0.0,0.0,0.0,0.0,0.0,0.0,0.0,0.0,0.0,0.0,0.0,0.0,0.0,0.0,0.0,0.0,0.0,0.0,0.0,0.0,0.0,0.0,0.0,0.0,0.0,0.0,0.0,0.0,0.0,0.0,0.0,0.0,0.0,0.0,0.0,0.0,0.0,-1.0973,-1.2018,-1.2937,-1.1905,-1.1247,0.0,0.0,0.0,0.0,0.0,0.0,0.0,0.0,0.0,0.0,0.0,0.0,0.0,0.0,0.0,0.0,0.0,0.0,0.0,0.0,0.0,0.0,0.0,0.0,0.0,0.0,0.0,0.0,0.0,0.0,0.0,0.0,0.0,0.0,0.0,0.0,0.0,0.0,0.0,0.0,0.0,0.0,0.0,0.0,0.0,0.0,0.0,0.0,0.0,0.0,0.0,0.0,0.0,0.0,0.0,0.0,0.0,0.0,0.0,0.0,0.0,0.0,0.0,0.0,0.0,0.0,0.0,0.0,0.0,0.0,0.0,0.0,0.0,0.0,0.0,0.0,0.0,0.0,0.0,0.0,0.0,0.0,0.0,0.0,0.0,0.0,0.0,0.0,0.0,0.0,0.0,0.0,0.0,0.0,0.0,0.0,0.0,0.0,0.0,0.0,0.0,0.0,0.0,0.0,0.0,0.0,0.0,0.0,0.0,-0.993,-1.101,-1.1776,-1.2093,-1.1712,-1.1263,0.0,0.0,0.0,0.0,0.0,0.0,0.0,0.0,0.0,0.0,0.0,0.0,0.0,0.0,0.0,0.0,0.0,0.0,0.0,0.0,0.0,0.0,0.0,0.0,0.0,0.0,0.0,0.0,0.0,0.0,0.0,0.0,0.0,0.0,0.0,0.0,0.0,0.0,0.0,0.0,0.0,0.0,0.0,0.0,0.0,0.0,0.0,0.0,0.0,0.0,0.0,0.0,0.0,0.0,0.0,0.0,0.0,0.0,0.0,0.0,0.0,0.0,0.0,0.0,0.0,0.0,0.0,0.0,0.0,0.0,0.0,0.0,0.0,0.0,0.0,0.0,0.0,0.0,0.0,0.0,0.0,0.0,0.0,0.0,0.0,0.0,0.0,0.0,0.0,0.0,0.0,0.0,0.0,0.0,0.0,0.0,0.0,0.0,0.0,0.0,0.0,0.0,0.0,0.0,0.0,0.0,0.0,0.0,0.0,-1.0721,0.0,-1.1939,0.0,-1.1776,-1.1353,0.0,0.0,0.0,0.0,0.0,0.0,0.0,0.0,0.0,0.0,0.0,0.0,0.0,0.0,0.0,0.0,0.0,0.0,0.0,0.0,0.0,0.0,0.0,0.0,0.0,0.0,0.0,0.0,0.0,0.0,0.0,0.0,0.0,0.0,0.0,0.0,0.0,0.0,0.0,0.0,0.0,0.0,0.0,0.0,0.0,0.0,0.0,0.0,0.0,0.0,0.0,0.0,0.0,0.0,0.0,0.0,0.0,0.0,0.0,0.0,0.0,0.0,0.0,0.0,0.0,0.0,0.0,0.0,0.0,0.0,0.0,0.0,0.0,0.0,0.0,0.0,0.0,0.0,0.0,0.0,0.0,0.0,0.0,0.0,0.0,0.0,0.0,0.0,0.0,0.0,0.0,0.0,0.0,0.0,0.0,0.0,0.0,0.0,0.0,0.0,0.0,0.0,0.0,0.0,0.0,0.0,0.0,0.0,-1.1286,-1.2312,-1.2375,-1.2626,-1.3135,-1.2153,-1.154,0.0,0.0,0.0,0.0,0.0,0.0,0.0,0.0,0.0,0.0,0.0,0.0,0.0,0.0,0.0,0.0,0.0,0.0,0.0,0.0,0.0,0.0,0.0,0.0,0.0,0.0,0.0,0.0,0.0,0.0,0.0,0.0,0.0,0.0,0.0,0.0,0.0,0.0,0.0,0.0,0.0,0.0,0.0,0.0,0.0,0.0,0.0,0.0,0.0,0.0,0.0,0.0,0.0,0.0,0.0,0.0,0.0,0.0,0.0,0.0,0.0,0.0,0.0,0.0,0.0,0.0,0.0,0.0,0.0,0.0,0.0,0.0,0.0,0.0,0.0,0.0,0.0,0.0,0.0,0.0,0.0,0.0,0.0,0.0,0.0,0.0,0.0,0.0,0.0,0.0,0.0,0.0,0.0,0.0,0.0,0.0,0.0,0.0,0.0,0.0,0.0,0.0,0.0,0.0,0.0,0.0,0.0,0.0,0.0,-1.2388,-1.2776,-1.2864,-1.2651,-1.2312,-1.1712,0.0,0.0,0.0,0.0,0.0,0.0,0.0,0.0,0.0,0.0,0.0,0.0,0.0,0.0,0.0,0.0,0.0,0.0,0.0,0.0,0.0,0.0,0.0,0.0,0.0,0.0,0.0,0.0,0.0,0.0,0.0,0.0,0.0,0.0,0.0,0.0,0.0,0.0,0.0,0.0,0.0,0.0,0.0,0.0,0.0,0.0,0.0,0.0,0.0,0.0,0.0,0.0,0.0,0.0,0.0,0.0,0.0,0.0,0.0,0.0,0.0,0.0,0.0,0.0,0.0,0.0,0.0,0.0,0.0,0.0,0.0,0.0,0.0,0.0,0.0,0.0,0.0,0.0,0.0,0.0,0.0,0.0,0.0,0.0,0.0,0.0,0.0,0.0,0.0,0.0,0.0,0.0,0.0,0.0,0.0,0.0,0.0,0.0,0.0,0.0,0.0,0.0,0.0,0.0,0.0,0.0,0.0,0.0,0.0,-1.393,-1.4055,-1.3767,-1.3048,-1.2801,-1.2223,-1.1206,0.0,0.0,0.0,0.0,0.0,0.0,0.0,0.0,0.0,0.0,0.0,0.0,0.0,0.0,0.0,0.0,0.0,0.0,0.0,0.0,0.0,0.0,0.0,0.0,0.0,0.0,0.0,0.0,0.0,0.0,0.0,0.0,0.0,0.0,0.0,0.0,0.0,0.0,0.0,0.0,0.0,0.0,0.0,0.0,0.0,0.0,0.0,0.0,0.0,0.0,0.0,0.0,0.0,0.0,0.0,0.0,0.0,0.0,0.0,0.0,0.0,0.0,0.0,0.0,0.0,0.0,0.0,0.0,0.0,0.0,0.0,0.0,0.0,0.0,0.0,0.0,0.0,0.0,0.0,0.0,0.0,0.0,0.0,0.0,0.0,0.0,0.0,0.0,0.0,0.0,0.0,0.0,0.0,0.0,0.0,0.0,0.0,0.0,0.0,0.0,0.0,0.0,0.0,0.0,0.0,0.0,0.0,0.0,-1.6497,-1.6095,-1.5361,-1.4261,-1.3672,-1.3026,0.0,0.0,0.0,0.0,0.0,0.0,0.0,0.0,0.0,0.0,0.0,0.0,0.0,0.0,0.0,0.0,0.0,0.0,0.0,0.0,0.0,0.0,0.0,0.0,0.0,0.0,0.0,0.0,0.0,0.0,0.0,0.0,0.0,0.0,0.0,0.0,0.0,0.0,0.0,0.0,0.0,0.0,0.0,0.0,0.0,0.0,0.0,0.0,0.0,0.0,0.0,0.0,0.0,0.0,0.0,0.0,0.0,0.0,0.0,0.0,0.0,0.0,0.0,0.0,0.0,0.0,0.0,0.0,0.0,0.0,0.0,0.0,0.0,0.0,0.0,0.0,0.0,0.0,0.0,0.0,0.0,0.0,0.0,0.0,0.0,0.0,0.0,0.0,0.0,0.0,0.0,0.0,0.0,0.0,0.0,0.0,0.0,0.0,0.0,0.0,0.0,0.0,0.0,0.0,0.0,0.0,0.0,0.0,0.0,-1.6488,-1.7566,-1.7403,-1.5932,-1.5341,-1.4394,0.0,0.0,0.0,0.0,0.0,0.0,0.0,0.0,0.0,0.0,0.0,0.0,0.0,0.0,0.0,0.0,0.0,0.0,0.0,0.0,0.0,0.0,0.0,0.0,0.0,0.0,0.0,0.0,0.0,0.0,0.0,0.0,0.0,0.0,0.0,0.0,0.0,0.0,0.0,0.0,0.0,0.0,0.0,0.0,0.0,0.0,0.0,0.0,0.0,0.0,0.0,0.0,0.0,0.0,0.0,0.0,0.0,0.0,0.0,0.0,0.0,0.0,0.0,0.0,0.0,0.0,0.0,0.0,0.0,0.0,0.0,0.0,0.0,0.0,0.0,0.0,0.0,0.0,0.0,0.0,0.0,0.0,0.0,0.0,0.0,0.0,0.0,0.0,0.0,0.0,0.0,0.0,0.0,0.0,0.0,0.0,0.0,0.0,0.0,0.0,0.0,0.0,0.0,0.0,0.0,0.0,0.0,0.0,-1.6421,-1.7202,-1.8594,-1.8757,-1.7578,-1.6572,-1.5254,0.0,0.0,0.0,0.0,0.0,0.0,0.0,0.0,0.0,0.0,0.0,0.0,0.0,0.0,0.0,0.0,0.0,0.0,0.0,0.0,0.0,0.0,0.0,0.0,0.0,0.0,0.0,0.0,0.0,0.0,0.0,0.0,0.0,0.0,0.0,0.0,0.0,0.0,0.0,0.0,0.0,0.0,0.0,0.0,0.0,0.0,0.0,0.0,0.0,0.0,0.0,0.0,0.0,0.0,0.0,0.0,0.0,0.0,0.0,0.0,0.0,0.0,0.0,0.0,0.0,0.0,0.0,0.0,0.0,0.0,0.0,0.0,0.0,0.0,0.0,0.0,0.0,0.0,0.0,0.0,0.0,0.0,0.0,0.0,0.0,0.0,0.0,0.0,0.0,0.0,0.0,0.0,0.0,0.0,0.0,0.0,0.0,0.0,0.0,0.0,0.0,0.0,0.0,0.0,0.0,0.0,0.0,0.0,-1.726,-1.8355,-1.9422,-1.9685,-1.907,-1.7466,-1.5856,0.0,0.0,0.0,0.0,0.0,0.0,0.0,0.0,0.0,0.0,0.0,0.0,0.0,0.0,0.0,0.0,0.0,0.0,0.0,0.0,0.0,0.0,0.0,0.0,0.0,0.0,0.0,0.0,0.0,0.0,0.0,0.0,0.0,0.0,0.0,0.0,0.0,0.0,0.0,0.0,0.0,0.0,0.0,0.0,0.0,0.0,0.0,0.0,0.0,0.0,0.0,0.0,0.0,0.0,0.0,0.0,0.0,0.0,0.0,0.0,0.0,0.0,0.0,0.0,0.0,0.0,0.0,0.0,0.0,0.0,0.0,0.0,0.0,0.0,0.0,0.0,0.0,0.0,0.0,0.0,0.0,0.0,0.0,0.0,0.0,0.0,0.0,0.0,0.0,0.0,0.0,0.0,0.0,0.0,0.0,0.0,0.0,0.0,0.0,0.0,0.0,0.0,0.0,0.0,0.0,0.0,0.0,0.0,-1.8568,-1.9598,-2.0618,-2.0652,-1.966,-1.8053,-1.6631,0.0,0.0,0.0,0.0,0.0,0.0,0.0,0.0,0.0,0.0,0.0,0.0,0.0,0.0,0.0,0.0,0.0,0.0,0.0,0.0,0.0,0.0,0.0,0.0,0.0,0.0,0.0,0.0,0.0,0.0,0.0,0.0,0.0,0.0,0.0,0.0,0.0,0.0,0.0,0.0,0.0,0.0,0.0,0.0,0.0,0.0,0.0,0.0,-0.8022,0.0,0.0,0.0,0.0,0.0,0.0,0.0,0.0,0.0,0.0,0.0,0.0,0.0,0.0,0.0,0.0,0.0,0.0,0.0,0.0,0.0,0.0,0.0,0.0,0.0,0.0,0.0,0.0,0.0,0.0,0.0,0.0,0.0,0.0,0.0,0.0,0.0,0.0,0.0,0.0,0.0,0.0,0.0,0.0,0.0,0.0,0.0,0.0,0.0,0.0,0.0,0.0,0.0,0.0,0.0,0.0,0.0,0.0,0.0,-1.9518,-2.0169,-2.1051,-2.1106,-2.0239,-1.9108,-1.7752,0.0,0.0,0.0,0.0,0.0,0.0,0.0,0.0,0.0,0.0,0.0,0.0,0.0,0.0,0.0,0.0,0.0,0.0,0.0,0.0,0.0,0.0,0.0,0.0,0.0,0.0,0.0,0.0,0.0,0.0,0.0,0.0,0.0,0.0,0.0,0.0,0.0,0.0,0.0,0.0,0.0,0.0,0.0,0.0,0.0,0.0,0.0,0.0,0.0,0.0,0.0,0.0,0.0,0.0,0.0,0.0,0.0,0.0,0.0,0.0,0.0,0.0,0.0,0.0,0.0,0.0,0.0,0.0,0.0,0.0,0.0,0.0,0.0,0.0,0.0,0.0,0.0,0.0,0.0,0.0,0.0,0.0,0.0,0.0,0.0,0.0,0.0,0.0,0.0,0.0,0.0,0.0,0.0,0.0,0.0,0.0,0.0,0.0,0.0,0.0,0.0,0.0,0.0,0.0,0.0,0.0,0.0,-1.94,-2.0492,-2.077,-2.1441,-2.1486,-2.0869,-2.0264,-1.8907,-1.6735,0.0,0.0,0.0,0.0,0.0,0.0,0.0,0.0,0.0,0.0,0.0,0.0,0.0,0.0,0.0,0.0,0.0,0.0,0.0,0.0,0.0,0.0,0.0,0.0,0.0,0.0,0.0,0.0,0.0,0.0,0.0,0.0,0.0,0.0,0.0,0.0,0.0,0.0,-0.7972,-0.9495,0.0,0.0,0.0,0.0,0.0,0.0,0.0,0.0,-0.8718,0.0,0.0,0.0,0.0,0.0,0.0,0.0,0.0,0.0,0.0,0.0,0.0,0.0,0.0,0.0,0.0,0.0,0.0,0.0,0.0,0.0,0.0,0.0,0.0,0.0,0.0,0.0,0.0,0.0,0.0,0.0,0.0,0.0,0.0,0.0,0.0,0.0,0.0,0.0,0.0,0.0,0.0,0.0,0.0,0.0,0.0,0.0,0.0,0.0,0.0,0.0,0.0,0.0,0.0,0.0,0.0,-1.8474,-2.0781,-2.2128,-2.2326,-2.2928,-2.2716,-2.1574,-2.0884,-1.951,-1.7348,0.0,0.0,0.0,0.0,0.0,0.0,0.0,0.0,0.0,0.0,0.0,0.0,0.0,0.0,0.0,0.0,0.0,0.0,0.0,0.0,0.0,0.0,0.0,0.0,0.0,0.0,0.0,0.0,0.0,0.0,0.0,0.0,0.0,0.0,0.0,0.0,0.0,0.0,0.0,-1.1007,-1.1663,0.0,0.0,0.0,0.0,0.0,0.0,0.0,0.0,-0.876,0.0,0.0,0.0,0.0,0.0,0.0,0.0,0.0,0.0,0.0,0.0,0.0,0.0,0.0,0.0,0.0,0.0,0.0,0.0,0.0,0.0,0.0,0.0,0.0,0.0,0.0,0.0,0.0,0.0,0.0,0.0,0.0,0.0,0.0,0.0,0.0,0.0,0.0,0.0,0.0,0.0,0.0,0.0,0.0,0.0,0.0,0.0,0.0,0.0,0.0,0.0,0.0,0.0,0.0,0.0,-2.0063,-2.2328,-2.3578,-2.3728,-2.3872,-2.3181,-2.1594,-2.07,-1.9183,0.0,0.0,0.0,0.0,0.0,0.0,0.0,0.0,0.0,0.0,0.0,0.0,0.0,0.0,0.0,0.0,0.0,0.0,0.0,0.0,0.0,0.0,0.0,0.0,0.0,0.0,0.0,0.0,0.0,0.0,0.0,0.0,0.0,0.0,0.0,0.0,0.0,0.0,0.0,0.0,-1.1722,-1.2194,-1.1738,0.0,0.0,0.0,0.0,0.0,0.0,-0.9172,-0.9189,0.0,0.0,0.0,0.0,0.0,0.0,0.0,0.0,0.0,0.0,0.0,0.0,0.0,0.0,0.0,0.0,0.0,0.0,0.0,0.0,0.0,0.0,0.0,0.0,0.0,0.0,0.0,0.0,0.0,0.0,0.0,0.0,0.0,0.0,0.0,0.0,0.0,0.0,0.0,0.0,0.0,0.0,0.0,0.0,0.0,0.0,0.0,0.0,0.0,0.0,0.0,0.0,0.0,0.0,0.0,-2.1309,-2.3476,-2.4672,-2.4819,-2.4596,-2.3583,-2.1721,-2.0527,-1.8842,0.0,0.0,0.0,0.0,0.0,0.0,0.0,0.0,0.0,0.0,0.0,0.0,0.0,0.0,0.0,0.0,0.0,0.0,0.0,0.0,0.0,0.0,0.0,0.0,0.0,0.0,0.0,0.0,0.0,0.0,0.0,0.0,0.0,0.0,0.0,0.0,0.0,0.0,0.0,0.0,0.0,-1.2763,-1.2579,-1.2272,0.0,0.0,0.0,0.0,-0.9649,-0.9786,0.0,0.0,0.0,0.0,0.0,0.0,0.0,0.0,0.0,0.0,0.0,0.0,0.0,0.0,0.0,0.0,0.0,0.0,0.0,0.0,0.0,0.0,0.0,0.0,0.0,0.0,0.0,0.0,0.0,0.0,0.0,0.0,0.0,0.0,0.0,0.0,0.0,0.0,0.0,0.0,0.0,0.0,0.0,0.0,0.0,0.0,0.0,0.0,0.0,0.0,0.0,0.0,0.0,0.0,0.0,0.0,-2.145,-2.3735,-2.504,-2.5225,-2.5149,-2.4299,-2.2671,-2.1095,-1.9132,0.0,0.0,0.0,0.0,0.0,0.0,0.0,0.0,0.0,0.0,0.0,0.0,0.0,0.0,0.0,0.0,0.0,0.0,0.0,0.0,0.0,0.0,0.0,0.0,0.0,0.0,0.0,0.0,0.0,0.0,0.0,0.0,0.0,0.0,0.0,0.0,0.0,0.0,0.0,0.0,0.0,-1.3931,-1.3741,-1.3124,-1.2633,0.0,0.0,-1.0842,-1.1613,-1.1233,0.0,0.0,0.0,0.0,0.0,0.0,0.0,0.0,0.0,0.0,0.0,0.0,0.0,0.0,0.0,0.0,0.0,0.0,0.0,0.0,0.0,0.0,0.0,0.0,0.0,0.0,0.0,0.0,0.0,0.0,0.0,0.0,0.0,0.0,0.0,0.0,0.0,0.0,0.0,0.0,0.0,0.0,0.0,0.0,0.0,0.0,0.0,0.0,0.0,0.0,0.0,0.0,0.0,0.0,0.0,-1.9713,-2.2644,-2.4809,-2.6066,-2.6352,-2.6087,-2.4973,-2.3032,-2.1149,-1.9028,0.0,0.0,0.0,0.0,0.0,0.0,0.0,0.0,0.0,0.0,0.0,0.0,0.0,0.0,0.0,0.0,0.0,0.0,0.0,0.0,0.0,0.0,0.0,0.0,0.0,0.0,0.0,0.0,0.0,0.0,0.0,0.0,0.0,0.0,0.0,0.0,0.0,0.0,0.0,0.0,0.0,0.0,-1.3935,-1.3942,0.0,0.0,0.0,-1.2656,-1.2902,0.0,0.0,0.0,0.0,0.0,0.0,0.0,0.0,0.0,0.0,0.0,0.0,0.0,0.0,0.0,0.0,0.0,0.0,0.0,0.0,0.0,0.0,0.0,0.0,0.0,0.0,0.0,0.0,0.0,0.0,0.0,0.0,0.0,0.0,0.0,0.0,0.0,0.0,0.0,0.0,0.0,0.0,0.0,0.0,0.0,0.0,0.0,0.0,0.0,0.0,0.0,0.0,0.0,0.0,0.0,0.0,0.0,-2.3565,-2.557,-2.6803,-2.7229,-2.6841,-2.5598,-2.3452,-2.1595,0.0,0.0,0.0,0.0,0.0,0.0,0.0,0.0,0.0,0.0,0.0,0.0,0.0,0.0,0.0,0.0,0.0,0.0,0.0,0.0,0.0,0.0,0.0,0.0,0.0,0.0,0.0,-0.679,0.0,0.0,0.0,0.0,0.0,0.0,0.0,0.0,0.0,0.0,0.0,0.0,0.0,0.0,-1.5106,-1.4573,-1.4898,-1.5005,0.0,0.0,-1.4302,-1.4148,-1.4598,-1.4405,0.0,0.0,0.0,0.0,0.0,0.0,0.0,0.0,0.0,0.0,0.0,0.0,0.0,0.0,0.0,0.0,0.0,0.0,0.0,0.0,0.0,0.0,0.0,0.0,0.0,0.0,0.0,0.0,0.0,0.0,0.0,0.0,0.0,0.0,0.0,0.0,0.0,0.0,0.0,0.0,0.0,0.0,0.0,0.0,0.0,0.0,0.0,0.0,0.0,0.0,0.0,0.0,0.0,0.0,0.0,-2.3535,-2.557,-2.6857,-2.7372,-2.7034,-2.6017,-2.4273,-2.2809,-2.0546,0.0,0.0,0.0,0.0,0.0,0.0,0.0,0.0,0.0,0.0,0.0,0.0,0.0,0.0,0.0,0.0,0.0,0.0,0.0,0.0,0.0,0.0,0.0,0.0,0.0,0.0,0.0,0.0,0.0,0.0,0.0,0.0,0.0,0.0,0.0,0.0,0.0,0.0,0.0,0.0,0.0,-1.6098,-1.6379,-1.6138,-1.6077,0.0,0.0,-1.5368,-1.5526,-1.5349,-1.4674,-1.3198,0.0,0.0,0.0,0.0,0.0,0.0,0.0,0.0,0.0,0.0,0.0,0.0,0.0,0.0,0.0,0.0,0.0,0.0,0.0,0.0,0.0,0.0,0.0,0.0,0.0,0.0,0.0,0.0,0.0,0.0,0.0,0.0,0.0,0.0,0.0,0.0,0.0,0.0,0.0,0.0,0.0,0.0,0.0,0.0,0.0,0.0,0.0,0.0,0.0,0.0,0.0,0.0,0.0,-2.0741,-2.3565,-2.5959,-2.732,-2.7524,-2.7382,-2.6493,-2.4702,-2.3329,-2.1031,0.0,0.0,0.0,0.0,0.0,0.0,0.0,0.0,0.0,0.0,0.0,0.0,0.0,0.0,0.0,0.0,0.0,0.0,0.0,0.0,0.0,0.0,0.0,0.0,0.0,0.0,0.0,0.0,-0.8598,-0.9012,-0.9541,0.0,0.0,0.0,0.0,0.0,0.0,0.0,0.0,0.0,0.0,-1.6989,-1.7299,-1.7315,0.0,0.0,-1.724,-1.6945,-1.6665,-1.655,-1.5787,-1.3635,-1.2695,0.0,0.0,0.0,0.0,0.0,0.0,0.0,0.0,0.0,0.0,0.0,0.0,0.0,0.0,0.0,0.0,0.0,0.0,0.0,0.0,0.0,0.0,0.0,0.0,0.0,0.0,0.0,0.0,0.0,0.0,0.0,0.0,0.0,0.0,0.0,0.0,0.0,0.0,0.0,0.0,0.0,0.0,0.0,0.0,0.0,0.0,0.0,0.0,0.0,0.0,0.0,0.0,-2.1171,-2.3595,-2.6237,-2.7585,-2.7585,-2.7585,-2.6758,-2.5014,-2.3871,-2.162,0.0,0.0,0.0,0.0,0.0,0.0,0.0,0.0,0.0,0.0,0.0,0.0,0.0,0.0,0.0,0.0,0.0,0.0,0.0,0.0,0.0,0.0,0.0,0.0,0.0,0.0,0.0,0.0,-0.9453,-0.9654,-0.9893,0.0,0.0,0.0,0.0,0.0,0.0,0.0,0.0,0.0,0.0,-1.7933,-1.8067,-1.8286,-1.8447,-1.8422,-1.841,-1.8217,-1.7651,-1.7422,-1.6539,-1.4314,0.0,0.0,0.0,0.0,0.0,0.0,0.0,0.0,0.0,0.0,0.0,0.0,0.0,0.0,0.0,0.0,0.0,0.0,0.0,0.0,0.0,0.0,0.0,0.0,0.0,0.0,0.0,0.0,0.0,0.0,-1.5873,0.0,0.0,0.0,0.0,0.0,0.0,0.0,0.0,0.0,0.0,0.0,0.0,0.0,0.0,0.0,0.0,0.0,0.0,0.0,0.0,0.0,0.0,-2.163,-2.3595,-2.6252,-2.7585,-2.7585,-2.7585,-2.6812,-2.5165,-2.4433,-2.2446,-1.8954,0.0,0.0,0.0,0.0,0.0,0.0,0.0,0.0,0.0,0.0,0.0,0.0,0.0,0.0,0.0,0.0,0.0,0.0,0.0,0.0,0.0,0.0,0.0,0.0,0.0,0.0,-1.1387,-1.0983,-1.0457,0.0,0.0,0.0,0.0,0.0,0.0,0.0,0.0,0.0,0.0,-1.7929,-1.8908,-1.8821,-1.9014,-1.9239,-1.9368,-1.9253,-1.9005,-1.8457,-1.7785,-1.6788,0.0,0.0,0.0,0.0,0.0,0.0,0.0,0.0,0.0,0.0,0.0,0.0,0.0,0.0,0.0,0.0,0.0,0.0,0.0,0.0,0.0,0.0,0.0,0.0,0.0,0.0,0.0,-1.9433,-1.9156,0.0,0.0,0.0,0.0,0.0,0.0,0.0,0.0,0.0,0.0,0.0,-2.2951,-2.2742,0.0,0.0,0.0,0.0,0.0,0.0,0.0,0.0,0.0,0.0,0.0,0.0,-2.1665,-2.361,-2.6252,-2.7585,-2.7585,-2.7585,-2.7041,-2.5884,-2.4959,-2.2456,-1.8124,0.0,0.0,0.0,0.0,0.0,0.0,0.0,0.0,0.0,0.0,0.0,0.0,0.0,0.0,0.0,0.0,0.0,0.0,0.0,0.0,0.0,0.0,0.0,0.0,0.0,-1.1374,0.0,0.0,0.0,0.0,0.0,0.0,0.0,0.0,0.0,0.0,0.0,-1.6776,-1.7539,-1.8418,-1.9233,-1.9973,-2.0145,-2.0353,0.0,0.0,0.0,0.0,0.0,0.0,0.0,0.0,0.0,0.0,0.0,0.0,0.0,0.0,-1.4643,-1.3857,-1.3242,-1.2891,-1.3027,0.0,0.0,0.0,0.0,0.0,0.0,0.0,0.0,0.0,0.0,0.0,0.0,0.0,0.0,-2.2973,0.0,-2.2025,0.0,0.0,0.0,0.0,0.0,0.0,0.0,0.0,-2.527,-2.5674,-2.5659,-2.5435,-2.5465,0.0,-2.5211,-2.4103,0.0,0.0,0.0,0.0,0.0,0.0,0.0,0.0,-2.2248,-2.3962,-2.6372,-2.7585,-2.7585,-2.7585,-2.717,-2.6278,-2.4752,-2.2055,-1.8062,-1.6025,-1.4257,0.0,0.0,0.0,0.0,0.0,0.0,0.0,0.0,0.0,0.0,0.0,0.0,0.0,0.0,0.0,0.0,0.0,0.0,0.0,0.0,0.0,0.0,0.0,-1.2062,0.0,0.0,0.0,0.0,0.0,0.0,0.0,0.0,0.0,-1.6174,-1.7014,-1.794,-1.8632,-1.9409,-2.015,-2.0867,0.0,0.0,0.0,0.0,0.0,0.0,0.0,-1.7832,-1.7361,-1.6984,-1.6832,-1.7093,-1.7386,-1.7434,-1.7116,0.0,0.0,-1.5674,-1.501,-1.4668,-1.4747,-1.4492,-1.4367,-1.4894,-1.5128,-1.5469,0.0,0.0,0.0,0.0,0.0,0.0,0.0,0.0,-2.7602,-2.7476,0.0,-2.5556,0.0,0.0,0.0,0.0,0.0,-2.4081,0.0,0.0,-2.8918,-2.9621,-2.9502,-2.8876,-2.8966,-2.9502,-2.8229,-2.7585,-2.73,-2.3071,0.0,0.0,0.0,0.0,0.0,0.0,-2.334,-2.4649,-2.6611,-2.7585,-2.7585,-2.7585,-2.722,-2.6356,-2.3911,-2.1428,-1.8894,-1.7788,-1.6055,-1.3458,-1.3223,0.0,0.0,0.0,0.0,0.0,0.0,0.0,0.0,0.0,0.0,0.0,0.0,0.0,0.0,0.0,0.0,0.0,0.0,0.0,0.0,-1.2642,0.0,0.0,0.0,0.0,0.0,0.0,0.0,0.0,0.0,0.0,-1.7714,-1.892,-1.9823,-1.9849,0.0,0.0,0.0,0.0,-2.1518,-2.1556,-2.1531,-2.1302,-2.0665,-1.9879,-1.9287,-1.9182,0.0,0.0,-1.9523,-1.9237,-1.8691,-1.7941,-1.7814,-1.7554,-1.6853,-1.6629,-1.6482,-1.6212,-1.6338,-1.6648,-1.6746,-1.6963,-1.7402,-3.4815,0.0,0.0,0.0,0.0,-3.092,-3.1163,-3.165,-3.1311,-3.1163,-3.1084,-2.975,0.0,0.0,0.0,0.0,0.0,0.0,-2.729,-2.8353,-2.9639,-3.0013,-2.9621,-2.9849,-2.9834,-2.9592,-2.9217,-2.8783,-2.8203,-2.6042,-2.3984,-2.2188,0.0,0.0,0.0,0.0,-2.3984,-2.533,-2.6811,-2.7585,-2.7585,-2.7585,-2.7021,-2.5866,-2.4388,-2.254,-2.0326,-1.8496,-1.6905,-1.56,-1.4068,0.0,0.0,0.0,0.0,0.0,0.0,0.0,0.0,0.0,0.0,0.0,0.0,0.0,0.0,0.0,0.0,0.0,0.0,0.0,-1.3292,-1.4004,-1.435,0.0,0.0,0.0,0.0,0.0,0.0,0.0,0.0,0.0,-1.9811,-2.0176,-2.0591,0.0,0.0,-2.1631,-2.2033,-2.2083,-2.2221,-2.2581,-2.2293,0.0,-2.1813,-2.0944,-2.0403,-2.075,-2.1051,-2.144,-2.1959,-2.1608,-2.0913,-1.9952,-1.9403,-1.8747,-1.7807,-1.7096,-1.6826,-1.6943,-1.6875,-1.6921,-1.7477,-1.7754,-1.8047,-3.8667,-3.5729,-3.4387,-3.4269,-3.495,-3.4896,-3.5251,-3.5793,-3.5444,-3.5335,-3.5409,-3.3872,-3.2564,-3.1352,-2.9284,0.0,0.0,0.0,-2.9505,-3.0178,-3.121,-3.1495,-3.118,-3.1509,-3.136,-3.0746,-3.0477,-3.0013,-2.934,-2.8278,-2.7195,-2.5899,0.0,0.0,-2.3445,-2.4073,-2.4926,-2.5989,-2.7046,-2.7585,-2.7585,-2.7585,-2.6971,-2.5636,-2.4829,-2.3389,-2.1122,-1.9369,-1.7877,-1.6701,-1.5131,-1.3657,0.0,0.0,0.0,0.0,0.0,0.0,0.0,0.0,0.0,0.0,0.0,-0.8227,-0.9315,0.0,0.0,0.0,-1.2621,-1.3526,-1.462,-1.5223,0.0,0.0,0.0,0.0,0.0,0.0,0.0,-1.9058,-2.0451,-2.1421,-2.1619,-2.1845,-2.1986,-2.1832,-2.2008,-2.2259,-2.2569,0.0,-2.2732,-2.3058,-2.2819,-2.256,-2.2305,-2.1757,-2.143,-2.1744,-2.2243,-2.2694,-2.302,-2.2635,-2.1944,-2.1028,-2.0323,-1.9594,-1.8607,-1.7942,-1.7533,-1.7602,-1.7399,-1.7457,-1.8135,-1.8398,-1.8721,-4.1457,-4.1288,-3.9276,-3.8717,-3.9174,-3.9157,-3.958,-4.0214,-3.9546,-3.9622,-4.0003,-3.7698,-3.6393,-3.5704,-3.2431,0.0,-3.145,-3.159,-3.1974,-3.2617,-3.326,-3.3544,-3.3499,-3.3529,-3.323,-3.2542,-3.1899,-3.1256,-3.0657,-2.9968,-2.9654,-2.9577,-2.5914,-2.4388,-2.5008,-2.5585,-2.6153,-2.6752,-2.7375,-2.7645,-2.7585,-2.7585,-2.6956,-2.5659,-2.5283,-2.392,-2.1447,-2.0282,-1.8903,-1.7122,-1.6309,-1.5151,-1.3453,0.0,0.0,0.0,0.0,0.0,0.0,0.0,0.0,0.0,0.0,0.0,0.0,0.0,0.0,0.0,-1.3627,0.0,-1.5751,-1.6358,0.0,0.0,0.0,-1.719,-1.8279,-1.8895,-1.9698,-2.0779,0.0,0.0,-2.317,-2.3728,-2.369,-2.2648,-2.292,-2.3246,-2.3233,-2.3258,-2.3233,-2.3308,-2.3258,-2.307,-2.2774,-2.2598,-2.2548,-2.2493,-2.2844,-2.3158,-2.309,-2.2757,-2.213,-2.1356,-2.0784,-2.0237,-1.9396,-1.9088,-1.8792,-1.8285,-1.8115,-1.8184,-1.8637,-1.9053,-1.9424,-4.3802,-4.3741,-4.32,-4.21,-4.0696,-4.0679,-4.1102,-4.1754,-4.1593,-4.1288,-4.084,-3.953,-3.7507,-3.4991,-3.3547,-3.278,-3.2629,-3.29,-3.311,-3.3305,-3.3933,-3.4009,-3.3529,-3.4039,-3.3903,-3.3245,-3.2602,-3.2198,-3.1988,-3.0866,-3.0283,-3.0208,-2.8861,-2.8248,-2.8382,-2.8068,-2.7964,-2.8128,-2.8278,-2.8124,-2.7615,-2.7585,-2.6971,-2.5636,-2.5355,-2.4098,-2.1699,-2.0611,-1.9404,-1.796,-1.6762,-1.5639,-1.4532,-1.3541,0.0,0.0,0.0,0.0,0.0,0.0,0.0,0.0,0.0,-1.0156,-1.1685,0.0,-1.3077,0.0,-1.5291,-1.622,-1.6933,-1.7865,0.0,0.0,-1.8757,-1.9309,-2.0025,-2.0941,-2.1794,-2.2431,-2.3509,-2.4249,-2.4374,-2.4512,-2.4531,-2.4224,-2.4299,-2.4387,-2.4387,-2.4387,-2.4399,-2.4362,-2.4349,-2.4336,-2.4205,-2.4199,-2.4023,-2.3665,-2.3703,-2.364,-2.3183,-2.2848,-2.2408,-2.1827,-2.1408,-2.0933,-2.0366,-2.027,-2.0107,-1.9551,-1.9057,-1.8852,-1.9443,-1.9687,-1.9883,-4.4919,-4.4615,-4.4598,-4.3887,-4.2709,-4.2709,-4.2946,-4.3267,-4.2929,-4.2557,-4.2091,-4.0545,-3.8728,-3.6689,-3.5475,-3.4737,-3.4425,-3.4405,-3.4382,-3.4412,-3.4771,-3.4741,-3.4397,-3.4771,-3.4577,-3.3933,-3.3574,-3.308,-3.2467,-3.1764,-3.124,-3.0943,-3.0612,-3.0447,-3.0402,-2.952,-2.8891,-2.8592,-2.8293,-2.7974,-2.76,-2.7315,-2.6647,-2.5621,-2.5159,-2.3981,-2.1939,-2.0941,-1.9955,-1.8935,-1.7552,-1.6471,-1.5814,-1.4645,-1.3488,0.0,0.0,0.0,0.0,0.0,0.0,0.0,0.0,0.0,0.0,0.0,-1.4789,-1.5915,-1.6999,-1.7865,-1.8417,-1.9459,-2.0099,-2.0099,-2.0376,-2.0878,-2.1669,-2.2309,-2.2957,-2.376,-2.4399,-2.4876,-2.5121,-2.5172,-2.5272,-2.5511,-2.5536,-2.5372,-2.4888,-2.48,-2.48,-2.48,-2.48,-2.48,-2.48,-2.48,-2.4687,-2.4431,-2.4368,-2.4224,-2.391,-2.3685,-2.3403,-2.293,-2.2643,-2.2321,-2.1899,-2.1731,-2.1552,-2.1142,-2.0646,-2.0175,-1.9718,-1.9785,-2.0,-4.5263,-4.4598,-4.4598,-4.4598,-4.4598,-4.4598,-4.4598,-4.4547,-4.3859,-4.3494,-4.3209,-4.115,-3.9899,-3.92,-3.7494,-3.6585,-3.627,-3.5746,-3.5489,-3.5489,-3.5489,-3.5489,-3.5489,-3.5489,-3.5205,-3.4653,-3.4548,-3.3844,-3.2647,-3.2557,-3.2183,-3.1525,-3.1496,-3.1496,-3.1451,-3.0402,-2.9475,-2.8727,-2.8079,-2.769,-2.7585,-2.6931,-2.6273,-2.5591,-2.4909,-2.3741,-2.2116,-2.1323,-2.0557,-1.9838,-1.8566,-1.762,-1.7104,-1.5933,-1.4721,0.0,-1.2977,0.0,0.0,0.0,0.0,0.0,0.0,0.0,0.0,-1.55,-1.6559,-1.7601,-1.8643,-1.9434,-1.9974,-2.1029,-2.1707,-2.1735,-2.182,-2.2297,-2.3183,-2.3371,-2.3797,-2.4775,-2.4951,-2.5209,-2.5636,-2.5699,-2.5946,-2.6323,-2.6399,-2.6097,-2.5272,-2.5096,-2.5089,-2.5034,-2.4988,-2.5172,-2.5134,-2.5064,-2.5026,-2.4926,-2.4888,-2.4895,-2.4738,-2.4653,-2.4471,-2.4149,-2.3936,-2.3776,-2.3525,-2.326,-2.304,-2.2733,-2.2441,-2.1735,-2.0266,-1.9991,-2.0056,-4.5263,-4.4598,-4.4598,-4.4598,-4.4598,-4.4598,-4.4598,-4.4598,-4.4445,-4.39,-4.2981,-4.1607,-4.058,-3.9742,-3.82,-3.7277,-3.678,-3.5924,-3.5489,-3.5489,-3.5489,-3.5489,-3.5489,-3.5489,-3.5429,-3.528,-3.4773,-3.4068,-3.3305,-3.2766,-3.2153,-3.1511,-3.1496,-3.1496,-3.1496,0.0,0.0,0.0,-2.8757,-2.8154,-2.76,-2.6971,-2.6288,-2.563,-2.4925,0.0,-2.1893,-2.1981,-2.1397,-1.9984,-1.9768,0.0,0.0,0.0,0.0,0.0,0.0,0.0,0.0,0.0,0.0,0.0,-1.7287,-1.7011,-1.682,-1.7752,-1.8644,-1.9296,-1.9962,-2.0603,-2.1117,-2.2159,-2.2794,-2.2819,-2.3609,-2.428,-2.4462,-2.4858,-2.5234,-2.5423,-2.5883,-2.621,-2.6273,-2.6336,-2.6361,-2.6461,-2.6487,-2.6424,-2.6197,-2.6122,-2.616,-2.6185,-2.6097,-2.616,-2.6185,-2.6135,-2.5887,-2.5611,-2.5448,-2.5297,-2.4938,-2.4838,-2.4781,-2.4651,-2.4646,-2.4606,-2.4521,-2.4599,-2.4456,-2.3978,-2.392,-2.3416,-2.1699,-2.127,-2.1141,-4.6363,0.0,-4.528,-4.5128,0.0,-4.4767,-4.4598,-4.4598,-4.4598,-4.4226,-4.3466,-4.2253,-4.1341,-4.0538,-3.8921,-3.7987,-3.7532,-3.6484,-3.5998,-3.5968,-3.5654,-3.5489,-3.5489,-3.5489,-3.5489,-3.5489,-3.5145,-3.4668,-3.3994,-3.3335,-3.2662,-3.1989,-3.1675,-3.1496,-3.1496,-3.1496,-3.0868,-2.9621,-2.8936,-2.8263,-2.7615,-2.6931,-2.6422,-2.6078,-2.5113,0.0,0.0,0.0,0.0,0.0,0.0,0.0,0.0,0.0,0.0,-1.6442,-1.6262,-1.6325,-1.6518,-1.6807,-1.7652,-1.9284,-1.9673,-1.9623,-1.9082,-1.9522,-2.0062,-2.0589,-2.1154,-2.1707,-2.223,-2.3062,-2.3647,-2.3923,-2.4437,-2.4876,-2.5184,-2.5423,-2.5699,-2.6034,-2.6323,-2.6487,-2.6487,-2.6487,-2.6487,-2.6487,-2.6487,-2.6487,-2.6487,-2.6487,-2.6487,-2.6487,-2.6487,-2.6487,-2.6487,-2.6487,-2.6424,-2.6135,-2.6059,-2.5925,-2.5686,-2.5636,-2.5624,-2.5636,-2.5624,-2.5669,-2.5649,-2.5672,-2.5492,-2.5043,-2.4861,-2.4516,-2.3401,-2.2708,-2.2044,-4.7479,-4.6752,-4.616,-4.5821,-4.5652,-4.5043,-4.4733,-4.4598,0.0,0.0,0.0,-4.2928,-4.2087,-4.1337,-3.9643,-3.8699,-3.8272,-3.7059,-3.6492,-3.6495,-3.5804,-3.5489,-3.5489,-3.5489,-3.5489,-3.5489,-3.5489,-3.516,-3.4503,-3.3814,-3.3155,-3.2482,-3.1824,-3.1496,-3.1496,-3.1496,-3.0913,-2.9774,-2.9101,-2.8382,-2.7615,-2.6956,-2.6602,-2.6602,-2.5412,-2.4455,-2.3804,-2.3314,-2.2882,-2.254,-2.1888,-2.1468,-2.1296,-2.0466,-1.9484,-1.8445,-1.8305,-1.8389,-1.863,-1.8731,-1.9397,-2.0893,-2.1468,-2.1506,-2.0905,-2.1018,-2.1292,-2.1744,-2.2359,-2.2907,-2.3358,-2.3941,-2.4456,-2.4888,-2.5059,-2.5297,-2.5686,-2.5749,-2.5984,-2.6386,-2.6474,-2.6487,-2.6487,-2.6487,-2.6487,-2.6487,-2.6487,-2.6487,-2.6487,-2.6487,-2.6487,-2.6487,-2.6487,-2.6487,-2.6487,-2.6487,-2.6487,-2.6449,-2.6461,-2.6487,-2.6487,-2.6487,-2.6487,-2.6399,-2.6487,-2.6449,-2.6474,-2.6311,-2.6131,-2.5816,-2.5629,-2.5406,-2.504,-2.424,-2.3205,-4.7479,-4.6786,-4.6667,-4.6295,-4.5703,-4.5602,-4.5179,-4.4615,-4.4598,-4.44,-4.4068,-4.3433,-4.2733,-4.1917,-4.0346,-3.9354,-3.8804,-3.7233,-3.6492,-3.6462,-3.5804,-3.5489,-3.5489,-3.5489,-3.5489,-3.5489,-3.5489,-3.5145,-3.4503,-3.3814,-3.317,-3.2512,-3.1839,-3.1496,-3.1496,-3.1496,-3.1122,-3.0387,-2.9759,-2.8873,-2.7615,-2.6956,-2.6602,-2.6557,-2.5884,-2.5143,-2.45,-2.4903,-2.4896,-2.4276,-2.4509,-2.4282,-2.3414,-2.2837,-2.1942,-2.0638,-2.0714,-2.0707,-2.0405,-2.0779,-2.133,-2.202,-2.2556,-2.2472,-2.1506,-2.2217,-2.2794,-2.2907,-2.3772,-2.4462,-2.4575,-2.5021,-2.5347,-2.5498,-2.5959,-2.6298,-2.6336,-2.6336,-2.6373,-2.6474,-2.6487,-2.6487,-2.6487,-2.6487,-2.6487,-2.6487,-2.6549,-2.6512,-2.6537,-2.6487,-2.6487,-2.6487,-2.6487,-2.6487,-2.6487,-2.6487,-2.6487,-2.6487,-2.6487,-2.6487,-2.6487,-2.6487,-2.6487,-2.6487,-2.6487,-2.6487,-2.6487,-2.6487,-2.6396,-2.6314,-2.6233,-2.6198,-2.6094,-2.5664,-2.4838,-4.8308,-4.7953,-4.7564,-4.7208,-4.6836,-4.6058,-4.528,-4.4615,-4.4598,-4.44,-4.4068,-4.3532,-4.2911,-4.211,-4.088,-4.005,-3.9558,-3.7824,-3.6985,-3.6911,-3.5968,-3.5489,-3.5489,-3.5489,-3.5489,-3.5489,-3.5489,-3.534,-3.4966,-3.3993,-3.3335,-3.2991,-3.2019,-3.1496,-3.1496,-3.1496,-3.1167,-3.0522,-3.0223,-2.9445,-2.8199,-2.7844,-2.7515,-2.7151,-2.6482,-2.6004,-2.5704,-2.563,-2.5457,-2.5158,-2.5201,-2.493,-2.4279,-2.3688,-2.2899,-2.1901,-2.1746,-2.1653,-2.1571,-2.2083,-2.2456,-2.2719,-2.3246,-2.3401,-2.2899,-2.3301,-2.3728,-2.3985,-2.4512,-2.4913,-2.5209,-2.546,-2.5711,-2.6059,-2.6348,-2.6487,-2.6487,-2.6487,-2.6487,-2.6487,-2.6487,-2.6487,-2.6487,-2.6487,-2.6487,-2.6512,-2.6713,-2.6927,-2.6964,-2.7168,-2.7153,-2.665,-2.6487,-2.6487,-2.6487,-2.6487,-2.6487,-2.6487,-2.6487,-2.6487,-2.6487,-2.6487,-2.6487,-2.6487,-2.6487,-2.6487,-2.6487,-2.6487,-2.6487,-2.6487,-2.6487,-2.6487,-2.6452,-2.6107,-2.5263,-4.9018,-4.8951,-4.8392,-4.8071,-4.7753,-4.6329,-4.5382,-4.4869,-4.4682,-4.4372,-4.3935,-4.3413,-4.2802,-4.2061,-4.1044,-4.0413,-3.9858,-3.8211,-3.7404,-3.7285,-3.6103,-3.5489,-3.5489,-3.5489,-3.5489,-3.5489,-3.5489,-3.5489,-3.5355,-3.4143,-3.3335,-3.2991,-3.2004,-3.1496,-3.1496,-3.1496,-3.1241,-3.0761,-3.0718,-3.0118,-2.8876,-2.8682,-2.8338,-2.7839,-2.718,-2.6836,-2.6806,-2.6318,-2.6048,-2.6025,-2.5794,-2.5477,-2.5056,-2.4392,-2.3713,-2.3041,-2.2561,-2.2413,-2.2678,-2.3045,-2.3358,-2.3496,-2.3929,-2.423,-2.4343,-2.4318,-2.4494,-2.4933,-2.5134,-2.5385,-2.5711,-2.5799,-2.6009,-2.6436,-2.6487,-2.6487,-2.6487,-2.6487,-2.6487,-2.6487,-2.6487,-2.6487,-2.6487,-2.6487,-2.6562,-2.6738,-2.7052,-2.7293,-2.7482,-2.7858,-2.7657,-2.7027,-2.6688,-2.6625,-2.6537,-2.6487,-2.6487,-2.6487,-2.6487,-2.6487,-2.6487,-2.6487,-2.6487,-2.6487,-2.6487,-2.6487,-2.6487,-2.6487,-2.6487,-2.6487,-2.6487,-2.6487,-2.6452,-2.6176,-2.5423,-4.9018,-4.9001,-4.89,-4.8528,-4.7736,-4.6346,-4.5669,-4.55,-4.4919,-4.4241,-4.3621,-4.3094,-4.2412,-4.1606,-4.0665,-4.0076,-3.9647,-3.8122,-3.7404,-3.727,-3.6103,-3.5489,-3.5489,-3.5489,-3.5489,-3.5489,-3.5489,-3.5489,-3.5429,-3.4143,-3.2901,-3.1809,-3.1555,-3.1496,-3.1496,-3.1496,-3.1466,-3.1406,-3.1406,-3.0778,-2.9577,-2.8906,-2.8562,-2.8502,-2.7869,-2.751,-2.7465,-2.745,-2.7405,-2.7395,-2.7123,-2.678,-2.6309,-2.5709,-2.5011,-2.4193,-2.379,-2.368,-2.3827,-2.3879,-2.4117,-2.4575,-2.4662,-2.4921,-2.5335,-2.5297,-2.5343,-2.5548,-2.5988,-2.6285,-2.6411,-2.6386,-2.6386,-2.6461,-2.6487,-2.6487,-2.6487,-2.6487,-2.6487,-2.6487,-2.6487,-2.6487,-2.6487,-2.6524,-2.6725,-2.7102,-2.7344,-2.762,-2.7959,-2.8172,-2.8021,-2.7419,-2.7205,-2.7002,-2.6637,-2.6487,-2.6487,-2.6487,-2.6487,-2.6487,-2.6487,-2.6487,-2.6487,-2.6487,-2.6487,-2.6487,-2.6487,-2.6487,-2.6487,-2.6487,-2.6487,-2.6487,-2.6487,-2.6418,-2.5849,-4.9018,-4.9018,-4.9018,-4.8595,-4.777,-4.6786,-4.6109,-4.5652,-4.4936,-4.427,-4.3667,-4.2939,-4.2126,-4.1192,-4.0181,-3.9646,-3.9427,-3.8053,-3.7404,-3.7285,-3.6103,-3.5489,-3.5489,-3.5489,-3.5489,-3.5489,-3.5489,-3.5489,-3.5265,-3.4143,-3.2826,-3.163,-3.1496,-3.1496,-3.1496,-3.1496,-3.1496,-3.1496,-3.1496,-3.1241,-3.0731,-3.0073,-2.9355,-2.8652,-2.8323,-2.7989,-2.7645,-2.7585,-2.7585,-2.7585,-2.7361,-2.6985,-2.651,-2.5864,-2.5255,-2.4797,-2.4545,-2.4406,-2.4469,-2.4481,-2.455,-2.4788,-2.5109,-2.5385,-2.5586,-2.5883,-2.6072,-2.616,-2.6361,-2.6487,-2.6487,-2.6487,-2.6487,-2.6487,-2.6487,-2.6487,-2.6487,-2.6487,-2.6487,-2.6487,-2.6487,-2.6499,-2.6549,-2.6776,-2.7052,-2.7356,-2.777,-2.831,-2.8537,-2.8875,-2.8699,-2.7996,-2.777,-2.7381,-2.6713,-2.6487,-2.6487,-2.6487,-2.6487,-2.6487,-2.6487,-2.6487,-2.6487,-2.6487,-2.6487,-2.6487,-2.6487,-2.6487,-2.6487,-2.6487,-2.6487,-2.6487,-2.6487,-2.6487,-2.6177,-4.9018,-4.9018,-4.9018,-4.8697,-4.8139,-4.7192,-4.6498,-4.5906,-4.5021,-4.4327,-4.3831,-4.3047,-4.2205,-4.126,-4.0126,-3.9532,-3.9301,-3.8018,-3.7404,-3.727,-3.6103,-3.5489,-3.5489,-3.5489,-3.5489,-3.5489,-3.5489,-3.54,-3.5115,-3.4083,-3.2916,-3.1899,-3.16,-3.1496,-3.1496,-3.1496,-3.1496,-3.1496,-3.1496,-3.1496,-3.1421,-3.1017,-3.0253,-2.9235,-2.8951,-2.8622,-2.8184,-2.8139,-2.8154,-2.8154,-2.7869,-2.7498,-2.7041,-2.6371,-2.5773,-2.527,-2.495,-2.4883,-2.5008,-2.5034,-2.5109,-2.5272,-2.5636,-2.5837,-2.5946,-2.626,-2.6461,-2.6474,-2.6487,-2.6487,-2.6487,-2.6487,-2.6487,-2.6487,-2.6487,-2.6487,-2.6487,-2.66,-2.6725,-2.6725,-2.6939,-2.6939,-2.7002,-2.7268,-2.7582,-2.7846,-2.8423,-2.9001,-2.9164,-2.9465,-2.9402,-2.8499,-2.8222,-2.7632,-2.6738,-2.6487,-2.6487,-2.6487,-2.6487,-2.6487,-2.6487,-2.6487,-2.6487,-2.6487,-2.6487,-2.6487,-2.6487,-2.6487,-2.6487,-2.6487,-2.6487,-2.6487,-2.6487,-2.6487,-2.6487,-4.9018,-4.9018,-4.9018,-4.8968,-4.8849,-4.7445,-4.6786,-4.6583,-4.5258,-4.4417,-4.4039,-4.3472,-4.2863,-4.2094,-4.0646,-3.9839,-3.95,-3.8087,-3.7404,-3.7285,-3.6103,-3.5489,-3.5489,-3.5489,-3.5489,-3.5489,-3.5489,-3.519,-3.4562,-3.3844,-3.3155,-3.2452,-3.1809,-3.1496,-3.1496,-3.1496,-3.1496,-3.1496,-3.1496,-3.1496,-3.1496,-3.1466,-3.1077,-3.0402,-2.9861,-2.9517,-2.9457,-2.9487,-2.9487,-2.9487,-2.9099,-2.8742,-2.828,-2.7667,-2.6783,-2.5715,-2.5109,-2.5071,-2.5485,-2.5561,-2.5762,-2.626,-2.6348,-2.6424,-2.6373,-2.6436,-2.6487,-2.6487,-2.6487,-2.6487,-2.6487,-2.6487,-2.6487,-2.6487,-2.6487,-2.6487,-2.6537,-2.6952,-2.7241,-2.7341,-2.762,-2.7821,-2.7946,-2.8047,-2.8285,-2.8599,-2.885,-2.9126,-2.9553,-2.9754,-2.9478,-2.8963,-2.8411,-2.7745,-2.6776,-2.6487,-2.6487,-2.6487,-2.6487,-2.6487,-2.6487,-2.6487,-2.6487,-2.6487,-2.6487,-2.6487,-2.6487,-2.6487,-2.6487,-2.6487,-2.6487,-2.6487,-2.6487,-2.6487,-2.6487,-4.9018,-4.9018,-4.9018,-4.9018,-4.89,-4.7919,-4.7242,-4.6701,-4.5737,-4.4822,-4.4089,-4.3532,-4.2896,-4.2077,-4.1021,-4.0316,-3.9849,-3.8211,-3.7404,-3.7255,-3.6103,-3.5489,-3.5489,-3.5489,-3.5489,-3.5489,-3.5489,-3.5145,-3.4503,-3.3814,-3.3155,-3.2482,-3.1824,-3.1496,-3.1496,-3.1496,-3.1496,-3.1496,-3.1496,-3.1496,-3.1496,-3.1496,-3.1376,-3.1122,-3.0507,-2.9983,-2.9621,-2.9621,-2.9621,-2.9621,-2.9277,-2.8889,-2.8383,-2.758,-2.6764,-2.6065,-2.5894,-2.5984,-2.6147,-2.6185,-2.626,-2.6449,-2.6487,-2.6487,-2.6487,-2.6487,-2.6487,-2.6487,-2.6487,-2.6487,-2.6487,-2.6487,-2.6487,-2.6487,-2.6499,-2.6637,-2.6952,-2.7216,-2.7406,-2.7733,-2.8009,-2.8109,-2.8247,-2.8411,-2.8662,-2.8913,-2.9239,-2.9528,-2.9691,-2.9779,-2.9591,-2.9089,-2.87,-2.826,-2.719,-2.6675,-2.6487,-2.6487,-2.6487,-2.6487,-2.6487,-2.6487,-2.6487,-2.6487,-2.6487,-2.6487,-2.6487,-2.6487,-2.6487,-2.6487,-2.6487,-2.6487,-2.6487,-2.6487,-2.6487,-4.9018,-4.9018,-4.9018,-4.9018,-4.89,-4.8223,-4.7496,-4.6735,-4.6007,-4.5091,-4.414,-4.3549,-4.288,-4.2077,-4.1207,-4.0562,-4.0074,-3.8471,-3.7614,-3.7315,-3.6312,-3.5699,-3.5519,-3.5489,-3.5489,-3.5489,-3.5489,-3.525,-3.4741,-3.3918,-3.329,-3.2826,-3.1959,-3.1496,-3.1496,-3.1496,-3.1496,-3.1496,-3.1496,-3.1496,-3.1496,-3.1496,-3.1496,-3.1436,-3.1047,-3.0657,-3.0223,-3.0208,-3.0223,-3.0152,-2.9872,-2.939,-2.8694,-2.7723,-2.6968,-2.6514,-2.6464,-2.6487,-2.6487,-2.6487,-2.6487,-2.6487,-2.6487,-2.6487,-2.6487,-2.6487,-2.6487,-2.6487,-2.6487,-2.6487,-2.6487,-2.6487,-2.6487,-2.6487,-2.6487,-2.6725,-2.7205,-2.7431,-2.7908,-2.8499,-2.8712,-2.8687,-2.8699,-2.9001,-2.9176,-2.9214,-2.9566,-2.9767,-2.9779,-2.9767,-2.9691,-2.9289,-2.8988,-2.8612,-2.7984,-2.7519,-2.6826,-2.6688,-2.6637,-2.66,-2.66,-2.6575,-2.6537,-2.6512,-2.6487,-2.6487,-2.6487,-2.6487,-2.6487,-2.6487,-2.6487,-2.6487,-2.6487,-2.6487,-2.6487,-4.9018,-4.9018,-4.9018,-4.9018,-4.8917,-4.8308,-4.7547,-4.6836,-4.6092,-4.5209,-4.424,-4.3535,-4.288,-4.2142,-4.1111,-4.0481,-3.9973,-3.8923,-3.8033,-3.7375,-3.6716,-3.6073,-3.5519,-3.5489,-3.5489,-3.5489,-3.5489,-3.5489,-3.534,-3.4218,-3.3544,-3.3245,-3.2183,-3.16,-3.1496,-3.1496,-3.1496,-3.1496,-3.1496,-3.1496,-3.1496,-3.1496,-3.1496,-3.1496,-3.1436,-3.1391,-3.1406,-3.1391,-3.1331,-3.1332,-3.1086,-3.045,-2.9191,-2.8166,-2.7478,-2.7064,-2.6735,-2.6521,-2.6487,-2.6487,-2.6487,-2.6487,-2.6487,-2.6487,-2.6487,-2.6487,-2.6487,-2.6487,-2.6487,-2.6487,-2.6499,-2.6549,-2.6537,-2.6487,-2.6487,-2.6725,-2.7281,-2.7821,-2.8524,-2.9402,-2.9603,-2.9741,-2.9741,-2.9666,-2.9666,-2.9679,-2.9741,-2.9779,-2.9779,-2.9779,-2.9779,-2.9666,-2.9377,-2.8963,-2.8725,-2.8423,-2.757,-2.6927,-2.6864,-2.6813,-2.6876,-2.6876,-2.6776,-2.6725,-2.6537,-2.6512,-2.6487,-2.6487,-2.6487,-2.6487,-2.6487,-2.6487,-2.6487,-2.6487,-2.6487,-4.9018,-4.9018,-4.9018,-4.9018,-4.8984,-4.8765,-4.8257,-4.7496,-4.6786,-4.5774,-4.4643,-4.3476,-4.2538,-4.1721,-4.0805,-4.0165,-3.9829,-3.9283,-3.8497,-3.7464,-3.6776,-3.6163,-3.5624,-3.5504,-3.5489,-3.5489,-3.5489,-3.5489,-3.534,-3.4592,-3.3978,-3.3395,-3.2647,-3.1959,-3.154,-3.1496,-3.1496,-3.1496,-3.1496,-3.1496,-3.1496,-3.1496,-3.1496,-3.1496,-3.1496,-3.1496,-3.1496,-3.1496,-3.1496,-3.1511,-3.1087,-3.0237,-2.8917,-2.7881,-2.7229,-2.6871,-2.6645,-2.6487,-2.6487,-2.6487,-2.6487,-2.6487,-2.6487,-2.6487,-2.6487,-2.6487,-2.6499,-2.6499,-2.6487,-2.6487,-2.6549,-2.6864,-2.6901,-2.6549,-2.6499,-2.6914,-2.777,-2.8662,-2.934,-2.9679,-2.9779,-2.9779,-2.9779,-2.9779,-2.9779,-2.9779,-2.9779,-2.9779,-2.9779,-2.9779,-2.9779,-2.9741,-2.9515,-2.9327,-2.9063,-2.8875,-2.8386,-2.7733,-2.7482,-2.7291,-2.7291,-2.7228,-2.7115,-2.6876,-2.6675,-2.6524,-2.6499,-2.6487,-2.6487,-2.6487,-2.6487,-2.6487,-2.6487,-2.6537,-2.6625,-4.9018,-4.9018,-4.9018,-4.9018,-4.9018,-4.9018,-4.8578,-4.7838,-4.7124,-4.6068,-4.476,-4.3204,-4.2094,-4.1292,-4.0355,-3.9824,-3.9589,-3.946,-3.8841,-3.7793,-3.712,-3.6492,-3.5878,-3.5594,-3.5489,-3.5489,-3.5489,-3.5489,-3.5459,-3.4863,-3.4294,-3.3799,-3.2961,-3.2303,-3.1854,-3.1615,-3.1496,-3.1496,-3.1496,-3.1496,-3.1496,-3.1496,-3.1496,-3.1496,-3.1496,-3.1496,-3.1496,-3.1496,-3.1496,-3.1307,-3.0673,-2.9546,-2.8384,-2.7464,-2.685,-2.6658,-2.6555,-2.6487,-2.6487,-2.6487,-2.6487,-2.6487,-2.6487,-2.6487,-2.6487,-2.6487,-2.6549,-2.6763,-2.6813,-2.6889,-2.7128,-2.7356,-2.7394,-2.7165,-2.7153,-2.7469,-2.836,-2.9214,-2.9704,-2.9779,-2.9779,-2.9779,-2.9779,-2.9779,-2.9779,-2.9779,-2.9779,-2.9779,-2.9779,-2.9779,-2.9779,-2.9779,-2.9716,-2.9541,-2.934,-2.9214,-2.9126,-2.8687,-2.8285,-2.7996,-2.7821,-2.7708,-2.757,-2.714,-2.6851,-2.6562,-2.6487,-2.6487,-2.6487,-2.6487,-2.6612,-2.6637,-2.6713,-2.6851,-2.6989,-4.9018,-4.9018,-4.9018,-4.9018,-4.9018,-4.9018,-4.8615,-4.7939,-4.7081,-4.5982,-4.4568,-4.283,-4.1592,-4.0873,-3.9915,-3.946,-3.9388,-3.9424,-3.9125,-3.8422,-3.7764,-3.7075,-3.6237,-3.5714,-3.5504,-3.5489,-3.5489,-3.5489,-3.5474,-3.4968,-3.4533,-3.4309,-3.3335,-3.2572,-3.2348,-3.1854,-3.1585,-3.1511,-3.1496,-3.1496,-3.1496,-3.1496,-3.1496,-3.1496,-3.1496,-3.1496,-3.1496,-3.1496,-3.1482,-3.1263,-3.0025,-2.8921,-2.8059,-2.7087,-2.6589,-2.6555,-2.6487,-2.6487,-2.6487,-2.6487,-2.6487,-2.6487,-2.6575,-2.6549,-2.6625,-2.6751,-2.6952,-2.7304,-2.7318,-2.7507,-2.7883,-2.8109,-2.8134,-2.821,-2.8109,-2.8348,-2.8813,-2.9428,-2.9729,-2.9779,-2.9779,-2.9779,-2.9779,-2.9779,-2.9779,-2.9779,-2.9779,-2.9779,-2.9779,-2.9779,-2.9779,-2.9779,-2.9779,-2.9716,-2.9528,-2.9503,-2.9428,-2.9277,-2.895,-2.8737,-2.8436,-2.8285,-2.7984,-2.7494,-2.714,-2.6801,-2.67,-2.6876,-2.6901,-2.6977,-2.7014,-2.6952,-2.7065,-2.7278,-2.7429,-4.9018,-4.9018,-4.9018,-4.9018,-4.9018,-4.9018,-4.8855,-4.8377,-4.7026,-4.5834,-4.4574,-4.259,-4.1245,-4.0581,-3.9788,-3.9388,-3.9388,-3.9388,-3.9343,-3.908,-3.8452,-3.721,-3.6013,-3.5609,-3.5489,-3.5489,-3.5489,-3.5489,-3.5489,-3.528,-3.4951,-3.4503,-3.4144,-3.3425,-3.2632,-3.2348,-3.1959,-3.157,-3.1511,-3.1555,-3.1555,-3.154,-3.1496,-3.1496,-3.1511,-3.1496,-3.1496,-3.1496,-3.1336,-3.094,-2.9995,-2.9079,-2.8371,-2.7443,-2.6816,-2.6679,-2.6555,-2.6487,-2.6487,-2.6487,-2.6487,-2.6537,-2.6839,-2.709,-2.7115,-2.7431,-2.7695,-2.7896,-2.7896,-2.7959,-2.816,-2.8486,-2.8837,-2.9214,-2.8938,-2.8787,-2.8963,-2.9415,-2.9779,-2.9779,-2.9779,-2.9779,-2.9779,-2.9779,-2.9779,-2.9779,-2.9779,-2.9779,-2.9779,-2.9779,-2.9779,-2.9779,-2.9779,-2.9779,-2.9754,-2.9754,-2.9729,-2.9691,-2.9553,-2.9478,-2.9189,-2.8938,-2.8511,-2.7996,-2.772,-2.7394,-2.7557,-2.7745,-2.767,-2.7467,-2.7544,-2.7582,-2.772,-2.7896,-2.7934,-4.9018,-4.9018,-4.9018,-4.9018,-4.9018,-4.9018,-4.8894,-4.8325,-4.6755,-4.5544,-4.4366,-4.221,-4.0891,-4.0355,-3.9681,-3.9388,-3.9388,-3.9388,-3.9388,-3.9305,-3.8691,-3.7479,-3.6207,-3.5699,-3.5489,-3.5489,-3.5489,-3.5489,-3.5489,-3.5489,-3.5265,-3.4936,-3.4653,-3.4068,-3.3455,-3.3036,-3.2766,-3.2407,-3.2318,-3.2333,-3.2347,-3.2049,-3.1929,-3.1839,-3.1705,-3.1496,-3.1496,-3.1496,-3.1292,-3.0851,-3.0222,-2.9549,-2.8821,-2.7848,-2.7196,-2.6939,-2.6658,-2.6487,-2.6487,-2.6487,-2.6487,-2.6587,-2.7002,-2.7266,-2.7369,-2.7783,-2.8147,-2.8411,-2.8448,-2.8574,-2.8825,-2.9114,-2.9428,-2.9628,-2.9478,-2.9289,-2.9289,-2.9603,-2.9754,-2.9779,-2.9779,-2.9779,-2.9779,-2.9779,-2.9779,-2.9779,-2.9779,-2.9779,-2.9779,-2.9779,-2.9779,-2.9779,-2.9779,-2.9779,-2.9779,-2.9779,-2.9779,-2.9779,-2.9779,-2.9779,-2.9628,-2.9365,-2.8963,-2.8499,-2.8285,-2.816,-2.8247,-2.8235,-2.8009,-2.7908,-2.8097,-2.8247,-2.836,-2.8461,-2.8499,-4.9018,-4.9018,-4.9018,-4.9018,-4.9018,-4.9001,-4.8815,-4.8119,-4.6328,-4.508,-4.3955,-4.1774,-4.0512,-4.0111,-3.9625,-3.9388,-3.9388,-3.9388,-3.9388,-3.9215,-3.8676,-3.7704,-3.6641,-3.5983,-3.5654,-3.5534,-3.5489,-3.5489,-3.5489,-3.5489,-3.5489,-3.531,-3.4861,-3.4593,-3.4234,-3.386,-3.3589,-3.3365,-3.3275,-3.326,-3.3185,-3.2841,-3.2632,-3.2512,-3.1989,-3.1735,-3.166,-3.1585,-3.1351,-3.1087,-3.0614,-3.0025,-2.9328,-2.8325,-2.7617,-2.7209,-2.6794,-2.6487,-2.6487,-2.6487,-2.6562,-2.6713,-2.714,-2.7406,-2.7657,-2.8147,-2.8624,-2.8988,-2.8988,-2.9227,-2.9528,-2.9741,-2.9729,-2.9779,-2.9754,-2.9779,-2.9779,-2.9779,-2.9779,-2.9779,-2.9779,-2.9779,-2.9779,-2.9792,-2.9779,-2.9779,-2.9779,-2.9779,-2.9779,-2.9779,-2.9779,-2.9779,-2.9779,-2.9779,-2.9779,-2.9779,-2.9779,-2.9779,-2.9779,-2.9779,-2.9716,-2.949,-2.9239,-2.8976,-2.8888,-2.8737,-2.8599,-2.8499,-2.8398,-2.8486,-2.8737,-2.8825,-2.885,-2.8988,-2.9051,-4.9018,-4.9018,-4.9018,-4.9018,-4.9018,-4.9001,-4.8704,-4.8094,-4.6009,-4.4625,-4.3466,-4.136,-4.0176,-3.9824,-3.9517,-3.9388,-3.9388,-3.9388,-3.9388,-3.9284,-3.8706,-3.8003,-3.718,-3.6552,-3.5998,-3.5639,-3.5489,-3.5489,-3.5489,-3.5489,-3.5489,-3.5444,-3.531,-3.5011,-3.4548,-3.4414,-3.3978,-3.3604,-3.3544,-3.3604,-3.3619,-3.344,-3.3275,-3.317,-3.2617,-3.2303,-3.2153,-3.178,-3.1497,-3.1292,-3.0896,-3.0358,-2.967,-2.8725,-2.7993,-2.7443,-2.6863,-2.6487,-2.6499,-2.6562,-2.67,-2.7153,-2.7607,-2.8122,-2.8549,-2.9026,-2.939,-2.9591,-2.9616,-2.9628,-2.9754,-2.9779,-2.9779,-2.9779,-2.9779,-2.9779,-2.9779,-2.9779,-2.9792,-2.9829,-2.9829,-2.9804,-2.9829,-2.9917,-2.9892,-2.9817,-2.9829,-2.9804,-2.9829,-2.9867,-2.9829,-2.9854,-2.9779,-2.9779,-2.9779,-2.9779,-2.9779,-2.9779,-2.9779,-2.9779,-2.9729,-2.9704,-2.9478,-2.9478,-2.9578,-2.9377,-2.9076,-2.9227,-2.9214,-2.9315,-2.9327,-2.934,-2.9377,-2.9503,-2.9503,-4.9018,-4.9018,-4.9018,-4.9018,-4.9018,-4.9001,-4.8658,-4.7734,-4.5604,-4.4193,-4.305,-4.0918,-3.9732,-3.9553,-3.9445,-3.9388,-3.9388,-3.9388,-3.9388,-3.9313,-3.8975,-3.8332,-3.7509,-3.7015,-3.6477,-3.5654,-3.5489,-3.5489,-3.5489,-3.5489,-3.5489,-3.5489,-3.5489,-3.5325,-3.5011,-3.4936,-3.4816,-3.4577,-3.4442,-3.4442,-3.4427,-3.4113,-3.3739,-3.3529,-3.3125,-3.2841,-3.2378,-3.199,-3.1575,-3.1205,-3.0866,-3.0568,-3.0085,-2.9202,-2.8403,-2.7743,-2.693,-2.6684,-2.6788,-2.6914,-2.7128,-2.7632,-2.8172,-2.8561,-2.895,-2.9453,-2.9741,-2.9779,-2.9779,-2.9779,-2.9779,-2.9779,-2.9779,-2.9779,-2.9779,-2.9779,-2.9792,-2.9792,-2.9967,-3.0156,-3.0256,-3.052,-3.0583,-3.0457,-3.0495,-3.062,-3.0645,-3.0608,-3.0256,-3.0244,-3.0005,-2.9942,-2.9829,-2.9779,-2.9779,-2.9779,-2.9779,-2.9779,-2.9779,-2.9779,-2.9767,-2.9767,-2.9754,-2.9754,-2.9741,-2.9754,-2.9566,-2.9779,-2.9779,-2.9666,-2.9616,-2.9729,-2.9754,-2.9666,-2.9654,-4.9018,-4.9018,-4.9018,-4.9018,-4.9018,-4.9001,-4.8627,-4.7704,-4.529,-4.3904,-4.2813,-4.0521,-3.946,-3.9388,-3.9424,-3.9388,-3.9388,-3.9388,-3.9388,-3.9358,-3.9313,-3.8542,-3.7659,-3.724,-3.6671,-3.5609,-3.5489,-3.5489,-3.5489,-3.5489,-3.5489,-3.5489,-3.5489,-3.5444,-3.5474,-3.5489,-3.537,-3.528,-3.528,-3.531,-3.5295,-3.4876,-3.4397,-3.4068,-3.3724,-3.3362,-3.2761,-3.2221,-3.1686,-3.0962,-3.0635,-3.0513,-3.0311,-2.9655,-2.8724,-2.8053,-2.7293,-2.7148,-2.7366,-2.7444,-2.7645,-2.8197,-2.8574,-2.8913,-2.9164,-2.949,-2.9716,-2.9779,-2.9779,-2.9779,-2.9779,-2.9779,-2.9779,-2.9779,-2.9779,-2.9829,-2.9905,-2.9917,-3.0244,-3.0595,-3.0721,-3.0947,-3.121,-3.126,-3.1348,-3.1399,-3.1411,-3.1273,-3.0896,-3.057,-3.0306,-2.9967,-2.9829,-2.9779,-2.9779,-2.9829,-2.9817,-2.9892,-2.9867,-2.988,-2.9854,-2.9779,-2.9779,-2.9779,-2.9779,-2.9779,-2.9779,-2.9779,-2.9779,-2.9779,-2.9779,-2.9779,-2.9779,-2.9779,-2.9779,-4.9018,-4.9018,-4.9018,-4.9018,-4.9018,-4.9018,-4.8595,-4.7638,-4.5306,-4.3836,-4.2891,-4.0552,-3.9388,-3.9388,-3.9388,-3.9388,-3.9388,-3.9388,-3.9388,-3.9388,-3.9343,-3.8691,-3.7629,-3.7375,-3.6701,-3.5804,-3.5489,-3.5489,-3.5489,-3.5489,-3.5489,-3.5489,-3.5489,-3.5489,-3.5489,-3.5489,-3.5489,-3.5489,-3.5489,-3.5489,-3.5444,-3.5292,-3.5126,-3.481,-3.4452,-3.3951,-3.3382,-3.2576,-3.1861,-3.1379,-3.0447,-3.0145,-3.0066,-2.9568,-2.8953,-2.8384,-2.7918,-2.7733,-2.7934,-2.7984,-2.826,-2.8662,-2.8888,-2.9214,-2.9503,-2.9704,-2.9779,-2.9779,-2.9779,-2.9779,-2.9779,-2.9779,-2.9779,-2.9779,-2.9867,-2.9993,-3.0319,-3.0532,-3.0595,-3.0909,-3.1122,-3.1373,-3.17,-3.1888,-3.1851,-3.1825,-3.1813,-3.1537,-3.111,-3.0809,-3.0532,-3.0168,-2.9804,-2.9779,-2.9779,-2.9842,-2.9892,-3.0043,-3.008,-3.0093,-3.0018,-2.9842,-2.9804,-3.008,-2.9955,-2.9779,-2.9779,-2.9792,-2.9779,-2.9779,-2.9779,-2.9792,-2.9779,-2.9779,-2.9779,-4.9018,-4.9018,-4.9018,-4.9018,-4.9018,-4.9001,-4.8627,-4.7654,-4.5323,-4.382,-4.2622,-4.0618,-3.9388,-3.9388,-3.9388,-3.9388,-3.9388,-3.9388,-3.9388,-3.9388,-3.9313,-3.8706,-3.7524,-3.7404,-3.6626,-3.5833,-3.5489,-3.5489,-3.5489,-3.5489,-3.5489,-3.5489,-3.5489,-3.5489,-3.5489,-3.5489,-3.5489,-3.5489,-3.5489,-3.5504,-3.5457,-3.5326,-3.518,-3.4978,-3.464,-3.4039,-3.3204,-3.2559,-3.1634,-3.0873,-3.0133,-2.9806,-2.9678,-2.9561,-2.9241,-2.8701,-2.8346,-2.8273,-2.8461,-2.8512,-2.8762,-2.9289,-2.9365,-2.9478,-2.9704,-2.9779,-2.9779,-2.9779,-2.9779,-2.9779,-2.9779,-2.9779,-2.9779,-2.9854,-3.003,-3.0319,-3.0658,-3.1122,-3.1298,-3.1373,-3.165,-3.1989,-3.234,-3.2416,-3.2315,-3.2265,-3.2227,-3.1863,-3.1399,-3.121,-3.1022,-3.0645,-3.0344,-3.0319,-3.0281,-3.0244,-3.0269,-3.0369,-3.0419,-3.0432,-3.0482,-3.0432,-3.0545,-3.0758,-3.0482,-3.0018,-2.9792,-2.9804,-2.9792,-2.9792,-2.9829,-2.9842,-2.9804,-2.9779,-2.9905,-4.9018,-4.9018,-4.9018,-4.897,-4.894,-4.8909,-4.8483,-4.7424,-4.5173,-4.3699,-4.2785,-4.0597,-3.9388,-3.9388,-3.9388,-3.9388,-3.9388,-3.9388,-3.9388,-3.9388,-3.9358,-3.8706,-3.7734,-3.7255,-3.6761,-3.5669,-3.5489,-3.5489,-3.5489,-3.5489,-3.5489,-3.5489,-3.5489,-3.5489,-3.5489,-3.5489,-3.5489,-3.5489,-3.5489,-3.5504,-3.5326,-3.4968,-3.462,-3.4433,-3.4182,-3.3519,-3.2637,-3.2062,-3.134,-3.0537,-2.9865,-2.947,-2.9375,-2.9464,-2.9404,-2.905,-2.867,-2.8737,-2.895,-2.9101,-2.9289,-2.9654,-2.9754,-2.9779,-2.9779,-2.9779,-2.9779,-2.9779,-2.9779,-2.9779,-2.9779,-2.9779,-2.9867,-3.0055,-3.0357,-3.0746,-3.116,-3.1599,-3.2051,-3.219,-3.234,-3.2503,-3.2784,-3.286,-3.2734,-3.2734,-3.2641,-3.2365,-3.1964,-3.1926,-3.17,-3.1298,-3.1047,-3.1009,-3.0934,-3.0834,-3.0871,-3.0959,-3.0984,-3.0997,-3.111,-3.1198,-3.1286,-3.1235,-3.0871,-3.0432,-3.0131,-2.9842,-2.9792,-2.9817,-2.988,-2.9993,-3.0105,-3.0294,-3.047,-4.9018,-4.9018,-4.9001,-4.8909,-4.8767,-4.8543,-4.7999,-4.6875,-4.4653,-4.3383,-4.2494,-4.0489,-3.9388,-3.9388,-3.9388,-3.9388,-3.9388,-3.9388,-3.9388,-3.9388,-3.9343,-3.8706,-3.7569,-3.7404,-3.6671,-3.5699,-3.5489,-3.5489,-3.5489,-3.5489,-3.5489,-3.5489,-3.5489,-3.5489,-3.5489,-3.5489,-3.5489,-3.5489,-3.5489,-3.5294,-3.4902,-3.4375,-3.3953,-3.3575,-3.3129,-3.265,-3.2113,-3.1604,-3.1,-3.0507,-2.9538,-2.9328,-2.953,-2.9227,-2.9353,-2.9517,-2.9642,-2.9616,-2.9628,-2.9591,-2.9603,-2.9767,-2.9779,-2.9779,-2.9779,-2.9779,-2.9779,-2.9779,-2.9779,-2.9779,-2.9792,-2.9829,-3.0055,-3.0357,-3.067,-3.1235,-3.1738,-3.2026,-3.2491,-3.2679,-3.2729,-3.283,-3.3048,-3.3074,-3.3099,-3.3111,-3.3061,-3.2717,-3.2516,-3.2441,-3.234,-3.1938,-3.1612,-3.1549,-3.1625,-3.1499,-3.1524,-3.1599,-3.1678,-3.1678,-3.1791,-3.1825,-3.1599,-3.1474,-3.1185,-3.0997,-3.0771,-3.0444,-3.0005,-2.998,-3.0231,-3.0394,-3.0532,-3.0746,-3.0972,-4.9018,-4.8968,-4.8562,-4.8222,-4.7939,-4.716,-4.6354,-4.532,-4.3522,-4.2319,-4.1643,-4.0169,-3.9388,-3.9388,-3.9388,-3.9388,-3.9388,-3.9388,-3.9388,-3.9388,-3.9284,-3.8691,-3.7674,-3.733,-3.6731,-3.5833,-3.5504,-3.5489,-3.5489,-3.5489,-3.5489,-3.5489,-3.5489,-3.5489,-3.5489,-3.5489,-3.5489,-3.5424,-3.5261,-3.4854,-3.4288,-3.3728,-3.3192,-3.2712,-3.2205,-3.1833,-3.1442,-3.1095,-3.0683,-3.0304,-2.9618,-2.9515,-2.9691,-2.9578,-2.9578,-2.9704,-2.9767,-2.9754,-2.9767,-2.9779,-2.9779,-2.9779,-2.9779,-2.9779,-2.9779,-2.9779,-2.9779,-2.9779,-2.9779,-2.9804,-2.9905,-3.0093,-3.0331,-3.0605,-3.111,-3.1587,-3.2152,-3.2528,-3.2885,-3.3023,-3.3124,-3.3124,-3.3124,-3.3124,-3.3124,-3.3124,-3.3124,-3.2943,-3.2842,-3.283,-3.2717,-3.2554,-3.2252,-3.2026,-3.2164,-3.2202,-3.2227,-3.2303,-3.2508,-3.2508,-3.2495,-3.2416,-3.219,-3.2077,-3.1989,-3.1763,-3.1474,-3.0959,-3.0432,-3.0495,-3.0658,-3.0834,-3.0997,-3.1122,-3.1311,-4.85,-4.8557,-4.8219,-4.7788,-4.7328,-4.6205,-4.5373,-4.4487,-4.2782,-4.1755,-4.1096,-4.0046,-3.9388,-3.9388,-3.9388,-3.9388,-3.9388,-3.9388,-3.9388,-3.9388,-3.9254,-3.8736,-3.8048,-3.7599,-3.703,-3.5729,-3.5848,-3.5699,-3.5534,-3.5489,-3.5489,-3.5489,-3.5489,-3.5489,-3.5489,-3.5472,-3.5472,-3.5246,-3.4839,-3.4308,-3.3624,-3.2889,-3.2282,-3.1773,-3.132,-3.096,-3.071,-3.0545,-3.0241,-3.0062,-2.987,-2.9741,-2.9767,-2.9741,-2.9716,-2.9779,-2.9779,-2.9779,-2.9779,-2.9779,-2.9779,-2.9779,-2.9779,-2.9779,-2.9779,-2.9779,-2.9779,-2.9792,-3.0018,-3.0018,-3.0105,-3.0495,-3.0896,-3.1273,-3.1687,-3.2077,-3.2428,-3.2742,-3.2998,-3.3061,-3.3124,-3.3124,-3.3124,-3.3124,-3.3124,-3.3124,-3.3124,-3.3124,-3.3111,-3.3056,-3.298,-3.2872,-3.2759,-3.2503,-3.2591,-3.2729,-3.2817,-3.2867,-3.3061,-3.3086,-3.2923,-3.2923,-3.2835,-3.2729,-3.2629,-3.2516,-3.224,-3.1537,-3.0909,-3.1009,-3.1148,-3.1323,-3.1474,-3.1599,-3.1788,-4.7164,-4.756,-4.8163,-4.7948,-4.7258,-4.6716,-4.5821,-4.458,-4.2921,-4.191,-4.1239,-4.0147,-3.9388,-3.9388,-3.9388,-3.9388,-3.9388,-3.9388,-3.9388,-3.9388,-3.9313,-3.8945,-3.8407,-3.8018,-3.7614,-3.6522,-3.6267,-3.5968,-3.5639,-3.5489,-3.5489,-3.5489,-3.5489,-3.5489,-3.5489,-3.5504,-3.5294,-3.4968,-3.4457,-3.3748,-3.2911,-3.2074,-3.123,-3.0771,-3.0279,-2.9895,-2.9908,-2.9934,-2.9934,-2.9869,-2.983,-2.9792,-2.9779,-2.9779,-2.9779,-2.9779,-2.9779,-2.9779,-2.9779,-2.9779,-2.9779,-2.9779,-2.9779,-2.9779,-2.9779,-2.9779,-2.9779,-2.9842,-3.0143,-3.0432,-3.0633,-3.1022,-3.1474,-3.1788,-3.2114,-3.2441,-3.2704,-3.2867,-3.3086,-3.3111,-3.3124,-3.3124,-3.3124,-3.3124,-3.3124,-3.3124,-3.3124,-3.3124,-3.3124,-3.3111,-3.3111,-3.3061,-3.3074,-3.3011,-3.3023,-3.3061,-3.298,-3.2968,-3.3099,-3.3124,-3.3074,-3.3124,-3.3124,-3.3074,-3.2923,-3.2943,-3.2905,-3.2202,-3.1687,-3.1574,-3.1625,-3.18,-3.2077,-3.2315,-3.2571,-4.6352,-4.6601,-4.6668,-4.6483,-4.613,-4.4751,-4.3816,-4.3125,-4.1763,-4.0812,-4.0282,-3.9649,-3.9388,-3.9388,-3.9388,-3.9388,-3.9388,-3.9388,-3.9388,-3.9388,-3.9313,-3.9005,-3.8601,-3.8242,-3.7768,-3.6791,-3.6492,-3.6133,-3.5549,-3.5639,-3.5519,-3.5489,-3.5564,-3.5489,-3.5489,-3.5457,-3.5213,-3.4702,-3.4036,-3.3297,-3.239,-3.1429,-3.0658,-3.0279,-3.0037,-2.983,-2.9818,-2.9779,-2.9779,-2.9779,-2.9779,-2.9779,-2.9779,-2.9779,-2.9779,-2.9779,-2.9779,-2.9779,-2.9779,-2.9779,-2.9779,-2.9779,-2.9779,-2.9804,-2.9854,-2.9817,-2.9792,-2.9955,-3.0357,-3.0746,-3.0721,-3.1361,-3.2001,-3.224,-3.2503,-3.2792,-3.2986,-3.3086,-3.3124,-3.3124,-3.3124,-3.3124,-3.3124,-3.3124,-3.3124,-3.3124,-3.3124,-3.3124,-3.3124,-3.3124,-3.3124,-3.3124,-3.3124,-3.3124,-3.3124,-3.3124,-3.3124,-3.3124,-3.3124,-3.3124,-3.3124,-3.3124,-3.3124,-3.3124,-3.3124,-3.3099,-3.2973,-3.2692,-3.2466,-3.2303,-3.2227,-3.2252,-3.2579,-3.2905,-3.3036,-4.4935,-4.5267,-4.4841,-4.4957,-4.5142,-4.379,-4.2962,-4.2453,-4.1295,-4.0172,-3.9403,-3.9388,-3.9388,-3.9388,-3.9388,-3.9388,-3.9388,-3.9388,-3.9388,-3.9388,-3.9313,-3.911,-3.8841,-3.8571,-3.8257,-3.724,-3.6985,-3.6776,-3.6222,-3.6103,-3.6028,-3.5923,-3.5774,-3.5759,-3.5489,-3.5457,-3.5195,-3.4568,-3.3659,-3.2826,-3.1919,-3.0934,-3.0305,-3.0037,-2.9869,-2.983,-2.9779,-2.9779,-2.9779,-2.9779,-2.9779,-2.9779,-2.9779,-2.9779,-2.9779,-2.9779,-2.9779,-2.9779,-2.9779,-2.9779,-2.9867,-3.0055,-3.0093,-3.008,-3.0043,-3.0143,-3.0382,-3.0168,-3.067,-3.1085,-3.111,-3.1951,-3.2441,-3.2679,-3.278,-3.3048,-3.3061,-3.3124,-3.3124,-3.3124,-3.3124,-3.3124,-3.3124,-3.3124,-3.3124,-3.3124,-3.3124,-3.3124,-3.3124,-3.3124,-3.3124,-3.3124,-3.3124,-3.3124,-3.3124,-3.3124,-3.3124,-3.3124,-3.3124,-3.3124,-3.3124,-3.3124,-3.3124,-3.3124,-3.3124,-3.3124,-3.3036,-3.2885,-3.2948,-3.3036,-3.2842,-3.2641,-3.2767,-3.3061,-3.3074,-4.2761,-4.3545,-4.3078,-4.3718,-4.4917,-4.4426,-4.3883,-4.3277,-4.1918,-4.0576,-3.9499,-3.9388,-3.9388,-3.9388,-3.9388,-3.9388,-3.9388,-3.9388,-3.9388,-3.9388,-3.9388,-3.9343,-3.9298,-3.9119,-3.8766,-3.8452,-3.8063,-3.7659,-3.718,-3.703,-3.6836,-3.6432,-3.6148,-3.5953,-3.5534,-3.5504,-3.5129,-3.4332,-3.3199,-3.2326,-3.1479,-3.047,-2.996,-2.9856,-2.983,-2.9779,-2.9779,-2.9779,-2.9779,-2.9779,-2.9779,-2.9779,-2.9779,-2.9779,-2.9779,-2.9779,-2.9779,-2.9779,-2.9779,-2.9792,-3.0068,-3.0394,-3.0407,-3.0444,-3.0633,-3.0884,-3.0947,-3.0545,-3.1336,-3.1926,-3.229,-3.2604,-3.283,-3.2968,-3.3099,-3.3124,-3.3124,-3.3124,-3.3124,-3.3124,-3.3124,-3.3124,-3.3124,-3.3124,-3.3124,-3.3124,-3.3124,-3.3124,-3.3124,-3.3124,-3.3124,-3.3124,-3.3124,-3.3124,-3.3124,-3.3124,-3.3124,-3.3124,-3.3124,-3.3124,-3.3124,-3.3124,-3.3124,-3.3124,-3.3124,-3.3124,-3.3124,-3.3099,-3.3124,-3.3124,-3.3124,-3.3023,-3.3111,-3.3124,-3.3124,-4.1941,-4.2818,-4.2509,-4.3072,-4.4044,-4.3786,-4.3512,-4.3223,-4.1991,-4.0651,-3.9619,-3.9388,-3.9388,-3.9388,-3.9388,-3.9388,-3.9388,-3.9388,-3.9388,-3.9388,-3.9388,-3.9388,-3.9388,-3.9313,-3.9065,-3.8571,-3.8382,-3.8108,-3.7345,-3.7554,-3.7105,-3.6596,-3.6264,-3.5663,-3.5338,-3.5148,-3.4687,-3.3796,-3.2791,-3.1905,-3.1147,-3.033,-2.9817,-2.9817,-2.9817,-2.9779,-2.9779,-2.9779,-2.9779,-2.9779,-2.9779,-2.9779,-2.9779,-2.9779,-2.9779,-2.9779,-2.9779,-2.9779,-2.9905,-3.0068,-3.0394,-3.0583,-3.0708,-3.0733,-3.0683,-3.111,-3.1022,-3.1022,-3.1725,-3.2164,-3.229,-3.2729,-3.298,-3.3074,-3.3124,-3.3124,-3.3124,-3.3124,-3.3124,-3.3124,-3.3124,-3.3124,-3.3124,-3.3124,-3.3124,-3.3187,-3.3199,-3.3149,-3.3136,-3.3124,-3.3124,-3.3124,-3.3124,-3.3124,-3.3124,-3.3124,-3.3124,-3.3124,-3.3124,-3.3124,-3.3124,-3.3124,-3.3124,-3.3124,-3.3124,-3.3124,-3.3124,-3.3124,-3.3124,-3.3124,-3.3124,-3.3124,-3.3124,-3.3124,-3.3124,-4.0979,-4.1721,-4.1626,-4.2092,-4.2866,-4.3174,-4.308,-4.2581,-4.1713,-4.0651,-3.9582,-3.9388,-3.9388,-3.9388,-3.9388,-3.9388,-3.9388,-3.9388,-3.9388,-3.9388,-3.9388,-3.9388,-3.9388,-3.9373,-3.9215,-3.8811,-3.8691,-3.8497,-3.8257,-3.8153,-3.7789,-3.7118,-3.6291,-3.5868,-3.5399,-3.4879,-3.4283,-3.3515,-3.2723,-3.1971,-3.133,-3.0726,-3.0118,-3.0043,-2.9942,-2.9779,-2.9779,-2.9779,-2.9779,-2.9779,-2.9779,-2.9779,-2.9779,-2.9779,-2.9779,-2.9779,-2.9779,-2.9779,-2.9892,-3.0294,-3.0608,-3.0909,-3.1022,-3.116,-3.1273,-3.18,-3.1675,-3.1712,-3.2077,-3.2328,-3.2579,-3.3061,-3.3086,-3.3124,-3.3124,-3.3124,-3.3124,-3.3124,-3.3124,-3.3124,-3.3124,-3.3124,-3.3124,-3.3124,-3.3124,-3.3212,-3.3244,-3.3206,-3.3194,-3.3219,-3.3275,-3.3287,-3.3237,-3.3224,-3.3187,-3.3124,-3.3124,-3.3124,-3.3199,-3.3275,-3.3124,-3.3124,-3.3124,-3.3124,-3.3124,-3.3124,-3.3124,-3.3124,-3.3124,-3.3124,-3.3124,-3.3124,-3.3124,-3.3124,-3.3124,-3.9798,-4.0367,-4.0427,-4.0898,-4.1579,-4.2671,-4.2491,-4.1414,-4.1339,-4.0591,-3.9439,-3.9388,-3.9388,-3.9388,-3.9388,-3.9388,-3.9388,-3.9388,-3.9388,-3.9388,-3.9388,-3.9388,-3.9388,-3.9373,-3.9284,-3.9328,-3.9269,-3.914,-3.9305,-3.8871,-3.845,-3.786,-3.6836,-3.6102,-3.5288,-3.4455,-3.3881,-3.3344,-3.2673,-3.2109,-3.1705,-3.1128,-3.0635,-3.0419,-3.0181,-2.993,-2.9842,-2.9779,-2.9779,-2.9779,-2.9779,-2.9779,-2.9779,-2.9779,-2.9779,-2.9829,-2.9867,-2.9917,-3.0131,-3.062,-3.0984,-3.1424,-3.1888,-3.2114,-3.2227,-3.2378,-3.2315,-3.2265,-3.2503,-3.278,-3.3111,-3.3111,-3.3111,-3.3124,-3.3124,-3.3124,-3.3124,-3.3124,-3.3124,-3.3124,-3.3124,-3.3124,-3.3124,-3.3124,-3.3174,-3.3382,-3.352,-3.3633,-3.3608,-3.3558,-3.3571,-3.3545,-3.347,-3.3363,-3.335,-3.347,-3.3545,-3.3696,-3.3533,-3.3533,-3.3375,-3.3212,-3.3224,-3.3237,-3.3149,-3.3124,-3.3124,-3.3124,-3.3124,-3.3124,-3.3124,-3.3124,-3.3124,-3.3124,-3.3124,-3.9798,-4.0427,-4.0891,-4.122,-4.1467,-4.1788,-4.1444,-4.0726,-4.0681,-4.0172,-3.9388,-3.9388,-3.9388,-3.9388,-3.9388,-3.9388,-3.9388,-3.9388,-3.9388,-3.9388,-3.9388,-3.9388,-3.9388,-3.9388,-3.9388,-3.9388,-3.9388,-3.9373,-3.9239,-3.905,-3.8522,-3.7792,-3.6844,-3.5904,-3.4892,-3.38,-3.3528,-3.3173,-3.2581,-3.2264,-3.1979,-3.1448,-3.1075,-3.0746,-3.0482,-3.0206,-3.0005,-2.988,-2.9867,-2.9854,-2.9817,-2.9804,-2.9779,-2.9804,-2.988,-3.0344,-3.0432,-3.0532,-3.0922,-3.1436,-3.1775,-3.1951,-3.2453,-3.2453,-3.2528,-3.2641,-3.2805,-3.2729,-3.2767,-3.3036,-3.3124,-3.3124,-3.3124,-3.3124,-3.3124,-3.3124,-3.3124,-3.3124,-3.3124,-3.3124,-3.3124,-3.3124,-3.3124,-3.3124,-3.3212,-3.3533,-3.3809,-3.3985,-3.4073,-3.4022,-3.3972,-3.3947,-3.3972,-3.3884,-3.4085,-3.4274,-3.4286,-3.4299,-3.4098,-3.3909,-3.3771,-3.3621,-3.3445,-3.3269,-3.3174,-3.3124,-3.3124,-3.3124,-3.3124,-3.3124,-3.3124,-3.3124,-3.3124,-3.3124,-3.3124,-3.9649,-4.0083,-4.0726,-4.0995,-4.0935,-4.0726,-4.0352,-4.0083,-4.0292,-4.0023,-3.9433,-3.9388,-3.9388,-3.9388,-3.9388,-3.9388,-3.9388,-3.9388,-3.9388,-3.9388,-3.9388,-3.9388,-3.9388,-3.9388,-3.9388,-3.9388,-3.9388,-3.9388,-3.9218,-3.8843,-3.833,-3.7695,-3.6599,-3.5727,-3.4817,-3.4033,-3.346,-3.3112,-3.2682,-3.2342,-3.2124,-3.1896,-3.1512,-3.1223,-3.0947,-3.0532,-3.0394,-3.0269,-3.0206,-3.0357,-3.0419,-3.0419,-3.0444,-3.047,-3.0306,-3.0708,-3.0834,-3.0997,-3.1323,-3.1825,-3.2102,-3.2353,-3.2742,-3.283,-3.2817,-3.2867,-3.2842,-3.278,-3.2986,-3.3124,-3.3124,-3.3124,-3.3124,-3.3124,-3.3124,-3.3124,-3.3124,-3.3124,-3.3124,-3.3124,-3.3124,-3.3124,-3.3124,-3.3124,-3.3312,-3.3696,-3.4161,-3.455,-3.46,-3.4575,-3.4487,-3.4424,-3.45,-3.4505,-3.4731,-3.4876,-3.4763,-3.4663,-3.4525,-3.4349,-3.4236,-3.396,-3.3671,-3.3382,-3.3136,-3.3149,-3.3212,-3.3136,-3.3124,-3.3162,-3.3187,-3.3149,-3.3149,-3.3124,-3.3124,-3.9388,-3.9499,-4.0083,-4.0382,-4.0322,-3.9798,-3.9448,-3.9448,-4.0038,-3.9993,-3.9448,-3.9388,-3.9388,-3.9388,-3.9388,-3.9388,-3.9388,-3.9388,-3.9388,-3.9388,-3.9388,-3.9388,-3.9388,-3.9388,-3.9388,-3.9388,-3.9388,-3.9352,-3.9177,-3.8737,-3.8074,-3.7529,-3.6601,-3.5637,-3.4713,-3.4014,-3.3476,-3.3161,-3.284,-3.2512,-3.2751,-3.2554,-3.2185,-3.2001,-3.1461,-3.0909,-3.1085,-3.106,-3.0896,-3.1198,-3.1336,-3.1273,-3.1248,-3.1223,-3.1009,-3.1097,-3.1311,-3.1562,-3.1813,-3.2215,-3.2315,-3.2516,-3.2754,-3.2955,-3.3048,-3.3036,-3.2973,-3.296,-3.3099,-3.3124,-3.3124,-3.3124,-3.3124,-3.3124,-3.3124,-3.3124,-3.3124,-3.3124,-3.3124,-3.3124,-3.3124,-3.3124,-3.3124,-3.3149,-3.3458,-3.3897,-3.4336,-3.4826,-3.5215,-3.519,-3.5102,-3.5014,-3.5152,-3.5253,-3.5215,-3.5265,-3.5102,-3.4989,-3.4977,-3.4831,-3.4801,-3.4387,-3.3872,-3.352,-3.3237,-3.3244,-3.3269,-3.3382,-3.3458,-3.335,-3.3338,-3.3224,-3.3187,-3.3187,-3.3162,-3.9388,-3.9403,-3.9589,-3.9918,-4.0292,-3.9694,-3.9388,-3.9403,-3.9538,-3.9553,-3.9439,-3.9388,-3.9388,-3.9388,-3.9388,-3.9388,-3.9388,-3.9388,-3.9388,-3.9388,-3.9388,-3.9388,-3.9388,-3.9388,-3.9388,-3.9388,-3.9352,-3.9228,-3.8907,-3.8345,-3.7653,-3.6805,-3.5896,-3.4896,-3.4343,-3.3696,-3.3313,-3.3172,-3.3041,-3.283,-3.2955,-3.293,-3.2704,-3.2365,-3.1825,-3.1574,-3.1587,-3.1361,-3.1273,-3.1373,-3.1386,-3.1373,-3.1373,-3.1399,-3.1562,-3.1788,-3.1901,-3.2177,-3.2441,-3.2641,-3.2729,-3.2805,-3.298,-3.3074,-3.3124,-3.3124,-3.3124,-3.3124,-3.3124,-3.3124,-3.3124,-3.3124,-3.3162,-3.3162,-3.3174,-3.3174,-3.3162,-3.3136,-3.3136,-3.3162,-3.3162,-3.3187,-3.3199,-3.3357,-3.3684,-3.406,-3.4449,-3.4964,-3.5705,-3.5931,-3.5843,-3.5805,-3.5943,-3.604,-3.5843,-3.5717,-3.5604,-3.5692,-3.5768,-3.5604,-3.5307,-3.4688,-3.4022,-3.3608,-3.3332,-3.3432,-3.3696,-3.4135,-3.4123,-3.3734,-3.352,-3.342,-3.3345,-3.3345,-3.3269,-3.9388,-3.9388,-3.9388,-3.9798,-4.0217,-3.9694,-3.9388,-3.9388,-3.9388,-3.9388,-3.9388,-3.9388,-3.9388,-3.9388,-3.9388,-3.9388,-3.9388,-3.9388,-3.9388,-3.9388,-3.9388,-3.9388,-3.9388,-3.9388,-3.9388,-3.9388,-3.9352,-3.9156,-3.8634,-3.7881,-3.7102,-3.6175,-3.506,-3.4217,-3.3781,-3.3326,-3.3124,-3.3124,-3.3124,-3.3124,-3.3124,-3.3061,-3.2968,-3.2629,-3.2328,-3.2152,-3.2177,-3.1989,-3.1938,-3.2051,-3.2202,-3.1976,-3.2001,-3.2089,-3.2152,-3.224,-3.2416,-3.2742,-3.3023,-3.3124,-3.3124,-3.3124,-3.3124,-3.3124,-3.3124,-3.3124,-3.3124,-3.3124,-3.3124,-3.3124,-3.3124,-3.3124,-3.3388,-3.3445,-3.3508,-3.3545,-3.3395,-3.3257,-3.3382,-3.3545,-3.3608,-3.3734,-3.3809,-3.4035,-3.4374,-3.4718,-3.5031,-3.5278,-3.5968,-3.6417,-3.6417,-3.6417,-3.6417,-3.6417,-3.6229,-3.6191,-3.6204,-3.6342,-3.6417,-3.5977,-3.5429,-3.4776,-3.4173,-3.3796,-3.3608,-3.3734,-3.406,-3.4562,-3.4374,-3.3897,-3.3759,-3.3696,-3.3633,-3.3608,-3.3671,-3.9388,-3.9388,-3.9388,-3.9738,-4.0157,-3.9664,-3.9388,-3.9388,-3.9388,-3.9388,-3.9388,-3.9388,-3.9388,-3.9388,-3.9388,-3.9388,-3.9388,-3.9388,-3.9388,-3.9388,-3.9388,-3.9388,-3.9388,-3.9388,-3.9388,-3.9388,-3.9388,-3.8973,-3.8441,-3.7525,-3.6529,-3.5534,-3.462,-3.3738,-3.3441,-3.324,-3.3124,-3.3124,-3.3124,-3.3124,-3.3124,-3.3124,-3.3043,-3.2867,-3.2679,-3.2629,-3.2742,-3.2767,-3.2679,-3.2754,-3.288,-3.2654,-3.2554,-3.2629,-3.2579,-3.2629,-3.2754,-3.2998,-3.3124,-3.3124,-3.3124,-3.3124,-3.3124,-3.3124,-3.3124,-3.3124,-3.3124,-3.3124,-3.3124,-3.3149,-3.3149,-3.3312,-3.3545,-3.3809,-3.3884,-3.401,-3.3796,-3.3596,-3.3771,-3.3985,-3.411,-3.4216,-3.4437,-3.4663,-3.4919,-3.5332,-3.5633,-3.5931,-3.6157,-3.6342,-3.6417,-3.6417,-3.6417,-3.6417,-3.6417,-3.6417,-3.6417,-3.6417,-3.6367,-3.599,-3.56,-3.5127,-3.4613,-3.401,-3.3922,-3.4261,-3.4525,-3.4939,-3.4587,-3.4274,-3.4361,-3.4387,-3.406,-3.4073,-3.4198,-3.9388,-3.9388,-3.9388,-3.9499,-3.9553,-3.9469,-3.9388,-3.9388,-3.9388,-3.9388,-3.9388,-3.9388,-3.9388,-3.9388,-3.9388,-3.9388,-3.9388,-3.9388,-3.9388,-3.9388,-3.9388,-3.9388,-3.9388,-3.9388,-3.9388,-3.9388,-3.9265,-3.8922,-3.8075,-3.6958,-3.5961,-3.5101,-3.3882,-3.3326,-3.324,-3.3124,-3.3124,-3.3124,-3.3124,-3.3124,-3.3124,-3.3124,-3.3124,-3.3048,-3.3023,-3.3023,-3.3048,-3.2968,-3.3023,-3.3086,-3.3124,-3.2968,-3.2943,-3.2968,-3.2905,-3.288,-3.3048,-3.3074,-3.3124,-3.3124,-3.3124,-3.3124,-3.3124,-3.3124,-3.3124,-3.3124,-3.3124,-3.3093,-3.3106,-3.3169,-3.3244,-3.3545,-3.3834,-3.411,-3.4274,-3.4462,-3.4474,-3.4374,-3.4412,-3.4512,-3.4542,-3.4655,-3.4801,-3.4989,-3.5094,-3.542,-3.5608,-3.5918,-3.6292,-3.6367,-3.6417,-3.6417,-3.6417,-3.6417,-3.6417,-3.6417,-3.6417,-3.6417,-3.6355,-3.6103,-3.583,-3.568,-3.5152,-3.4449,-3.465,-3.5056,-3.5282,-3.5328,-3.5341,-3.5152,-3.5194,-3.5144,-3.4693,-3.4562,-3.4693]},{"header":{"parameterUnit":"m.s-1","parameterCategory":1,"la1":31.0,"la2":29.5877,"lo1":-88.7671,"lo2":-86.6584,"dy":0.0162,"dx":0.0185,"nx":115,"ny":88,"refTime":"2026-05-20T12:00:00:Z","depth":0,"parameterNumber":3,"parameterNumberName":"V-component_of_WINDS"},"data":[0.0,0.0,0.0,0.0,0.0,0.0,0.0,0.0,0.0,0.0,0.0,0.0,0.0,0.0,0.0,0.0,0.0,0.0,0.0,0.0,0.0,0.0,0.0,0.0,0.0,0.0,0.0,0.0,0.0,0.0,0.0,0.0,0.0,0.0,0.0,0.0,0.0,0.0,0.0,0.0,0.0,0.0,0.0,0.0,0.0,0.0,0.0,0.0,0.0,0.0,0.0,0.0,0.0,0.0,0.0,0.0,0.0,0.0,0.0,0.0,0.0,0.0,0.0,0.0,0.0,0.0,0.0,0.0,0.0,0.0,0.0,0.0,0.0,0.0,0.0,0.0,0.0,0.0,0.0,0.0,0.0,0.0,0.0,0.0,0.0,0.0,0.0,0.0,0.0,0.0,0.0,0.0,0.0,0.0,0.0,0.0,0.0,0.0,0.0,0.0,0.0,0.0,0.0,0.0,0.0,0.0,0.0,0.0,0.0,0.0,0.0,0.0,0.0,0.0,0.0,0.0,0.0,0.0,0.0,0.0,0.0,0.0,0.0,0.0,0.0,0.0,0.0,0.0,0.0,0.0,0.0,0.0,0.0,0.0,0.0,0.0,0.0,0.0,0.0,0.0,0.0,0.0,0.0,0.0,0.0,0.0,0.0,0.0,0.0,0.0,0.0,0.0,0.0,0.0,0.0,0.0,0.0,0.0,0.0,0.0,0.0,0.0,0.0,0.0,0.0,0.0,0.0,0.0,0.0,0.0,0.0,0.0,0.0,0.0,0.0,0.0,0.0,0.0,0.0,0.0,0.0,0.0,0.0,0.0,0.0,0.0,0.0,0.0,0.0,0.0,0.0,0.0,0.0,0.0,0.0,0.0,0.0,0.0,0.0,0.0,0.0,0.0,0.0,0.0,0.0,0.0,0.0,0.0,0.0,0.0,0.0,0.0,0.0,0.0,0.0,0.0,0.0,0.0,0.0,0.0,0.0,0.0,0.0,0.0,0.0,0.0,0.0,0.0,0.0,0.0,0.0,0.0,0.0,0.0,0.0,0.0,0.0,0.0,0.0,0.0,0.0,0.0,0.0,0.0,0.0,0.0,0.0,0.0,0.0,0.0,0.0,0.0,0.0,0.0,0.0,0.0,0.0,0.0,0.0,0.0,0.0,0.0,0.0,0.0,0.0,0.0,0.0,0.0,0.0,0.0,0.0,0.0,0.0,0.0,0.0,0.0,0.0,0.0,0.0,0.0,0.0,0.0,0.0,0.0,0.0,0.0,0.0,0.0,0.0,0.0,0.0,0.0,0.0,0.0,0.0,0.0,0.0,0.0,0.0,0.0,0.0,0.0,0.0,0.0,0.0,0.0,0.0,0.0,0.0,0.0,0.0,0.0,0.0,0.0,0.0,0.0,0.0,0.0,0.0,0.0,0.0,0.0,0.0,0.0,0.0,0.0,0.0,0.0,0.0,0.0,0.0,0.0,0.0,0.0,0.0,0.0,0.0,0.0,0.0,0.0,0.0,0.0,0.0,0.0,0.0,0.0,0.0,0.0,0.0,0.0,0.0,0.0,0.0,0.0,0.0,0.0,0.0,0.0,0.0,0.0,0.0,0.0,0.0,0.0,0.0,0.0,0.0,0.0,0.0,0.0,0.0,0.0,0.0,0.0,0.0,0.0,0.0,0.0,0.0,0.0,0.0,0.0,0.0,0.0,0.0,0.0,0.0,0.0,0.0,0.0,0.0,0.0,0.0,0.0,0.0,0.0,0.0,0.0,0.0,0.0,0.0,0.0,0.0,0.0,0.0,0.0,0.0,0.0,0.0,0.0,0.0,0.0,0.0,0.0,0.0,0.0,0.0,0.0,0.0,0.0,0.0,0.0,0.0,0.0,0.0,0.0,0.0,0.0,0.0,0.0,0.0,0.0,0.0,0.0,0.0,0.0,0.0,0.0,0.0,0.0,0.0,0.0,0.0,0.0,0.0,0.0,0.0,0.0,0.0,0.0,0.0,0.0,0.0,0.0,0.0,0.0,0.0,0.0,0.0,0.0,0.0,0.0,0.0,0.0,0.0,0.0,0.0,0.0,0.0,0.0,0.0,0.0,0.0,0.0,0.0,0.0,0.0,0.0,0.0,0.0,0.0,0.0,0.0,0.0,0.0,0.0,0.0,0.0,0.0,0.0,0.0,0.0,0.0,0.0,0.0,0.0,0.0,0.0,0.0,0.0,0.0,0.0,0.0,0.0,0.0,0.0,0.0,0.0,0.0,0.0,0.0,0.0,0.0,0.0,0.0,0.0,0.0,0.0,0.0,0.0,0.0,0.0,0.0,0.0,0.0,0.0,0.0,0.0,0.0,0.0,0.0,0.0,0.0,0.0,0.0,0.0,0.0,0.0,0.0,0.0,0.0,0.0,0.0,0.0,0.0,0.0,0.0,0.0,0.0,0.0,0.0,0.0,0.0,0.0,0.0,0.0,0.0,0.0,0.0,0.0,0.0,0.0,0.0,0.0,0.0,0.0,0.0,0.0,0.0,0.0,0.0,0.0,0.0,0.0,0.0,0.0,0.0,0.0,0.0,0.0,0.0,0.0,0.0,0.0,0.0,0.0,0.0,0.0,0.0,0.0,0.0,0.0,0.0,0.0,0.0,0.0,0.0,0.0,0.0,0.0,0.0,0.0,0.0,0.0,0.0,0.0,0.0,0.0,0.0,0.0,0.0,0.0,0.0,0.0,0.0,0.0,0.0,0.0,0.0,0.0,0.0,0.0,0.0,0.0,0.0,0.0,0.0,0.0,0.0,0.0,0.0,0.0,0.0,0.0,0.0,0.0,0.0,0.0,0.0,0.0,0.0,0.0,0.0,0.0,0.0,0.0,0.0,0.0,0.0,0.0,0.0,0.0,0.0,0.0,0.0,0.0,0.0,0.0,0.0,0.0,0.0,0.0,0.0,0.0,0.0,0.0,0.0,0.0,0.0,0.0,0.0,0.0,0.0,0.0,0.0,0.0,0.0,0.0,0.0,0.0,0.0,0.0,0.0,0.0,0.0,0.0,0.0,0.0,0.0,0.0,0.0,0.0,0.0,0.0,0.0,0.0,0.0,0.0,0.0,0.0,0.0,0.0,0.0,0.0,0.0,0.0,0.0,0.0,0.0,0.0,0.0,0.0,0.0,0.0,0.0,0.0,0.0,0.0,0.0,0.0,0.0,0.0,0.0,0.0,0.0,0.0,0.0,0.0,0.0,0.0,0.0,0.0,0.0,0.0,0.0,0.0,0.0,0.0,0.0,0.0,0.0,0.0,0.0,0.0,0.0,0.0,0.0,0.0,0.0,0.0,0.0,0.0,0.0,0.0,0.0,0.0,0.0,0.0,0.0,0.0,0.0,0.0,0.0,0.0,0.0,0.0,0.0,0.0,0.0,0.0,0.0,0.0,0.0,0.0,0.0,0.0,0.0,0.0,0.0,0.0,0.0,0.0,0.0,0.0,0.0,0.0,0.0,0.0,0.0,0.0,0.0,0.0,0.0,0.0,0.0,0.0,0.0,0.0,0.0,0.0,0.0,0.0,0.0,0.0,0.0,0.0,0.0,0.0,0.0,0.0,0.0,0.0,0.0,0.0,0.0,0.0,0.0,0.0,0.0,0.0,0.0,0.0,0.0,0.0,0.0,0.0,0.0,0.0,0.0,0.0,0.0,0.0,0.0,0.0,0.0,0.0,0.0,0.0,0.0,0.0,0.0,0.0,0.0,0.0,0.0,0.0,0.0,0.0,0.0,0.0,0.0,0.0,0.0,0.0,0.0,0.0,0.0,0.0,0.0,0.0,0.0,0.0,0.0,0.0,0.0,0.0,0.0,0.0,0.0,0.0,0.0,0.0,0.0,0.0,0.0,0.0,0.0,0.0,0.0,0.0,0.0,0.0,0.0,0.0,0.0,0.0,0.0,0.0,0.0,0.0,0.0,0.0,0.0,0.0,0.0,0.0,0.0,0.0,0.0,0.0,0.0,0.0,0.0,0.0,0.0,0.0,0.0,0.0,0.0,0.0,0.0,0.0,0.0,0.0,0.0,0.0,0.0,0.0,0.0,0.0,0.0,0.0,0.0,0.0,0.0,0.0,0.0,0.0,0.0,0.0,0.0,0.0,0.0,0.0,0.0,0.0,0.0,0.0,0.0,0.0,0.0,0.0,0.0,0.0,0.0,0.0,0.0,0.0,0.0,0.0,0.0,0.0,0.0,0.0,0.0,0.0,0.0,0.0,0.0,0.0,0.0,0.0,0.0,0.0,0.0,0.0,1.2995,0.0,0.0,0.0,0.0,0.0,0.0,0.0,0.0,0.0,0.0,0.0,0.0,0.0,0.0,0.0,0.0,0.0,0.0,0.0,0.0,0.0,0.0,0.0,0.0,0.0,0.0,0.0,0.0,0.0,0.0,0.0,0.0,0.0,0.0,0.0,0.0,0.0,0.0,0.0,0.0,0.0,0.0,0.0,0.0,0.0,0.0,0.0,0.0,0.0,0.0,0.0,0.0,0.0,0.0,0.0,0.0,0.0,0.0,0.0,0.0,0.0,0.0,0.0,0.0,0.0,0.0,0.0,0.0,0.0,0.0,0.0,0.0,0.0,0.0,0.0,0.0,0.0,0.0,0.0,0.0,0.0,0.0,0.0,0.0,0.0,0.0,0.0,0.0,0.0,0.0,0.0,0.0,0.0,0.0,0.0,0.0,0.0,0.0,0.0,0.0,0.0,0.0,0.0,0.0,0.0,0.0,0.0,0.0,0.0,0.0,1.2179,1.2322,1.2504,1.2715,1.2986,0.0,0.0,0.0,0.0,0.0,0.0,0.0,0.0,0.0,0.0,0.0,0.0,0.0,0.0,0.0,0.0,0.0,0.0,0.0,0.0,0.0,0.0,0.0,0.0,0.0,0.0,0.0,0.0,0.0,0.0,0.0,0.0,0.0,0.0,0.0,0.0,0.0,0.0,0.0,0.0,0.0,0.0,0.0,0.0,0.0,0.0,0.0,0.0,0.0,0.0,0.0,0.0,0.0,0.0,0.0,0.0,0.0,0.0,0.0,0.0,0.0,0.0,0.0,0.0,0.0,0.0,0.0,0.0,0.0,0.0,0.0,0.0,0.0,0.0,0.0,0.0,0.0,0.0,0.0,0.0,0.0,0.0,0.0,0.0,0.0,0.0,0.0,0.0,0.0,0.0,0.0,0.0,0.0,0.0,0.0,0.0,0.0,0.0,0.0,0.0,0.0,0.0,0.0,0.0,0.0,0.0,0.0,0.0,0.0,0.0,0.0,0.0,1.2738,1.2965,1.3156,0.0,0.0,0.0,0.0,0.0,0.0,0.0,0.0,0.0,0.0,0.0,0.0,0.0,0.0,0.0,0.0,0.0,0.0,0.0,0.0,0.0,0.0,0.0,0.0,0.0,0.0,0.0,0.0,0.0,0.0,0.0,0.0,0.0,0.0,0.0,0.0,0.0,0.0,0.0,0.0,0.0,0.0,0.0,0.0,0.0,0.0,0.0,0.0,0.0,0.0,0.0,0.0,0.0,0.0,0.0,0.0,0.0,0.0,0.0,0.0,0.0,0.0,0.0,0.0,0.0,0.0,0.0,0.0,0.0,0.0,0.0,0.0,0.0,0.0,0.0,0.0,0.0,0.0,0.0,0.0,0.0,0.0,0.0,0.0,0.0,0.0,0.0,0.0,0.0,0.0,0.0,0.0,0.0,0.0,0.0,0.0,0.0,0.0,0.0,0.0,0.0,0.0,0.0,0.0,0.0,0.0,0.0,0.0,0.0,0.0,1.2875,1.3019,1.3748,0.0,1.3605,0.0,0.0,0.0,0.0,0.0,0.0,0.0,0.0,0.0,0.0,0.0,0.0,0.0,0.0,0.0,0.0,0.0,0.0,0.0,0.0,0.0,0.0,0.0,0.0,0.0,0.0,0.0,0.0,0.0,0.0,0.0,0.0,0.0,0.0,0.0,0.0,0.0,0.0,0.0,0.0,0.0,0.0,0.0,0.0,0.0,0.0,0.0,0.0,0.0,0.0,0.0,0.0,0.0,0.0,0.0,0.0,0.0,0.0,0.0,0.0,0.0,0.0,0.0,0.0,0.0,0.0,0.0,0.0,0.0,0.0,0.0,0.0,0.0,0.0,0.0,0.0,0.0,0.0,0.0,0.0,0.0,0.0,0.0,0.0,0.0,0.0,0.0,0.0,0.0,0.0,0.0,0.0,0.0,0.0,0.0,0.0,0.0,0.0,0.0,0.0,0.0,0.0,0.0,0.0,0.0,0.0,0.0,0.0,0.0,0.0,1.307,1.35,1.3988,1.3965,0.0,0.0,0.0,0.0,0.0,0.0,0.0,0.0,0.0,0.0,0.0,0.0,0.0,0.0,0.0,0.0,0.0,0.0,0.0,0.0,0.0,0.0,0.0,0.0,0.0,0.0,0.0,0.0,0.0,0.0,0.0,0.0,0.0,0.0,0.0,0.0,0.0,0.0,0.0,0.0,0.0,0.0,0.0,0.0,0.0,0.0,0.0,0.0,0.0,0.0,0.0,0.0,0.0,0.0,0.0,0.0,0.0,0.0,0.0,0.0,0.0,0.0,0.0,0.0,0.0,0.0,0.0,0.0,0.0,0.0,0.0,0.0,0.0,0.0,0.0,0.0,0.0,0.0,0.0,0.0,0.0,0.0,0.0,0.0,0.0,0.0,0.0,0.0,0.0,0.0,0.0,0.0,0.0,0.0,0.0,0.0,0.0,0.0,0.0,0.0,0.0,0.0,0.0,0.0,0.0,0.0,0.0,0.0,0.0,0.0,1.2639,1.3493,1.4313,1.4212,1.3917,1.3463,0.0,0.0,0.0,0.0,0.0,0.0,0.0,0.0,0.0,0.0,0.0,0.0,0.0,0.0,0.0,0.0,0.0,0.0,0.0,0.0,0.0,0.0,0.0,0.0,0.0,0.0,0.0,0.0,0.0,0.0,0.0,0.0,0.0,0.0,0.0,0.0,0.0,0.0,0.0,0.0,0.0,0.0,0.0,0.0,0.0,0.0,0.0,0.0,0.0,0.0,0.0,0.0,0.0,0.0,0.0,0.0,0.0,0.0,0.0,0.0,0.0,0.0,0.0,0.0,0.0,0.0,0.0,0.0,0.0,0.0,0.0,0.0,0.0,0.0,0.0,0.0,0.0,0.0,0.0,0.0,0.0,0.0,0.0,0.0,0.0,0.0,0.0,0.0,0.0,0.0,0.0,0.0,0.0,0.0,0.0,0.0,0.0,0.0,0.0,0.0,0.0,0.0,0.0,0.0,0.0,0.0,0.0,0.0,0.0,1.3077,1.4418,1.5659,1.4637,1.4014,0.0,0.0,0.0,0.0,0.0,0.0,0.0,0.0,0.0,0.0,0.0,0.0,0.0,0.0,0.0,0.0,0.0,0.0,0.0,0.0,0.0,0.0,0.0,0.0,0.0,0.0,0.0,0.0,0.0,0.0,0.0,0.0,0.0,0.0,0.0,0.0,0.0,0.0,0.0,0.0,0.0,0.0,0.0,0.0,0.0,0.0,0.0,0.0,0.0,0.0,0.0,0.0,0.0,0.0,0.0,0.0,0.0,0.0,0.0,0.0,0.0,0.0,0.0,0.0,0.0,0.0,0.0,0.0,0.0,0.0,0.0,0.0,0.0,0.0,0.0,0.0,0.0,0.0,0.0,0.0,0.0,0.0,0.0,0.0,0.0,0.0,0.0,0.0,0.0,0.0,0.0,0.0,0.0,0.0,0.0,0.0,0.0,0.0,0.0,0.0,0.0,0.0,0.0,0.0,0.0,0.0,0.0,0.0,0.0,1.1861,1.3121,1.4034,1.4508,1.4113,1.3724,0.0,0.0,0.0,0.0,0.0,0.0,0.0,0.0,0.0,0.0,0.0,0.0,0.0,0.0,0.0,0.0,0.0,0.0,0.0,0.0,0.0,0.0,0.0,0.0,0.0,0.0,0.0,0.0,0.0,0.0,0.0,0.0,0.0,0.0,0.0,0.0,0.0,0.0,0.0,0.0,0.0,0.0,0.0,0.0,0.0,0.0,0.0,0.0,0.0,0.0,0.0,0.0,0.0,0.0,0.0,0.0,0.0,0.0,0.0,0.0,0.0,0.0,0.0,0.0,0.0,0.0,0.0,0.0,0.0,0.0,0.0,0.0,0.0,0.0,0.0,0.0,0.0,0.0,0.0,0.0,0.0,0.0,0.0,0.0,0.0,0.0,0.0,0.0,0.0,0.0,0.0,0.0,0.0,0.0,0.0,0.0,0.0,0.0,0.0,0.0,0.0,0.0,0.0,0.0,0.0,0.0,0.0,0.0,0.0,1.2777,0.0,1.4229,0.0,1.4034,1.365,0.0,0.0,0.0,0.0,0.0,0.0,0.0,0.0,0.0,0.0,0.0,0.0,0.0,0.0,0.0,0.0,0.0,0.0,0.0,0.0,0.0,0.0,0.0,0.0,0.0,0.0,0.0,0.0,0.0,0.0,0.0,0.0,0.0,0.0,0.0,0.0,0.0,0.0,0.0,0.0,0.0,0.0,0.0,0.0,0.0,0.0,0.0,0.0,0.0,0.0,0.0,0.0,0.0,0.0,0.0,0.0,0.0,0.0,0.0,0.0,0.0,0.0,0.0,0.0,0.0,0.0,0.0,0.0,0.0,0.0,0.0,0.0,0.0,0.0,0.0,0.0,0.0,0.0,0.0,0.0,0.0,0.0,0.0,0.0,0.0,0.0,0.0,0.0,0.0,0.0,0.0,0.0,0.0,0.0,0.0,0.0,0.0,0.0,0.0,0.0,0.0,0.0,0.0,0.0,0.0,0.0,0.0,0.0,1.3451,1.4706,1.4781,1.508,1.5724,1.4483,1.3875,0.0,0.0,0.0,0.0,0.0,0.0,0.0,0.0,0.0,0.0,0.0,0.0,0.0,0.0,0.0,0.0,0.0,0.0,0.0,0.0,0.0,0.0,0.0,0.0,0.0,0.0,0.0,0.0,0.0,0.0,0.0,0.0,0.0,0.0,0.0,0.0,0.0,0.0,0.0,0.0,0.0,0.0,0.0,0.0,0.0,0.0,0.0,0.0,0.0,0.0,0.0,0.0,0.0,0.0,0.0,0.0,0.0,0.0,0.0,0.0,0.0,0.0,0.0,0.0,0.0,0.0,0.0,0.0,0.0,0.0,0.0,0.0,0.0,0.0,0.0,0.0,0.0,0.0,0.0,0.0,0.0,0.0,0.0,0.0,0.0,0.0,0.0,0.0,0.0,0.0,0.0,0.0,0.0,0.0,0.0,0.0,0.0,0.0,0.0,0.0,0.0,0.0,0.0,0.0,0.0,0.0,0.0,0.0,0.0,1.4796,1.526,1.5365,1.511,1.4706,1.4113,0.0,0.0,0.0,0.0,0.0,0.0,0.0,0.0,0.0,0.0,0.0,0.0,0.0,0.0,0.0,0.0,0.0,0.0,0.0,0.0,0.0,0.0,0.0,0.0,0.0,0.0,0.0,0.0,0.0,0.0,0.0,0.0,0.0,0.0,0.0,0.0,0.0,0.0,0.0,0.0,0.0,0.0,0.0,0.0,0.0,0.0,0.0,0.0,0.0,0.0,0.0,0.0,0.0,0.0,0.0,0.0,0.0,0.0,0.0,0.0,0.0,0.0,0.0,0.0,0.0,0.0,0.0,0.0,0.0,0.0,0.0,0.0,0.0,0.0,0.0,0.0,0.0,0.0,0.0,0.0,0.0,0.0,0.0,0.0,0.0,0.0,0.0,0.0,0.0,0.0,0.0,0.0,0.0,0.0,0.0,0.0,0.0,0.0,0.0,0.0,0.0,0.0,0.0,0.0,0.0,0.0,0.0,0.0,0.0,1.6638,1.6787,1.6443,1.5516,1.529,1.4729,1.3746,0.0,0.0,0.0,0.0,0.0,0.0,0.0,0.0,0.0,0.0,0.0,0.0,0.0,0.0,0.0,0.0,0.0,0.0,0.0,0.0,0.0,0.0,0.0,0.0,0.0,0.0,0.0,0.0,0.0,0.0,0.0,0.0,0.0,0.0,0.0,0.0,0.0,0.0,0.0,0.0,0.0,0.0,0.0,0.0,0.0,0.0,0.0,0.0,0.0,0.0,0.0,0.0,0.0,0.0,0.0,0.0,0.0,0.0,0.0,0.0,0.0,0.0,0.0,0.0,0.0,0.0,0.0,0.0,0.0,0.0,0.0,0.0,0.0,0.0,0.0,0.0,0.0,0.0,0.0,0.0,0.0,0.0,0.0,0.0,0.0,0.0,0.0,0.0,0.0,0.0,0.0,0.0,0.0,0.0,0.0,0.0,0.0,0.0,0.0,0.0,0.0,0.0,0.0,0.0,0.0,0.0,0.0,0.0,1.966,1.9181,1.8267,1.6921,1.6293,1.5662,0.0,0.0,0.0,0.0,0.0,0.0,0.0,0.0,0.0,0.0,0.0,0.0,0.0,0.0,0.0,0.0,0.0,0.0,0.0,0.0,0.0,0.0,0.0,0.0,0.0,0.0,0.0,0.0,0.0,0.0,0.0,0.0,0.0,0.0,0.0,0.0,0.0,0.0,0.0,0.0,0.0,0.0,0.0,0.0,0.0,0.0,0.0,0.0,0.0,0.0,0.0,0.0,0.0,0.0,0.0,0.0,0.0,0.0,0.0,0.0,0.0,0.0,0.0,0.0,0.0,0.0,0.0,0.0,0.0,0.0,0.0,0.0,0.0,0.0,0.0,0.0,0.0,0.0,0.0,0.0,0.0,0.0,0.0,0.0,0.0,0.0,0.0,0.0,0.0,0.0,0.0,0.0,0.0,0.0,0.0,0.0,0.0,0.0,0.0,0.0,0.0,0.0,0.0,0.0,0.0,0.0,0.0,0.0,0.0,1.9693,2.0981,2.0786,1.8986,1.8283,1.7192,0.0,0.0,0.0,0.0,0.0,0.0,0.0,0.0,0.0,0.0,0.0,0.0,0.0,0.0,0.0,0.0,0.0,0.0,0.0,0.0,0.0,0.0,0.0,0.0,0.0,0.0,0.0,0.0,0.0,0.0,0.0,0.0,0.0,0.0,0.0,0.0,0.0,0.0,0.0,0.0,0.0,0.0,0.0,0.0,0.0,0.0,0.0,0.0,0.0,0.0,0.0,0.0,0.0,0.0,0.0,0.0,0.0,0.0,0.0,0.0,0.0,0.0,0.0,0.0,0.0,0.0,0.0,0.0,0.0,0.0,0.0,0.0,0.0,0.0,0.0,0.0,0.0,0.0,0.0,0.0,0.0,0.0,0.0,0.0,0.0,0.0,0.0,0.0,0.0,0.0,0.0,0.0,0.0,0.0,0.0,0.0,0.0,0.0,0.0,0.0,0.0,0.0,0.0,0.0,0.0,0.0,0.0,0.0,1.957,2.0546,2.2209,2.2403,2.0996,1.975,1.8179,0.0,0.0,0.0,0.0,0.0,0.0,0.0,0.0,0.0,0.0,0.0,0.0,0.0,0.0,0.0,0.0,0.0,0.0,0.0,0.0,0.0,0.0,0.0,0.0,0.0,0.0,0.0,0.0,0.0,0.0,0.0,0.0,0.0,0.0,0.0,0.0,0.0,0.0,0.0,0.0,0.0,0.0,0.0,0.0,0.0,0.0,0.0,0.0,0.0,0.0,0.0,0.0,0.0,0.0,0.0,0.0,0.0,0.0,0.0,0.0,0.0,0.0,0.0,0.0,0.0,0.0,0.0,0.0,0.0,0.0,0.0,0.0,0.0,0.0,0.0,0.0,0.0,0.0,0.0,0.0,0.0,0.0,0.0,0.0,0.0,0.0,0.0,0.0,0.0,0.0,0.0,0.0,0.0,0.0,0.0,0.0,0.0,0.0,0.0,0.0,0.0,0.0,0.0,0.0,0.0,0.0,0.0,0.0,2.0524,2.1874,2.3146,2.346,2.2778,2.0861,1.8897,0.0,0.0,0.0,0.0,0.0,0.0,0.0,0.0,0.0,0.0,0.0,0.0,0.0,0.0,0.0,0.0,0.0,0.0,0.0,0.0,0.0,0.0,0.0,0.0,0.0,0.0,0.0,0.0,0.0,0.0,0.0,0.0,0.0,0.0,0.0,0.0,0.0,0.0,0.0,0.0,0.0,0.0,0.0,0.0,0.0,0.0,0.0,0.0,0.0,0.0,0.0,0.0,0.0,0.0,0.0,0.0,0.0,0.0,0.0,0.0,0.0,0.0,0.0,0.0,0.0,0.0,0.0,0.0,0.0,0.0,0.0,0.0,0.0,0.0,0.0,0.0,0.0,0.0,0.0,0.0,0.0,0.0,0.0,0.0,0.0,0.0,0.0,0.0,0.0,0.0,0.0,0.0,0.0,0.0,0.0,0.0,0.0,0.0,0.0,0.0,0.0,0.0,0.0,0.0,0.0,0.0,0.0,0.0,2.1693,2.3099,2.4462,2.4612,2.343,2.1515,1.9776,0.0,0.0,0.0,0.0,0.0,0.0,0.0,0.0,0.0,0.0,0.0,0.0,0.0,0.0,0.0,0.0,0.0,0.0,0.0,0.0,0.0,0.0,0.0,0.0,0.0,0.0,0.0,0.0,0.0,0.0,0.0,0.0,0.0,0.0,0.0,0.0,0.0,0.0,0.0,0.0,0.0,0.0,0.0,0.0,0.0,0.0,0.0,0.0,1.3929,0.0,0.0,0.0,0.0,0.0,0.0,0.0,0.0,0.0,0.0,0.0,0.0,0.0,0.0,0.0,0.0,0.0,0.0,0.0,0.0,0.0,0.0,0.0,0.0,0.0,0.0,0.0,0.0,0.0,0.0,0.0,0.0,0.0,0.0,0.0,0.0,0.0,0.0,0.0,0.0,0.0,0.0,0.0,0.0,0.0,0.0,0.0,0.0,0.0,0.0,0.0,0.0,0.0,0.0,0.0,0.0,0.0,0.0,0.0,2.211,2.3304,2.4812,2.5098,2.4066,2.2772,2.1156,0.0,0.0,0.0,0.0,0.0,0.0,0.0,0.0,0.0,0.0,0.0,0.0,0.0,0.0,0.0,0.0,0.0,0.0,0.0,0.0,0.0,0.0,0.0,0.0,0.0,0.0,0.0,0.0,0.0,0.0,0.0,0.0,0.0,0.0,0.0,0.0,0.0,0.0,0.0,0.0,0.0,0.0,0.0,0.0,0.0,0.0,0.0,0.0,0.0,0.0,0.0,0.0,0.0,0.0,0.0,0.0,0.0,0.0,0.0,0.0,0.0,0.0,0.0,0.0,0.0,0.0,0.0,0.0,0.0,0.0,0.0,0.0,0.0,0.0,0.0,0.0,0.0,0.0,0.0,0.0,0.0,0.0,0.0,0.0,0.0,0.0,0.0,0.0,0.0,0.0,0.0,0.0,0.0,0.0,0.0,0.0,0.0,0.0,0.0,0.0,0.0,0.0,0.0,0.0,0.0,0.0,0.0,2.0309,2.2363,2.3322,2.4993,2.5493,2.4761,2.4096,2.2532,1.9944,0.0,0.0,0.0,0.0,0.0,0.0,0.0,0.0,0.0,0.0,0.0,0.0,0.0,0.0,0.0,0.0,0.0,0.0,0.0,0.0,0.0,0.0,0.0,0.0,0.0,0.0,0.0,0.0,0.0,0.0,0.0,0.0,0.0,0.0,0.0,0.0,0.0,0.0,1.2335,1.388,0.0,0.0,0.0,0.0,0.0,0.0,0.0,0.0,1.5061,0.0,0.0,0.0,0.0,0.0,0.0,0.0,0.0,0.0,0.0,0.0,0.0,0.0,0.0,0.0,0.0,0.0,0.0,0.0,0.0,0.0,0.0,0.0,0.0,0.0,0.0,0.0,0.0,0.0,0.0,0.0,0.0,0.0,0.0,0.0,0.0,0.0,0.0,0.0,0.0,0.0,0.0,0.0,0.0,0.0,0.0,0.0,0.0,0.0,0.0,0.0,0.0,0.0,0.0,0.0,0.0,1.7531,2.1009,2.3267,2.4258,2.6029,2.6421,2.5316,2.4723,2.3199,2.0628,0.0,0.0,0.0,0.0,0.0,0.0,0.0,0.0,0.0,0.0,0.0,0.0,0.0,0.0,0.0,0.0,0.0,0.0,0.0,0.0,0.0,0.0,0.0,0.0,0.0,0.0,0.0,0.0,0.0,0.0,0.0,0.0,0.0,0.0,0.0,0.0,0.0,0.0,0.0,1.5467,1.6127,0.0,0.0,0.0,0.0,0.0,0.0,0.0,0.0,1.5172,0.0,0.0,0.0,0.0,0.0,0.0,0.0,0.0,0.0,0.0,0.0,0.0,0.0,0.0,0.0,0.0,0.0,0.0,0.0,0.0,0.0,0.0,0.0,0.0,0.0,0.0,0.0,0.0,0.0,0.0,0.0,0.0,0.0,0.0,0.0,0.0,0.0,0.0,0.0,0.0,0.0,0.0,0.0,0.0,0.0,0.0,0.0,0.0,0.0,0.0,0.0,0.0,0.0,0.0,0.0,1.8144,2.1188,2.3322,2.4411,2.5995,2.6144,2.4732,2.429,2.2862,0.0,0.0,0.0,0.0,0.0,0.0,0.0,0.0,0.0,0.0,0.0,0.0,0.0,0.0,0.0,0.0,0.0,0.0,0.0,0.0,0.0,0.0,0.0,0.0,0.0,0.0,0.0,0.0,0.0,0.0,0.0,0.0,0.0,0.0,0.0,0.0,0.0,0.0,0.0,0.0,1.5914,1.6367,1.6193,0.0,0.0,0.0,0.0,0.0,0.0,1.5927,1.5917,0.0,0.0,0.0,0.0,0.0,0.0,0.0,0.0,0.0,0.0,0.0,0.0,0.0,0.0,0.0,0.0,0.0,0.0,0.0,0.0,0.0,0.0,0.0,0.0,0.0,0.0,0.0,0.0,0.0,0.0,0.0,0.0,0.0,0.0,0.0,0.0,0.0,0.0,0.0,0.0,0.0,0.0,0.0,0.0,0.0,0.0,0.0,0.0,0.0,0.0,0.0,0.0,0.0,0.0,0.0,1.8565,2.1184,2.3058,2.4177,2.5582,2.5624,2.4123,2.3718,2.2306,0.0,0.0,0.0,0.0,0.0,0.0,0.0,0.0,0.0,0.0,0.0,0.0,0.0,0.0,0.0,0.0,0.0,0.0,0.0,0.0,0.0,0.0,0.0,0.0,0.0,0.0,0.0,0.0,0.0,0.0,0.0,0.0,0.0,0.0,0.0,0.0,0.0,0.0,0.0,0.0,0.0,1.6746,1.6884,1.6891,0.0,0.0,0.0,0.0,1.6463,1.6654,0.0,0.0,0.0,0.0,0.0,0.0,0.0,0.0,0.0,0.0,0.0,0.0,0.0,0.0,0.0,0.0,0.0,0.0,0.0,0.0,0.0,0.0,0.0,0.0,0.0,0.0,0.0,0.0,0.0,0.0,0.0,0.0,0.0,0.0,0.0,0.0,0.0,0.0,0.0,0.0,0.0,0.0,0.0,0.0,0.0,0.0,0.0,0.0,0.0,0.0,0.0,0.0,0.0,0.0,0.0,0.0,1.8401,2.0953,2.2745,2.3781,2.5039,2.5272,2.4365,2.3635,2.2058,0.0,0.0,0.0,0.0,0.0,0.0,0.0,0.0,0.0,0.0,0.0,0.0,0.0,0.0,0.0,0.0,0.0,0.0,0.0,0.0,0.0,0.0,0.0,0.0,0.0,0.0,0.0,0.0,0.0,0.0,0.0,0.0,0.0,0.0,0.0,0.0,0.0,0.0,0.0,0.0,0.0,1.8114,1.8234,1.7817,1.7834,0.0,0.0,1.7912,1.9043,1.8153,0.0,0.0,0.0,0.0,0.0,0.0,0.0,0.0,0.0,0.0,0.0,0.0,0.0,0.0,0.0,0.0,0.0,0.0,0.0,0.0,0.0,0.0,0.0,0.0,0.0,0.0,0.0,0.0,0.0,0.0,0.0,0.0,0.0,0.0,0.0,0.0,0.0,0.0,0.0,0.0,0.0,0.0,0.0,0.0,0.0,0.0,0.0,0.0,0.0,0.0,0.0,0.0,0.0,0.0,0.0,1.6615,1.9169,2.1236,2.2709,2.3623,2.4433,2.4327,2.3234,2.258,2.1133,0.0,0.0,0.0,0.0,0.0,0.0,0.0,0.0,0.0,0.0,0.0,0.0,0.0,0.0,0.0,0.0,0.0,0.0,0.0,0.0,0.0,0.0,0.0,0.0,0.0,0.0,0.0,0.0,0.0,0.0,0.0,0.0,0.0,0.0,0.0,0.0,0.0,0.0,0.0,0.0,0.0,0.0,1.8577,1.9058,0.0,0.0,0.0,1.9866,1.9963,0.0,0.0,0.0,0.0,0.0,0.0,0.0,0.0,0.0,0.0,0.0,0.0,0.0,0.0,0.0,0.0,0.0,0.0,0.0,0.0,0.0,0.0,0.0,0.0,0.0,0.0,0.0,0.0,0.0,0.0,0.0,0.0,0.0,0.0,0.0,0.0,0.0,0.0,0.0,0.0,0.0,0.0,0.0,0.0,0.0,0.0,0.0,0.0,0.0,0.0,0.0,0.0,0.0,0.0,0.0,0.0,0.0,1.9773,2.1455,2.269,2.3514,2.3956,2.3611,2.25,2.2072,0.0,0.0,0.0,0.0,0.0,0.0,0.0,0.0,0.0,0.0,0.0,0.0,0.0,0.0,0.0,0.0,0.0,0.0,0.0,0.0,0.0,0.0,0.0,0.0,0.0,0.0,0.0,0.8575,0.0,0.0,0.0,0.0,0.0,0.0,0.0,0.0,0.0,0.0,0.0,0.0,0.0,0.0,1.9378,1.9295,2.0319,2.1037,0.0,0.0,2.1404,2.073,2.0751,2.0241,0.0,0.0,0.0,0.0,0.0,0.0,0.0,0.0,0.0,0.0,0.0,0.0,0.0,0.0,0.0,0.0,0.0,0.0,0.0,0.0,0.0,0.0,0.0,0.0,0.0,0.0,0.0,0.0,0.0,0.0,0.0,0.0,0.0,0.0,0.0,0.0,0.0,0.0,0.0,0.0,0.0,0.0,0.0,0.0,0.0,0.0,0.0,0.0,0.0,0.0,0.0,0.0,0.0,0.0,0.0,1.9748,2.1455,2.2686,2.3378,2.3708,2.3529,2.2884,2.2959,2.1699,0.0,0.0,0.0,0.0,0.0,0.0,0.0,0.0,0.0,0.0,0.0,0.0,0.0,0.0,0.0,0.0,0.0,0.0,0.0,0.0,0.0,0.0,0.0,0.0,0.0,0.0,0.0,0.0,0.0,0.0,0.0,0.0,0.0,0.0,0.0,0.0,0.0,0.0,0.0,0.0,0.0,2.0238,2.1011,2.1416,2.1876,0.0,0.0,2.1999,2.1817,2.1174,2.0337,1.9203,0.0,0.0,0.0,0.0,0.0,0.0,0.0,0.0,0.0,0.0,0.0,0.0,0.0,0.0,0.0,0.0,0.0,0.0,0.0,0.0,0.0,0.0,0.0,0.0,0.0,0.0,0.0,0.0,0.0,0.0,0.0,0.0,0.0,0.0,0.0,0.0,0.0,0.0,0.0,0.0,0.0,0.0,0.0,0.0,0.0,0.0,0.0,0.0,0.0,0.0,0.0,0.0,0.0,1.7365,1.9773,2.1782,2.2924,2.3198,2.3335,2.3081,2.2536,2.2627,2.1448,0.0,0.0,0.0,0.0,0.0,0.0,0.0,0.0,0.0,0.0,0.0,0.0,0.0,0.0,0.0,0.0,0.0,0.0,0.0,0.0,0.0,0.0,0.0,0.0,0.0,0.0,0.0,0.0,1.0224,1.0693,1.1346,0.0,0.0,0.0,0.0,0.0,0.0,0.0,0.0,0.0,0.0,2.0748,2.1603,2.2262,0.0,0.0,2.2983,2.2692,2.2267,2.1913,2.1045,1.9159,1.8954,0.0,0.0,0.0,0.0,0.0,0.0,0.0,0.0,0.0,0.0,0.0,0.0,0.0,0.0,0.0,0.0,0.0,0.0,0.0,0.0,0.0,0.0,0.0,0.0,0.0,0.0,0.0,0.0,0.0,0.0,0.0,0.0,0.0,0.0,0.0,0.0,0.0,0.0,0.0,0.0,0.0,0.0,0.0,0.0,0.0,0.0,0.0,0.0,0.0,0.0,0.0,0.0,1.7765,1.9798,2.1967,2.3095,2.3095,2.3095,2.2803,2.2277,2.2456,2.1386,0.0,0.0,0.0,0.0,0.0,0.0,0.0,0.0,0.0,0.0,0.0,0.0,0.0,0.0,0.0,0.0,0.0,0.0,0.0,0.0,0.0,0.0,0.0,0.0,0.0,0.0,0.0,0.0,1.1266,1.1506,1.179,0.0,0.0,0.0,0.0,0.0,0.0,0.0,0.0,0.0,0.0,2.1514,2.2162,2.2989,2.3559,2.3579,2.3563,2.3317,2.2694,2.2451,2.1652,1.9657,0.0,0.0,0.0,0.0,0.0,0.0,0.0,0.0,0.0,0.0,0.0,0.0,0.0,0.0,0.0,0.0,0.0,0.0,0.0,0.0,0.0,0.0,0.0,0.0,0.0,0.0,0.0,0.0,0.0,0.0,1.3261,0.0,0.0,0.0,0.0,0.0,0.0,0.0,0.0,0.0,0.0,0.0,0.0,0.0,0.0,0.0,0.0,0.0,0.0,0.0,0.0,0.0,0.0,1.819,1.9798,2.1979,2.3095,2.3095,2.3095,2.2799,2.2166,2.2684,2.1771,1.9245,0.0,0.0,0.0,0.0,0.0,0.0,0.0,0.0,0.0,0.0,0.0,0.0,0.0,0.0,0.0,0.0,0.0,0.0,0.0,0.0,0.0,0.0,0.0,0.0,0.0,0.0,1.357,1.3118,1.249,0.0,0.0,0.0,0.0,0.0,0.0,0.0,0.0,0.0,0.0,2.1415,2.2684,2.2782,2.3532,2.4078,2.4024,2.4042,2.384,2.3203,2.2713,2.2027,0.0,0.0,0.0,0.0,0.0,0.0,0.0,0.0,0.0,0.0,0.0,0.0,0.0,0.0,0.0,0.0,0.0,0.0,0.0,0.0,0.0,0.0,0.0,0.0,0.0,0.0,0.0,1.4811,1.5135,0.0,0.0,0.0,0.0,0.0,0.0,0.0,0.0,0.0,0.0,0.0,1.9258,1.9083,0.0,0.0,0.0,0.0,0.0,0.0,0.0,0.0,0.0,0.0,0.0,0.0,1.8179,1.9811,2.1979,2.3095,2.3095,2.3095,2.2892,2.2501,2.2572,2.145,1.9016,0.0,0.0,0.0,0.0,0.0,0.0,0.0,0.0,0.0,0.0,0.0,0.0,0.0,0.0,0.0,0.0,0.0,0.0,0.0,0.0,0.0,0.0,0.0,0.0,0.0,1.3555,0.0,0.0,0.0,0.0,0.0,0.0,0.0,0.0,0.0,0.0,0.0,2.0037,2.0902,2.1999,2.3023,2.3856,2.4221,2.4581,0.0,0.0,0.0,0.0,0.0,0.0,0.0,0.0,0.0,0.0,0.0,0.0,0.0,0.0,2.4309,2.3821,2.2936,2.2327,2.2564,0.0,0.0,0.0,0.0,0.0,0.0,0.0,0.0,0.0,0.0,0.0,0.0,0.0,0.0,1.6123,0.0,1.6335,0.0,0.0,0.0,0.0,0.0,0.0,0.0,0.0,2.1204,2.1543,2.1531,2.1343,2.1368,0.0,2.1154,2.0225,0.0,0.0,0.0,0.0,0.0,0.0,0.0,0.0,1.8668,2.0151,2.208,2.3095,2.3095,2.3095,2.2951,2.2643,2.2189,2.1021,1.9075,1.745,1.615,0.0,0.0,0.0,0.0,0.0,0.0,0.0,0.0,0.0,0.0,0.0,0.0,0.0,0.0,0.0,0.0,0.0,0.0,0.0,0.0,0.0,0.0,0.0,1.4406,0.0,0.0,0.0,0.0,0.0,0.0,0.0,0.0,0.0,1.9318,2.0322,2.138,2.2254,2.3131,2.4014,2.4814,0.0,0.0,0.0,0.0,0.0,0.0,0.0,2.2825,2.2473,2.2589,2.2799,2.2995,2.404,2.5131,2.5982,0.0,0.0,2.6877,2.5998,2.5406,2.5608,2.5101,2.4948,2.5862,2.6268,2.6793,0.0,0.0,0.0,0.0,0.0,0.0,0.0,0.0,1.7415,1.7758,0.0,1.7401,0.0,0.0,0.0,0.0,0.0,2.0251,0.0,0.0,2.4211,2.48,2.47,2.423,2.4305,2.47,2.3634,2.3095,2.2857,1.9359,0.0,0.0,0.0,0.0,0.0,0.0,1.9585,2.0729,2.228,2.3095,2.3095,2.3095,2.2891,2.2461,2.1577,2.0603,1.9522,1.9117,1.8028,1.6039,1.5829,0.0,0.0,0.0,0.0,0.0,0.0,0.0,0.0,0.0,0.0,0.0,0.0,0.0,0.0,0.0,0.0,0.0,0.0,0.0,0.0,1.5067,0.0,0.0,0.0,0.0,0.0,0.0,0.0,0.0,0.0,0.0,2.1111,2.2547,2.3625,2.3655,0.0,0.0,0.0,0.0,2.5644,2.5689,2.5659,2.5443,2.4957,2.444,2.4139,2.4223,0.0,0.0,2.5443,2.5879,2.6325,2.6724,2.7695,2.8505,2.897,2.8874,2.862,2.801,2.8298,2.8908,2.9077,2.9381,3.0142,2.005,0.0,0.0,0.0,0.0,1.8123,1.8632,1.93,1.9329,1.9567,1.9946,1.9598,0.0,0.0,0.0,0.0,0.0,0.0,2.2899,2.3791,2.487,2.5184,2.48,2.5046,2.5034,2.4775,2.4462,2.4098,2.3665,2.1804,2.0125,1.8618,0.0,0.0,0.0,0.0,2.0125,2.1255,2.2498,2.3095,2.3095,2.3095,2.2673,2.1801,2.1482,2.1019,2.0415,1.9363,1.8734,1.8551,1.6802,0.0,0.0,0.0,0.0,0.0,0.0,0.0,0.0,0.0,0.0,0.0,0.0,0.0,0.0,0.0,0.0,0.0,0.0,0.0,1.5771,1.6652,1.7101,0.0,0.0,0.0,0.0,0.0,0.0,0.0,0.0,0.0,2.3558,2.3992,2.4485,0.0,0.0,2.5779,2.6258,2.6318,2.6482,2.6971,2.6626,0.0,2.6111,2.5183,2.4641,2.5115,2.5651,2.6242,2.6877,2.7409,2.7943,2.8494,2.9176,2.9856,3.0381,2.9687,2.9144,2.9347,2.9228,2.9382,3.0347,3.0751,3.1258,2.2324,2.0576,1.9853,1.9785,2.0128,2.03,2.0661,2.1241,2.1139,2.1284,2.1539,2.1166,2.0896,2.0751,2.1033,0.0,0.0,0.0,2.4757,2.5322,2.6189,2.6427,2.6163,2.644,2.6314,2.5799,2.5573,2.5184,2.4619,2.3728,2.2769,2.1732,0.0,0.0,1.9673,2.02,2.0916,2.1807,2.2644,2.3095,2.3095,2.3095,2.2581,2.1559,2.1631,2.1338,2.0666,1.9796,1.9381,1.9512,1.7873,1.6204,0.0,0.0,0.0,0.0,0.0,0.0,0.0,0.0,0.0,0.0,0.0,0.9848,1.1102,0.0,0.0,0.0,1.5008,1.6084,1.7385,1.8102,0.0,0.0,0.0,0.0,0.0,0.0,0.0,2.2712,2.4373,2.5472,2.5764,2.6033,2.6144,2.6019,2.6228,2.6527,2.6956,0.0,2.7151,2.754,2.7255,2.6886,2.6641,2.5929,2.554,2.5914,2.6566,2.7106,2.7495,2.8014,2.8534,2.9143,2.9639,3.0172,3.0814,3.0233,2.984,3.041,3.0211,3.0313,3.141,3.1867,3.2425,2.3935,2.3838,2.2676,2.2353,2.2617,2.2607,2.2852,2.3159,2.2832,2.2818,2.3096,2.2317,2.2138,2.2473,2.3079,0.0,2.4905,2.6099,2.6889,2.7369,2.7908,2.8147,2.8109,2.8134,2.7883,2.7366,2.6826,2.6285,2.5724,2.5146,2.4883,2.4763,2.1744,2.0464,2.1031,2.1468,2.1945,2.2447,2.292,2.3145,2.3095,2.3095,2.2569,2.1531,2.1882,2.1538,2.0442,2.0238,1.9919,1.9353,1.8844,1.7779,1.6069,0.0,0.0,0.0,0.0,0.0,0.0,0.0,0.0,0.0,0.0,0.0,0.0,0.0,0.0,0.0,1.6204,0.0,1.873,1.9495,0.0,0.0,0.0,2.0531,2.1784,2.2568,2.3475,2.4709,0.0,0.0,2.7675,2.8278,2.8233,2.6991,2.7375,2.7764,2.775,2.7779,2.775,2.7839,2.7779,2.7555,2.7141,2.6931,2.6871,2.6866,2.7285,2.766,2.764,2.7915,2.8389,2.8928,2.9341,2.9722,3.03,3.0472,3.0816,3.1119,3.1219,3.1495,3.2361,3.3,3.3643,2.5226,2.5254,2.4941,2.4307,2.3496,2.3486,2.373,2.4046,2.4014,2.3838,2.3638,2.3401,2.3494,2.388,2.4767,2.5553,2.6246,2.7242,2.7783,2.7946,2.8473,2.8474,2.8134,2.8499,2.8448,2.7896,2.7356,2.7017,2.6841,2.59,2.541,2.5347,2.4217,2.3703,2.3816,2.3552,2.3464,2.3602,2.3728,2.3547,2.312,2.3095,2.2581,2.1559,2.1799,2.1367,2.0146,1.9904,1.9789,1.9729,1.8863,1.803,1.728,1.6173,0.0,0.0,0.0,0.0,0.0,0.0,0.0,0.0,0.0,1.213,1.3957,0.0,1.5619,0.0,1.8223,1.9331,2.0135,2.1291,0.0,0.0,2.2403,2.3011,2.3812,2.4956,2.5974,2.6791,2.8079,2.8963,2.9112,2.9277,2.9235,2.8933,2.9022,2.9127,2.9127,2.9127,2.9142,2.9097,2.9082,2.9067,2.8846,2.8903,2.8693,2.8203,2.8248,2.8173,2.769,2.784,2.8171,2.8574,2.8865,2.9212,2.9633,3.0265,3.0888,3.1288,3.1637,3.2326,3.3677,3.41,3.4438,2.5869,2.5693,2.5684,2.5274,2.4658,2.4658,2.4795,2.498,2.4785,2.457,2.4362,2.4482,2.4851,2.5512,2.643,2.714,2.7691,2.8487,2.885,2.8875,2.9176,2.9151,2.8863,2.9176,2.9013,2.8473,2.8172,2.7758,2.7304,2.6653,2.6214,2.6021,2.5686,2.5548,2.5511,2.477,2.4243,2.3991,2.374,2.3421,2.3108,2.2869,2.2359,2.1546,2.1488,2.0939,1.9884,1.9613,1.9653,1.9997,1.907,1.8495,1.8394,1.7261,1.6039,0.0,0.0,0.0,0.0,0.0,0.0,0.0,0.0,0.0,0.0,0.0,1.7625,1.8924,2.0258,2.1291,2.1949,2.3191,2.4006,2.4006,2.4283,2.4881,2.5824,2.6587,2.742,2.8378,2.9142,2.9711,2.9939,2.9998,3.0118,3.0402,3.0432,3.0238,2.9726,2.9621,2.9621,2.9621,2.9621,2.9621,2.9621,2.9621,2.9487,2.9116,2.9041,2.8933,2.8558,2.8669,2.89,2.9152,2.9376,2.9621,2.9935,3.0466,3.114,3.1867,3.2329,3.2923,3.3811,3.4269,3.4641,2.6133,2.5684,2.5684,2.5684,2.5684,2.5684,2.5684,2.5654,2.5322,2.5174,2.5198,2.5402,2.6097,2.7067,2.7871,2.8455,2.898,2.9532,2.9779,2.9779,2.9779,2.9779,2.9779,2.9779,2.9541,2.9013,2.8925,2.8398,2.7394,2.7318,2.7005,2.6512,2.6487,2.6487,2.6449,2.5511,2.4732,2.4104,2.3509,2.3183,2.3095,2.2598,2.2046,2.1521,2.1087,2.0411,1.9481,1.9284,1.9423,1.9881,1.9268,1.9061,1.929,1.8369,1.7274,0.0,1.55,0.0,0.0,0.0,0.0,0.0,0.0,0.0,0.0,1.8431,1.9735,2.0976,2.2218,2.3212,2.3804,2.5061,2.5869,2.5845,2.6004,2.6572,2.769,2.7914,2.8423,2.9592,2.9801,3.0043,3.0552,3.0627,3.0853,3.1301,3.1391,3.1032,3.0118,2.9909,2.9966,2.9834,2.9846,2.9998,2.9953,2.9936,2.9891,2.9771,2.9726,2.9669,2.9547,2.9642,2.9818,2.9955,3.0025,3.0227,3.0521,3.0797,3.1423,3.2317,3.2805,3.323,3.3645,3.4194,3.4563,2.6133,2.5684,2.5684,2.5684,2.5684,2.5684,2.5684,2.5684,2.5596,2.5602,2.5698,2.5999,2.6732,2.7827,2.8461,2.9059,2.9717,2.9745,2.9779,2.9779,2.9779,2.9779,2.9779,2.9779,2.9729,2.9603,2.9113,2.8586,2.7946,2.7494,2.704,2.6499,2.6487,2.6487,2.6487,0.0,0.0,0.0,2.413,2.3572,2.3108,2.2581,2.2058,2.1506,2.1008,0.0,1.8575,1.8982,1.9056,1.8635,1.9173,0.0,0.0,0.0,0.0,0.0,0.0,0.0,0.0,0.0,0.0,0.0,2.0602,2.0273,2.0001,2.1156,2.2269,2.2996,2.3789,2.45,2.5166,2.6408,2.7225,2.7255,2.8199,2.8936,2.9217,2.9624,3.0073,3.0298,3.0778,3.1167,3.1241,3.1316,3.1346,3.1466,3.1496,3.1421,3.1152,3.1062,3.1107,3.1137,3.1032,3.1107,3.1137,3.1077,3.0851,3.0522,3.0328,3.0148,2.9786,2.9666,2.9663,2.9771,2.9699,2.9783,2.9879,3.0445,3.1232,3.1748,3.2473,3.3364,3.4391,3.4795,3.5011,2.6768,0.0,2.6143,2.6055,0.0,2.5781,2.5684,2.5684,2.5684,2.5857,2.6182,2.6403,2.7104,2.8188,2.8931,2.9546,3.0122,3.0142,3.0206,3.0181,2.9917,2.9779,2.9779,2.9779,2.9779,2.9779,2.949,2.9026,2.8461,2.7971,2.7406,2.6901,2.6637,2.6487,2.6487,2.6487,2.5959,2.48,2.428,2.3715,2.312,2.2598,2.2171,2.1882,2.1119,0.0,0.0,0.0,0.0,0.0,0.0,0.0,0.0,0.0,0.0,1.904,1.904,1.9242,1.9642,1.9986,2.1036,2.2981,2.3445,2.3334,2.2691,2.3266,2.3909,2.4537,2.5211,2.5869,2.6551,2.7485,2.8244,2.8573,2.9187,2.9711,3.0013,3.0298,3.0627,3.0957,3.1301,3.1496,3.1496,3.1496,3.1496,3.1496,3.1496,3.1496,3.1496,3.1496,3.1496,3.1496,3.1496,3.1496,3.1496,3.1496,3.1421,3.1077,3.0987,3.0896,3.0612,3.0552,3.0537,3.0552,3.0537,3.0524,3.0567,3.1005,3.148,3.1839,3.2327,3.2906,3.3732,3.4226,3.4519,2.7412,2.6992,2.665,2.6455,2.6357,2.6006,2.5762,2.5684,0.0,0.0,0.0,2.676,2.7462,2.8543,2.9401,3.0031,3.0511,3.0549,3.062,3.0555,3.0043,2.9779,2.9779,2.9779,2.9779,2.9779,2.9779,2.9503,2.8888,2.8373,2.7821,2.7316,2.6763,2.6487,2.6487,2.6487,2.5996,2.4983,2.4418,2.3816,2.312,2.2569,2.2322,2.2322,2.137,2.0566,1.9974,1.9737,1.9673,1.9767,1.9708,2.0107,2.1019,2.0963,2.0848,2.0712,2.0965,2.1435,2.2153,2.2323,2.3116,2.4844,2.5585,2.563,2.4859,2.4993,2.5375,2.5914,2.6647,2.736,2.7899,2.8532,2.9146,2.9726,2.9864,3.0148,3.0612,3.0687,3.0898,3.1376,3.1481,3.1496,3.1496,3.1496,3.1496,3.1496,3.1496,3.1496,3.1496,3.1496,3.1496,3.1496,3.1496,3.1496,3.1496,3.1496,3.1496,3.1451,3.1466,3.1496,3.1496,3.1496,3.1496,3.1391,3.1496,3.1451,3.1481,3.1566,3.1841,3.2023,3.2148,3.2299,3.2559,3.3135,3.3607,2.7412,2.7012,2.6943,2.6728,2.6387,2.6328,2.6084,2.5693,2.5684,2.6024,2.6544,2.7206,2.815,2.9351,3.0059,3.0747,3.1283,3.0829,3.062,3.0595,3.0043,2.9779,2.9779,2.9779,2.9779,2.9779,2.9779,2.949,2.8888,2.8373,2.7833,2.7281,2.6776,2.6487,2.6487,2.6487,2.6172,2.5498,2.4971,2.4173,2.312,2.2569,2.2322,2.2284,2.1719,2.1144,2.0603,2.0943,2.0983,2.0596,2.1165,2.1483,2.1455,2.1814,2.2086,2.2228,2.3006,2.3716,2.4156,2.4709,2.542,2.6243,2.6941,2.6782,2.563,2.6537,2.7225,2.736,2.8393,2.9217,2.9352,2.9819,3.0208,3.0387,3.0868,3.1271,3.1316,3.1316,3.1361,3.1481,3.1496,3.1496,3.1496,3.1496,3.1496,3.1496,3.157,3.1525,3.1555,3.1496,3.1496,3.1496,3.1496,3.1496,3.1496,3.1496,3.1496,3.1496,3.1496,3.1496,3.1496,3.1496,3.1496,3.1496,3.1496,3.1496,3.1496,3.1496,3.1597,3.164,3.1682,3.171,3.1796,3.212,3.2664,2.7891,2.7685,2.7461,2.7256,2.7041,2.6592,2.6143,2.5693,2.5684,2.6024,2.6544,2.7268,2.82,2.9349,3.0388,3.122,3.1748,3.1249,3.1035,3.0972,3.0181,2.9779,2.9779,2.9779,2.9779,2.9779,2.9779,2.9654,2.934,2.8524,2.7971,2.7682,2.6927,2.6487,2.6487,2.6487,2.621,2.5611,2.536,2.4707,2.3609,2.3364,2.3088,2.2732,2.2221,2.182,2.1568,2.1506,2.1408,2.1157,2.1619,2.196,2.2102,2.2677,2.32,2.3641,2.4258,2.4964,2.5651,2.6318,2.6821,2.7136,2.7764,2.7889,2.729,2.7769,2.8278,2.8648,2.9277,2.9756,3.0043,3.0342,3.0642,3.0987,3.1331,3.1496,3.1496,3.1496,3.1496,3.1496,3.1496,3.1496,3.1496,3.1496,3.1496,3.1525,3.1765,3.2019,3.2064,3.2377,3.2288,3.169,3.1496,3.1496,3.1496,3.1496,3.1496,3.1496,3.1496,3.1496,3.1496,3.1496,3.1496,3.1496,3.1496,3.1496,3.1496,3.1496,3.1496,3.1496,3.1496,3.1496,3.1524,3.1811,3.2262,2.8301,2.8262,2.7939,2.7754,2.764,2.6748,2.6201,2.584,2.5732,2.6072,2.6726,2.7458,2.833,2.9452,3.0789,3.1645,3.2061,3.1639,3.1386,3.1286,3.0294,2.9779,2.9779,2.9779,2.9779,2.9779,2.9779,2.9779,2.9666,2.8649,2.7971,2.7682,2.6914,2.6487,2.6487,2.6487,2.6273,2.5812,2.5833,2.5272,2.423,2.4067,2.3778,2.3308,2.2757,2.2468,2.2443,2.2083,2.1857,2.1886,2.2127,2.2491,2.2959,2.3607,2.4289,2.4981,2.5389,2.6012,2.6966,2.7525,2.7899,2.8064,2.8517,2.8876,2.9011,2.8981,2.919,2.9714,2.9953,3.0253,3.0642,3.0746,3.0928,3.1436,3.1496,3.1496,3.1496,3.1496,3.1496,3.1496,3.1496,3.1496,3.1496,3.1496,3.1585,3.1795,3.2168,3.2527,3.2751,3.32,3.2961,3.2138,3.1735,3.166,3.1555,3.1496,3.1496,3.1496,3.1496,3.1496,3.1496,3.1496,3.1496,3.1496,3.1496,3.1496,3.1496,3.1496,3.1496,3.1496,3.1496,3.1496,3.1524,3.1754,3.1962,2.8301,2.8291,2.8232,2.8018,2.763,2.6758,2.6367,2.6269,2.5869,2.6255,2.7125,2.7919,2.8945,3.0159,3.1415,3.2164,3.2537,3.1776,3.1386,3.1273,3.0294,2.9779,2.9779,2.9779,2.9779,2.9779,2.9779,2.9779,2.9729,2.8649,2.7607,2.6751,2.6537,2.6487,2.6487,2.6487,2.6461,2.6411,2.6411,2.5883,2.4763,2.4255,2.3966,2.3916,2.3333,2.3032,2.2995,2.2982,2.2945,2.2987,2.3217,2.3641,2.4107,2.4718,2.5451,2.623,2.6596,2.724,2.8271,2.8457,2.8742,2.9352,2.9457,2.9699,3.0193,3.0148,3.0135,3.0447,3.0971,3.1256,3.1406,3.1376,3.1376,3.1466,3.1496,3.1496,3.1496,3.1496,3.1496,3.1496,3.1496,3.1496,3.1496,3.154,3.178,3.2228,3.2587,3.2916,3.332,3.3574,3.3395,3.2677,3.2422,3.2108,3.1675,3.1496,3.1496,3.1496,3.1496,3.1496,3.1496,3.1496,3.1496,3.1496,3.1496,3.1496,3.1496,3.1496,3.1496,3.1496,3.1496,3.1496,3.1496,3.1553,3.1568,2.8301,2.8301,2.8301,2.8057,2.765,2.7012,2.6621,2.6357,2.5879,2.6207,2.7088,2.8085,2.9292,3.0689,3.2033,3.2754,3.2864,3.1859,3.1386,3.1286,3.0294,2.9779,2.9779,2.9779,2.9779,2.9779,2.9779,2.9779,2.9591,2.8649,2.7544,2.66,2.6487,2.6487,2.6487,2.6487,2.6487,2.6487,2.6487,2.6273,2.5787,2.5234,2.4632,2.4042,2.3766,2.3434,2.3145,2.3095,2.3095,2.3095,2.342,2.3822,2.4292,2.4922,2.5868,2.7002,2.7988,2.8702,2.916,2.9175,2.9322,2.9606,2.9924,3.0253,3.0492,3.0778,3.1002,3.1107,3.1346,3.1496,3.1496,3.1496,3.1496,3.1496,3.1496,3.1496,3.1496,3.1496,3.1496,3.1496,3.1496,3.1511,3.157,3.1839,3.2168,3.2602,3.3095,3.3739,3.4084,3.4412,3.4203,3.3365,3.3095,3.2632,3.1765,3.1496,3.1496,3.1496,3.1496,3.1496,3.1496,3.1496,3.1496,3.1496,3.1496,3.1496,3.1496,3.1496,3.1496,3.1496,3.1496,3.1496,3.1496,3.1496,3.1474,2.8301,2.8301,2.8301,2.8115,2.7793,2.7246,2.6846,2.6504,2.5927,2.611,2.686,2.7955,2.9143,3.0531,3.2133,3.2952,3.2832,3.1901,3.1386,3.1273,3.0294,2.9779,2.9779,2.9779,2.9779,2.9779,2.9779,2.9704,2.9465,2.8599,2.762,2.6826,2.6575,2.6487,2.6487,2.6487,2.6487,2.6487,2.6487,2.6487,2.6424,2.6084,2.5385,2.4531,2.4293,2.4017,2.3597,2.3559,2.3572,2.3572,2.3908,2.4275,2.4725,2.541,2.6399,2.7759,2.8956,2.9654,2.9804,2.9834,2.9924,3.0118,3.0552,3.0791,3.0853,3.1227,3.1466,3.1481,3.1496,3.1496,3.1496,3.1496,3.1496,3.1496,3.1496,3.1496,3.1496,3.163,3.178,3.178,3.2034,3.2034,3.2108,3.2497,3.2871,3.3185,3.3873,3.4638,3.4756,3.5115,3.504,3.3963,3.3634,3.2931,3.1795,3.1496,3.1496,3.1496,3.1496,3.1496,3.1496,3.1496,3.1496,3.1496,3.1496,3.1496,3.1496,3.1496,3.1496,3.1496,3.1496,3.1496,3.1496,3.1496,3.1496,2.8301,2.8301,2.8301,2.8271,2.8203,2.7393,2.7012,2.6894,2.6064,2.6033,2.6592,2.7363,2.8236,2.9406,3.1472,3.255,3.2562,3.1818,3.1386,3.1286,3.0294,2.9779,2.9779,2.9779,2.9779,2.9779,2.9779,2.9528,2.9001,2.8398,2.7821,2.7231,2.6751,2.6487,2.6487,2.6487,2.6487,2.6487,2.6487,2.6487,2.6487,2.6461,2.6135,2.5511,2.5001,2.4713,2.4662,2.4687,2.4687,2.4687,2.4963,2.5373,2.5801,2.6485,2.7434,2.8622,2.9334,2.9879,3.0372,3.0462,3.0702,3.1227,3.1331,3.1421,3.1361,3.1436,3.1496,3.1496,3.1496,3.1496,3.1496,3.1496,3.1496,3.1496,3.1496,3.1496,3.1555,3.2049,3.2392,3.2512,3.2916,3.3155,3.3305,3.3425,3.3709,3.4083,3.4459,3.4711,3.522,3.5459,3.513,3.4517,3.3858,3.3066,3.1839,3.1496,3.1496,3.1496,3.1496,3.1496,3.1496,3.1496,3.1496,3.1496,3.1496,3.1496,3.1496,3.1496,3.1496,3.1496,3.1496,3.1496,3.1496,3.1496,3.1496,2.8301,2.8301,2.8301,2.8301,2.8232,2.7666,2.7275,2.6963,2.6406,2.627,2.6623,2.7268,2.8258,2.9463,3.0982,3.1925,3.2197,3.1639,3.1386,3.126,3.0294,2.9779,2.9779,2.9779,2.9779,2.9779,2.9779,2.949,2.8888,2.8373,2.7821,2.7316,2.6763,2.6487,2.6487,2.6487,2.6487,2.6487,2.6487,2.6487,2.6487,2.6487,2.6386,2.6172,2.5598,2.5159,2.48,2.48,2.48,2.48,2.5116,2.5503,2.6065,2.758,2.8827,2.9591,3.0385,3.0898,3.1092,3.1137,3.1227,3.1451,3.1496,3.1496,3.1496,3.1496,3.1496,3.1496,3.1496,3.1496,3.1496,3.1496,3.1496,3.1496,3.1511,3.1675,3.2049,3.2363,3.2662,3.3051,3.338,3.3499,3.3664,3.3858,3.4234,3.4457,3.4846,3.519,3.5385,3.5489,3.5265,3.4666,3.4279,3.3679,3.2333,3.172,3.1496,3.1496,3.1496,3.1496,3.1496,3.1496,3.1496,3.1496,3.1496,3.1496,3.1496,3.1496,3.1496,3.1496,3.1496,3.1496,3.1496,3.1496,3.1496,2.8301,2.8301,2.8301,2.8301,2.8232,2.7842,2.7422,2.6982,2.6562,2.6428,2.6653,2.7278,2.8247,2.9463,3.0701,3.1548,3.1948,3.1784,3.1562,3.1311,3.047,2.9955,2.9804,2.9779,2.9779,2.9779,2.9779,2.9578,2.9151,2.8461,2.7934,2.7544,2.6876,2.6487,2.6487,2.6487,2.6487,2.6487,2.6487,2.6487,2.6487,2.6487,2.6487,2.6436,2.6109,2.5724,2.536,2.5347,2.536,2.5413,2.5683,2.6174,2.6992,2.8645,2.9885,3.0366,3.1054,3.1496,3.1496,3.1496,3.1496,3.1496,3.1496,3.1496,3.1496,3.1496,3.1496,3.1496,3.1496,3.1496,3.1496,3.1496,3.1496,3.1496,3.1496,3.178,3.2422,3.2691,3.326,3.3963,3.4218,3.4188,3.4203,3.4562,3.4771,3.4816,3.5235,3.5474,3.5489,3.5474,3.5385,3.4906,3.4623,3.4174,3.335,3.2796,3.1899,3.1735,3.1675,3.163,3.163,3.16,3.1555,3.1525,3.1496,3.1496,3.1496,3.1496,3.1496,3.1496,3.1496,3.1496,3.1496,3.1496,3.1496,2.8301,2.8301,2.8301,2.8301,2.8242,2.7891,2.7451,2.7041,2.6611,2.6498,2.6714,2.7336,2.8247,2.9303,3.0699,3.1557,3.201,3.2157,3.1913,3.1361,3.0809,3.0269,2.9804,2.9779,2.9779,2.9779,2.9779,2.9779,2.9654,2.8712,2.8147,2.7896,2.7065,2.6575,2.6487,2.6487,2.6487,2.6487,2.6487,2.6487,2.6487,2.6487,2.6487,2.6487,2.6436,2.6399,2.6411,2.6399,2.6348,2.6408,2.6727,2.7537,2.8561,2.9681,3.0451,3.0793,3.1234,3.1467,3.1496,3.1496,3.1496,3.1496,3.1496,3.1496,3.1496,3.1496,3.1496,3.1496,3.1496,3.1496,3.1511,3.157,3.1555,3.1496,3.1496,3.178,3.2512,3.3155,3.3993,3.504,3.528,3.5444,3.5444,3.5355,3.5355,3.537,3.5444,3.5489,3.5489,3.5489,3.5489,3.5355,3.5011,3.4517,3.4233,3.3873,3.2856,3.2019,3.1944,3.1884,3.1959,3.1959,3.1839,3.178,3.1555,3.1525,3.1496,3.1496,3.1496,3.1496,3.1496,3.1496,3.1496,3.1496,3.1496,2.8301,2.8301,2.8301,2.8301,2.8281,2.8154,2.7861,2.7422,2.7012,2.6963,2.7291,2.7831,2.876,2.9966,3.1169,3.2021,3.2469,3.2671,3.2303,3.1436,3.0859,3.0344,2.9892,2.9792,2.9779,2.9779,2.9779,2.9779,2.9654,2.9026,2.8511,2.8021,2.7394,2.6876,2.6524,2.6487,2.6487,2.6487,2.6487,2.6487,2.6487,2.6487,2.6487,2.6487,2.6487,2.6487,2.6487,2.6487,2.6487,2.6499,2.6964,2.7829,2.917,3.0162,3.0777,3.1117,3.1336,3.1496,3.1496,3.1496,3.1496,3.1496,3.1496,3.1496,3.1496,3.1496,3.1511,3.1511,3.1496,3.1496,3.157,3.1944,3.1989,3.157,3.1511,3.2004,3.3095,3.4158,3.4966,3.537,3.5489,3.5489,3.5489,3.5489,3.5489,3.5489,3.5489,3.5489,3.5489,3.5489,3.5489,3.5444,3.5175,3.4951,3.4637,3.4412,3.3829,3.3051,3.2751,3.2452,3.2452,3.2378,3.2243,3.1959,3.172,3.154,3.1511,3.1496,3.1496,3.1496,3.1496,3.1496,3.1496,3.1555,3.166,2.8301,2.8301,2.8301,2.8301,2.8301,2.8301,2.8047,2.7689,2.7207,2.7272,2.7698,2.8393,2.9338,3.0554,3.1813,3.2537,3.2853,3.3038,3.2591,3.1712,3.1148,3.062,3.0105,2.9867,2.9779,2.9779,2.9779,2.9779,2.9754,2.9189,2.8712,2.836,2.7657,2.7165,2.6788,2.6587,2.6487,2.6487,2.6487,2.6487,2.6487,2.6487,2.6487,2.6487,2.6487,2.6487,2.6487,2.6487,2.6487,2.6679,2.7377,2.8532,2.9716,3.0569,3.1161,3.1351,3.1438,3.1496,3.1496,3.1496,3.1496,3.1496,3.1496,3.1496,3.1496,3.1496,3.157,3.1824,3.1884,3.1974,3.2258,3.2602,3.2647,3.2303,3.2288,3.2736,3.3799,3.4816,3.54,3.5489,3.5489,3.5489,3.5489,3.5489,3.5489,3.5489,3.5489,3.5489,3.5489,3.5489,3.5489,3.5489,3.5415,3.5205,3.4966,3.4816,3.4711,3.4188,3.3709,3.3365,3.3155,3.3021,3.2856,3.2273,3.1929,3.1585,3.1496,3.1496,3.1496,3.1496,3.1645,3.1675,3.1765,3.1929,3.2093,2.8301,2.8301,2.8301,2.8301,2.8301,2.8301,2.8139,2.7748,2.732,2.7492,2.8188,2.9025,3.0011,3.108,3.2394,3.3038,3.3124,3.3081,3.283,3.224,3.1687,3.111,3.0407,2.9967,2.9792,2.9779,2.9779,2.9779,2.9767,2.9276,2.8913,2.8725,2.7971,2.7331,2.7203,2.6788,2.6562,2.6499,2.6487,2.6487,2.6487,2.6487,2.6487,2.6487,2.6487,2.6487,2.6487,2.6487,2.6533,2.676,2.7999,2.9111,3.0023,3.0955,3.1409,3.1438,3.1496,3.1496,3.1496,3.1496,3.1496,3.1496,3.16,3.157,3.166,3.1809,3.2049,3.2467,3.2557,3.2781,3.323,3.3499,3.3529,3.3619,3.3499,3.3784,3.4414,3.507,3.5429,3.5489,3.5489,3.5489,3.5489,3.5489,3.5489,3.5489,3.5489,3.5489,3.5489,3.5489,3.5489,3.5489,3.5489,3.5415,3.519,3.516,3.507,3.4891,3.4502,3.4247,3.3888,3.3709,3.335,3.2766,3.2273,3.1869,3.175,3.1959,3.1989,3.2079,3.2123,3.2049,3.2183,3.2437,3.2617,2.8301,2.8301,2.8301,2.8301,2.8301,2.8301,2.8349,2.8354,2.7839,2.8225,2.9154,2.9753,3.0519,3.1492,3.2581,3.3124,3.3124,3.3124,3.3086,3.2792,3.2265,3.1223,3.0218,2.988,2.9779,2.9779,2.9779,2.9779,2.9779,2.9603,2.9327,2.8888,2.8587,2.8047,2.7381,2.7203,2.6876,2.6549,2.6499,2.6537,2.6537,2.6524,2.6487,2.6487,2.6499,2.6487,2.6487,2.6487,2.6705,2.7134,2.8032,2.8953,2.9701,3.0613,3.119,3.1307,3.1438,3.1496,3.1496,3.1496,3.1496,3.1555,3.1914,3.2213,3.2243,3.2691,3.3006,3.3245,3.3245,3.332,3.3559,3.3948,3.4367,3.4816,3.4487,3.4307,3.4593,3.5055,3.5489,3.5489,3.5489,3.5489,3.5489,3.5489,3.5489,3.5489,3.5489,3.5489,3.5489,3.5489,3.5489,3.5489,3.5489,3.5489,3.5459,3.5459,3.5429,3.5385,3.522,3.513,3.4786,3.4487,3.3978,3.3365,3.3036,3.2647,3.2841,3.3066,3.2976,3.2662,3.2826,3.2871,3.3036,3.3245,3.329,2.8301,2.8301,2.8301,2.8301,2.8301,2.8301,2.8514,2.875,2.8442,2.8875,2.9925,3.0457,3.1024,3.1813,3.2711,3.3124,3.3124,3.3124,3.3124,3.298,3.2466,3.1449,3.0382,2.9955,2.9779,2.9779,2.9779,2.9779,2.9779,2.9779,2.9591,2.9315,2.9013,2.8586,2.8072,2.772,2.7494,2.7253,2.7178,2.719,2.7143,2.6952,2.6851,2.6776,2.6663,2.6487,2.6487,2.6487,2.6726,2.7175,2.7815,2.8473,2.9265,3.0192,3.0807,3.1058,3.1351,3.1496,3.1496,3.1496,3.1496,3.1615,3.2108,3.2422,3.2617,3.311,3.3544,3.3858,3.3903,3.4053,3.4352,3.4696,3.507,3.531,3.513,3.4906,3.4906,3.528,3.5459,3.5489,3.5489,3.5489,3.5489,3.5489,3.5489,3.5489,3.5489,3.5489,3.5489,3.5489,3.5489,3.5489,3.5489,3.5489,3.5489,3.5489,3.5489,3.5489,3.5489,3.5489,3.531,3.4996,3.4517,3.3963,3.3709,3.3559,3.3664,3.3649,3.338,3.326,3.3484,3.3664,3.3799,3.3918,3.3963,2.8301,2.8301,2.8301,2.8301,2.8301,2.8291,2.8611,2.9056,2.8949,2.9486,3.0493,3.1052,3.1581,3.212,3.281,3.3124,3.3124,3.3124,3.3124,3.2905,3.2453,3.1637,3.0746,3.0193,2.9917,2.9817,2.9779,2.9779,2.9779,2.9779,2.9779,2.9628,2.9252,2.8963,2.8662,2.8349,2.8185,2.7996,2.7921,2.7908,2.7846,2.7557,2.7381,2.7341,2.6901,2.6688,2.6625,2.6562,2.6658,2.6905,2.7384,2.7999,2.8757,2.9718,3.0404,3.0822,3.1234,3.1496,3.1496,3.1496,3.1585,3.1765,3.2273,3.2662,3.2961,3.3544,3.4113,3.4547,3.4623,3.4831,3.519,3.5444,3.5429,3.5489,3.5459,3.5489,3.5489,3.5489,3.5489,3.5489,3.5489,3.5489,3.5489,3.5504,3.5489,3.5489,3.5489,3.5489,3.5489,3.5489,3.5489,3.5489,3.5489,3.5489,3.5489,3.5489,3.5489,3.5489,3.5489,3.5489,3.5415,3.5145,3.4846,3.4532,3.4427,3.4247,3.4083,3.3963,3.3844,3.3948,3.4247,3.4352,3.4459,3.4547,3.4622,2.8301,2.8301,2.8301,2.8301,2.8301,2.8291,2.8761,2.9472,2.9452,3.0171,3.1219,3.1665,3.2101,3.2537,3.2939,3.3124,3.3124,3.3124,3.3124,3.3036,3.2478,3.1888,3.1198,3.067,3.0206,2.9905,2.9779,2.9779,2.9779,2.9779,2.9779,2.9741,2.9628,2.9377,2.8925,2.8813,2.8511,2.8197,2.8147,2.8197,2.821,2.8059,2.7921,2.7833,2.7369,2.7165,2.704,2.6725,2.6546,2.6726,2.7095,2.7696,2.8403,2.9359,3.0085,3.0613,3.1176,3.1496,3.1511,3.1585,3.175,3.2288,3.2901,3.3514,3.4099,3.4592,3.5026,3.5265,3.5295,3.531,3.5459,3.5489,3.5489,3.5489,3.5489,3.5489,3.5489,3.5489,3.5504,3.5549,3.5549,3.5519,3.5549,3.5654,3.5624,3.5534,3.5549,3.5519,3.5549,3.5594,3.5549,3.5579,3.5489,3.5489,3.5489,3.5489,3.5489,3.5489,3.5489,3.5489,3.5429,3.54,3.513,3.513,3.525,3.5011,3.4651,3.4831,3.4816,3.4936,3.4951,3.4966,3.5011,3.516,3.516,2.8301,2.8301,2.8301,2.8301,2.8301,2.8291,2.8877,2.9683,3.0041,3.0801,3.1855,3.2329,3.268,3.2896,3.3025,3.3124,3.3124,3.3124,3.3124,3.3061,3.2704,3.2164,3.1474,3.106,3.0608,2.9917,2.9779,2.9779,2.9779,2.9779,2.9779,2.9779,2.9779,2.9641,2.9377,2.9315,2.9214,2.9013,2.89,2.89,2.8888,2.8624,2.831,2.8134,2.7795,2.7618,2.741,2.7262,2.7027,2.7007,2.7188,2.7523,2.7993,2.8885,2.967,3.0342,3.1117,3.1661,3.1854,3.2004,3.2258,3.2931,3.3574,3.4038,3.4578,3.51,3.5444,3.5489,3.5489,3.5489,3.5489,3.5489,3.5489,3.5489,3.5489,3.5489,3.5504,3.5504,3.5714,3.5938,3.6058,3.6372,3.6447,3.6297,3.6342,3.6492,3.6522,3.6477,3.6058,3.6043,3.5759,3.5684,3.5549,3.5489,3.5489,3.5489,3.5489,3.5489,3.5489,3.5489,3.5474,3.5474,3.5459,3.5459,3.5444,3.5459,3.5235,3.5489,3.5489,3.5355,3.5295,3.5429,3.5459,3.5355,3.534,2.8301,2.8301,2.8301,2.8301,2.8301,2.8291,2.893,2.9953,3.0477,3.1244,3.2335,3.2887,3.3038,3.3124,3.3081,3.3124,3.3124,3.3124,3.3124,3.3099,3.3061,3.234,3.1599,3.1248,3.0771,2.988,2.9779,2.9779,2.9779,2.9779,2.9779,2.9779,2.9779,2.9741,2.9767,2.9779,2.9679,2.9603,2.9603,2.9628,2.9616,2.9264,2.8863,2.8586,2.8298,2.8181,2.8104,2.8071,2.7971,2.7756,2.7827,2.796,2.8266,2.8701,2.9551,3.0348,3.1397,3.2139,3.2542,3.2706,3.2946,3.3604,3.4129,3.4533,3.4756,3.5145,3.5415,3.5489,3.5489,3.5489,3.5489,3.5489,3.5489,3.5489,3.5489,3.5549,3.5639,3.5654,3.6043,3.6462,3.6611,3.6881,3.7195,3.7255,3.736,3.7419,3.7434,3.727,3.6821,3.6432,3.6118,3.5714,3.5549,3.5489,3.5489,3.5549,3.5534,3.5624,3.5594,3.5609,3.5579,3.5489,3.5489,3.5489,3.5489,3.5489,3.5489,3.5489,3.5489,3.5489,3.5489,3.5489,3.5489,3.5489,3.5489,2.8301,2.8301,2.8301,2.8301,2.8301,2.8301,2.8983,2.9985,3.0488,3.134,3.2394,3.2911,3.3124,3.3124,3.3124,3.3124,3.3124,3.3124,3.3124,3.3124,3.3086,3.2466,3.1574,3.1361,3.0796,3.0043,2.9779,2.9779,2.9779,2.9779,2.9779,2.9779,2.9779,2.9779,2.9779,2.9779,2.9779,2.9779,2.9779,2.9779,2.9741,2.9679,2.9605,2.9404,2.9101,2.8997,2.9147,2.9203,2.9323,2.9583,2.9596,3.0014,3.0396,3.0419,3.0711,3.1317,3.2329,3.3051,3.329,3.335,3.3679,3.4158,3.4503,3.4816,3.516,3.54,3.5489,3.5489,3.5489,3.5489,3.5489,3.5489,3.5489,3.5489,3.5594,3.5744,3.6133,3.6387,3.6462,3.6836,3.709,3.7389,3.7778,3.8003,3.7958,3.7928,3.7913,3.7584,3.7075,3.6716,3.6387,3.5953,3.5519,3.5489,3.5489,3.5564,3.5624,3.5804,3.5848,3.5863,3.5774,3.5564,3.5519,3.5848,3.5699,3.5489,3.5489,3.5504,3.5489,3.5489,3.5489,3.5504,3.5489,3.5489,3.5489,2.8301,2.8301,2.8301,2.8301,2.8301,2.8291,2.893,2.9995,3.0499,3.1329,3.2264,3.2892,3.3124,3.3124,3.3124,3.3124,3.3124,3.3124,3.3124,3.3124,3.3061,3.2478,3.1486,3.1386,3.0733,3.0068,2.9779,2.9779,2.9779,2.9779,2.9779,2.9779,2.9779,2.9779,2.9779,2.9779,2.9779,2.9779,2.9779,2.9792,2.9818,2.9972,3.0113,3.0139,3.0112,3.0115,3.0227,3.0495,3.0616,3.0806,3.0932,3.1409,3.1825,3.2119,3.2121,3.237,3.3043,3.3694,3.3918,3.4054,3.4354,3.4906,3.4996,3.513,3.54,3.5489,3.5489,3.5489,3.5489,3.5489,3.5489,3.5489,3.5489,3.5579,3.5789,3.6133,3.6537,3.709,3.73,3.7389,3.7719,3.8123,3.8542,3.8631,3.8512,3.8452,3.8407,3.7973,3.7419,3.7195,3.6971,3.6522,3.6163,3.6133,3.6088,3.6043,3.6073,3.6193,3.6252,3.6267,3.6327,3.6267,3.6402,3.6656,3.6327,3.5774,3.5504,3.5519,3.5504,3.5504,3.5549,3.5564,3.5519,3.5489,3.5639,2.8301,2.8301,2.8301,2.8344,2.8398,2.8451,2.9132,3.014,3.0685,3.1531,3.2534,3.2948,3.3124,3.3124,3.3124,3.3124,3.3124,3.3124,3.3124,3.3124,3.3099,3.2478,3.1662,3.126,3.0846,2.993,2.9779,2.9779,2.9779,2.9779,2.9779,2.9779,2.9779,2.9779,2.9779,2.9779,2.9779,2.9779,2.9779,2.9792,2.9972,3.033,3.0697,3.0936,3.1185,3.1326,3.1517,3.1853,3.2101,3.225,3.245,3.273,3.313,3.3598,3.3677,3.3492,3.3716,3.4171,3.4502,3.4681,3.4906,3.534,3.5459,3.5489,3.5489,3.5489,3.5489,3.5489,3.5489,3.5489,3.5489,3.5489,3.5594,3.5818,3.6178,3.6641,3.7135,3.7659,3.8197,3.8362,3.8542,3.8736,3.8985,3.9074,3.8925,3.8925,3.8901,3.8571,3.8093,3.8048,3.7778,3.73,3.7,3.6956,3.6866,3.6746,3.6791,3.6896,3.6926,3.6941,3.7075,3.718,3.7285,3.7225,3.6791,3.6267,3.5908,3.5564,3.5504,3.5534,3.5609,3.5744,3.5878,3.6103,3.6312,2.8301,2.8301,2.8291,2.8451,2.8654,2.888,2.9775,3.0952,3.1267,3.2029,3.2977,3.3081,3.3124,3.3124,3.3124,3.3124,3.3124,3.3124,3.3124,3.3124,3.3086,3.2478,3.1524,3.1386,3.0771,2.9955,2.9779,2.9779,2.9779,2.9779,2.9779,2.9779,2.9779,2.9779,2.9779,2.9779,2.9779,2.9779,2.9779,3.0011,3.0406,3.0884,3.1318,3.1723,3.2132,3.2508,3.2821,3.3231,3.3609,3.4031,3.413,3.449,3.4959,3.4601,3.4827,3.5021,3.5248,3.5295,3.531,3.5265,3.528,3.5474,3.5489,3.5489,3.5489,3.5489,3.5489,3.5489,3.5489,3.5489,3.5504,3.5549,3.5818,3.6178,3.6552,3.7225,3.7823,3.8167,3.8721,3.8945,3.9005,3.9125,3.9298,3.9328,3.9358,3.9373,3.9313,3.899,3.8751,3.8661,3.8542,3.8063,3.7674,3.7599,3.7689,3.7539,3.7569,3.7659,3.7669,3.7669,3.7804,3.7928,3.7659,3.7509,3.7165,3.6941,3.6671,3.6282,3.5759,3.5729,3.6028,3.6222,3.6387,3.6641,3.6911,2.8301,2.8271,2.8037,2.8193,2.8521,2.8829,2.9602,3.0712,3.1476,3.218,3.2829,3.304,3.3124,3.3124,3.3124,3.3124,3.3124,3.3124,3.3124,3.3124,3.3036,3.2466,3.1612,3.1323,3.0821,3.0068,2.9792,2.9779,2.9779,2.9779,2.9779,2.9779,2.9779,2.9779,2.9779,2.9779,2.9779,2.9856,3.0049,3.0432,3.1009,3.1589,3.2123,3.264,3.3059,3.3471,3.3865,3.4158,3.4528,3.4861,3.4986,3.5175,3.5385,3.525,3.525,3.54,3.5474,3.5459,3.5474,3.5489,3.5489,3.5489,3.5489,3.5489,3.5489,3.5489,3.5489,3.5489,3.5489,3.5519,3.5639,3.5863,3.6148,3.6555,3.7075,3.7644,3.8317,3.8766,3.9104,3.9269,3.9388,3.9388,3.9388,3.9388,3.9388,3.9388,3.9388,3.926,3.914,3.9125,3.899,3.8796,3.8437,3.8167,3.8332,3.8377,3.8407,3.8497,3.8656,3.8656,3.8641,3.8631,3.8362,3.8227,3.8123,3.7853,3.7509,3.6896,3.6267,3.6342,3.6537,3.6746,3.6941,3.709,3.7315,2.8143,2.8318,2.8121,2.8431,2.9003,2.9436,3.0318,3.1368,3.202,3.2623,3.2983,3.3158,3.3124,3.3124,3.3124,3.3124,3.3124,3.3124,3.3124,3.3124,3.3011,3.2503,3.1926,3.1549,3.1072,2.998,3.008,2.9955,2.9817,2.9779,2.9779,2.9779,2.9779,2.9779,2.9779,2.983,2.983,3.0037,3.0419,3.0959,3.17,3.2461,3.3066,3.3555,3.4031,3.4385,3.4635,3.4754,3.5019,3.5198,3.5362,3.5444,3.5474,3.5444,3.5415,3.5489,3.5489,3.5489,3.5489,3.5489,3.5489,3.5489,3.5489,3.5489,3.5489,3.5489,3.5489,3.5504,3.5774,3.5774,3.5878,3.6342,3.6821,3.727,3.7764,3.8227,3.8646,3.902,3.9239,3.9313,3.9388,3.9388,3.9388,3.9388,3.9388,3.9388,3.9388,3.9388,3.9373,3.9394,3.9305,3.9089,3.8955,3.8736,3.8841,3.9005,3.911,3.917,3.9313,3.9343,3.9149,3.9149,3.9044,3.9005,3.8886,3.8751,3.8422,3.7584,3.6836,3.6956,3.712,3.733,3.7509,3.7659,3.7883,2.7643,2.8507,2.8868,2.9599,3.0616,3.1436,3.2458,3.3365,3.3383,3.3561,3.3769,3.3464,3.3124,3.3124,3.3124,3.3124,3.3124,3.3124,3.3124,3.3124,3.3061,3.2679,3.2227,3.1901,3.1562,3.0645,3.0432,3.0181,2.9905,2.9779,2.9779,2.9779,2.9779,2.9779,2.9779,2.9792,3.0011,3.033,3.0822,3.1539,3.2412,3.3213,3.4007,3.4476,3.4986,3.5392,3.5407,3.5359,3.5359,3.5439,3.5472,3.5504,3.5489,3.5489,3.5489,3.5489,3.5489,3.5489,3.5489,3.5489,3.5489,3.5489,3.5489,3.5489,3.5489,3.5489,3.5489,3.5564,3.5923,3.6267,3.6507,3.6971,3.7509,3.7883,3.8272,3.8661,3.8975,3.917,3.9343,3.9373,3.9388,3.9388,3.9388,3.9388,3.9388,3.9388,3.9388,3.9388,3.9388,3.9373,3.9373,3.9313,3.9328,3.9254,3.9269,3.9313,3.9305,3.929,3.9358,3.9388,3.9328,3.9388,3.9388,3.9328,3.9149,3.926,3.9215,3.8377,3.7764,3.7629,3.7689,3.7898,3.8227,3.8512,3.873,2.8614,2.976,3.0234,3.0694,3.1188,3.2142,3.3017,3.3693,3.3743,3.3643,3.3577,3.3269,3.3124,3.3124,3.3124,3.3124,3.3124,3.3124,3.3124,3.3124,3.3061,3.2729,3.239,3.2089,3.1621,3.0871,3.062,3.0319,2.9829,2.9905,2.9804,2.9779,2.9842,2.9779,2.9779,2.9818,3.0075,3.0634,3.1257,3.2015,3.296,3.3851,3.4576,3.4986,3.5246,3.5472,3.5457,3.5489,3.5489,3.5489,3.5489,3.5489,3.5489,3.5489,3.5489,3.5489,3.5489,3.5489,3.5489,3.5489,3.5489,3.5489,3.5489,3.5519,3.5579,3.5534,3.5504,3.5699,3.6178,3.6641,3.6611,3.7375,3.8138,3.8422,3.8736,3.908,3.9224,3.9343,3.9388,3.9388,3.9388,3.9388,3.9388,3.9388,3.9388,3.9388,3.9388,3.9388,3.9388,3.9388,3.9388,3.9388,3.9388,3.9388,3.9388,3.9388,3.9388,3.9388,3.9388,3.9388,3.9388,3.9388,3.9388,3.9388,3.9388,3.9358,3.9209,3.896,3.8691,3.8497,3.8407,3.8437,3.8826,3.9215,3.9284,2.9601,3.0894,3.1544,3.192,3.2199,3.3148,3.3869,3.4225,3.4192,3.3709,3.3136,3.3124,3.3124,3.3124,3.3124,3.3124,3.3124,3.3124,3.3124,3.3124,3.3061,3.2817,3.2591,3.2365,3.2102,3.1248,3.1035,3.0859,3.0394,3.0294,3.0231,3.0143,3.0018,3.0005,2.9779,2.9818,3.0126,3.0785,3.1663,3.247,3.3416,3.4356,3.4938,3.5246,3.5439,3.5472,3.5489,3.5489,3.5489,3.5489,3.5489,3.5489,3.5489,3.5489,3.5489,3.5489,3.5489,3.5489,3.5489,3.5489,3.5594,3.5818,3.5863,3.5848,3.5804,3.5923,3.6207,3.5953,3.6552,3.7045,3.7075,3.8078,3.8661,3.8945,3.9065,3.9298,3.9313,3.9388,3.9388,3.9388,3.9388,3.9388,3.9388,3.9388,3.9388,3.9388,3.9388,3.9388,3.9388,3.9388,3.9388,3.9388,3.9388,3.9388,3.9388,3.9388,3.9388,3.9388,3.9388,3.9388,3.9388,3.9388,3.9388,3.9388,3.9388,3.9388,3.9284,3.9104,3.9179,3.9284,3.914,3.8901,3.905,3.9313,3.9328,3.029,3.171,3.2536,3.3244,3.3925,3.4788,3.5377,3.5595,3.494,3.4048,3.3144,3.3124,3.3124,3.3124,3.3124,3.3124,3.3124,3.3124,3.3124,3.3124,3.3124,3.3086,3.3048,3.2898,3.2528,3.2265,3.1938,3.1599,3.1198,3.1072,3.0909,3.057,3.0331,3.0168,2.9817,2.9792,3.0203,3.1048,3.206,3.2967,3.3831,3.482,3.5311,3.5424,3.5472,3.5489,3.5489,3.5489,3.5489,3.5489,3.5489,3.5489,3.5489,3.5489,3.5489,3.5489,3.5489,3.5489,3.5489,3.5504,3.5833,3.6222,3.6237,3.6282,3.6507,3.6806,3.6881,3.6402,3.7345,3.8048,3.8482,3.8856,3.9125,3.929,3.9358,3.9388,3.9388,3.9388,3.9388,3.9388,3.9388,3.9388,3.9388,3.9388,3.9388,3.9388,3.9388,3.9388,3.9388,3.9388,3.9388,3.9388,3.9388,3.9388,3.9388,3.9388,3.9388,3.9388,3.9388,3.9388,3.9388,3.9388,3.9388,3.9388,3.9388,3.9388,3.9388,3.9358,3.9388,3.9388,3.9388,3.9269,3.9373,3.9388,3.9388,3.1318,3.2781,3.3212,3.4108,3.527,3.5775,3.6108,3.6028,3.5157,3.411,3.3244,3.3124,3.3124,3.3124,3.3124,3.3124,3.3124,3.3124,3.3124,3.3124,3.3124,3.3124,3.3124,3.3061,3.278,3.2365,3.2135,3.1976,3.1336,3.1512,3.1135,3.0708,3.0497,3.0058,3.0049,3.0152,3.0621,3.1516,3.2506,3.3402,3.4216,3.5045,3.5534,3.5534,3.5534,3.5489,3.5489,3.5489,3.5489,3.5489,3.5489,3.5489,3.5489,3.5489,3.5489,3.5489,3.5489,3.5489,3.5639,3.5833,3.6222,3.6447,3.6596,3.6626,3.6567,3.7075,3.6971,3.6971,3.7808,3.8332,3.8482,3.9005,3.9305,3.9328,3.9388,3.9388,3.9388,3.9388,3.9388,3.9388,3.9388,3.9388,3.9388,3.9388,3.9388,3.9463,3.9478,3.9418,3.9403,3.9388,3.9388,3.9388,3.9388,3.9388,3.9388,3.9388,3.9388,3.9388,3.9388,3.9388,3.9388,3.9388,3.9388,3.9388,3.9388,3.9388,3.9388,3.9388,3.9388,3.9388,3.9388,3.9388,3.9388,3.9388,3.9388,3.2378,3.3484,3.3633,3.4391,3.5572,3.6147,3.6229,3.573,3.5002,3.411,3.3287,3.3124,3.3124,3.3124,3.3124,3.3124,3.3124,3.3124,3.3124,3.3124,3.3124,3.3124,3.3124,3.3111,3.2905,3.2566,3.2466,3.2303,3.2102,3.2014,3.1779,3.1423,3.0858,3.1111,3.1113,3.1199,3.1277,3.2295,3.3372,3.436,3.5103,3.5659,3.5893,3.5804,3.5684,3.5489,3.5489,3.5489,3.5489,3.5489,3.5489,3.5489,3.5489,3.5489,3.5489,3.5489,3.5489,3.5489,3.5624,3.6103,3.6477,3.6836,3.6971,3.7135,3.727,3.7898,3.7749,3.7793,3.8227,3.8527,3.8826,3.9313,3.9343,3.9388,3.9388,3.9388,3.9388,3.9388,3.9388,3.9388,3.9388,3.9388,3.9388,3.9388,3.9388,3.9493,3.9619,3.9574,3.9559,3.9589,3.9568,3.9582,3.9523,3.9508,3.9463,3.9388,3.9388,3.9388,3.9478,3.9568,3.9388,3.9388,3.9388,3.9388,3.9388,3.9388,3.9388,3.9388,3.9388,3.9388,3.9388,3.9388,3.9388,3.9388,3.9388,3.3395,3.3872,3.3922,3.4242,3.4889,3.5805,3.5655,3.4751,3.4688,3.406,3.3093,3.3124,3.3124,3.3124,3.3124,3.3124,3.3124,3.3124,3.3124,3.3124,3.3124,3.3124,3.3124,3.3111,3.3036,3.3074,3.3023,3.2842,3.298,3.2616,3.2479,3.2479,3.2021,3.2293,3.2406,3.2554,3.2647,3.3637,3.4505,3.5427,3.6153,3.6446,3.6428,3.6252,3.5968,3.5669,3.5564,3.5489,3.5489,3.5489,3.5489,3.5489,3.5489,3.5489,3.5489,3.5549,3.5594,3.5654,3.5908,3.6492,3.6926,3.7449,3.8003,3.8272,3.8407,3.8586,3.8512,3.8452,3.8736,3.9065,3.9373,3.9373,3.9373,3.9388,3.9388,3.9388,3.9388,3.9388,3.9388,3.9388,3.9388,3.9388,3.9388,3.9388,3.9448,3.9783,3.9948,4.0083,4.0053,3.9993,4.0008,3.9978,3.9888,3.9672,3.9657,3.9888,3.9978,4.0157,3.9963,3.9963,3.9687,3.9493,3.9508,3.9523,3.9418,3.9388,3.9388,3.9388,3.9388,3.9388,3.9388,3.9388,3.9388,3.9388,3.9388,3.3395,3.3922,3.4311,3.4587,3.4718,3.5064,3.4776,3.4173,3.4135,3.3709,3.3124,3.3124,3.3124,3.3124,3.3124,3.3124,3.3124,3.3124,3.3124,3.3124,3.3124,3.3124,3.3124,3.3124,3.3124,3.3124,3.3124,3.3111,3.2998,3.2767,3.2756,3.2708,3.2957,3.3408,3.399,3.4395,3.4795,3.5187,3.5869,3.6468,3.695,3.7148,3.6952,3.6641,3.6327,3.5998,3.5759,3.5609,3.5594,3.5579,3.5534,3.5519,3.5489,3.5519,3.5609,3.6163,3.6267,3.6387,3.6851,3.7464,3.7868,3.8078,3.8676,3.8676,3.8766,3.8901,3.9095,3.9005,3.905,3.9284,3.9388,3.9388,3.9388,3.9388,3.9388,3.9388,3.9388,3.9388,3.9388,3.9388,3.9388,3.9388,3.9388,3.9388,3.9493,3.9963,4.0292,4.0502,4.0606,4.0546,4.0487,4.0457,4.0487,4.0382,4.0621,4.0846,4.0861,4.0876,4.0636,4.0412,4.0247,4.0068,3.9858,3.9649,3.9448,3.9388,3.9388,3.9388,3.9388,3.9388,3.9388,3.9388,3.9388,3.9388,3.9388,3.3269,3.3633,3.4173,3.4399,3.4349,3.4173,3.3859,3.3633,3.3809,3.3583,3.3162,3.3124,3.3124,3.3124,3.3124,3.3124,3.3124,3.3124,3.3124,3.3124,3.3124,3.3124,3.3124,3.3124,3.3124,3.3124,3.3124,3.3124,3.3054,3.3102,3.31,3.3792,3.398,3.4728,3.5585,3.6416,3.6917,3.7099,3.7349,3.7618,3.7778,3.7844,3.7554,3.721,3.6881,3.6387,3.6222,3.6073,3.5998,3.6178,3.6252,3.6252,3.6282,3.6312,3.6118,3.6596,3.6746,3.6941,3.733,3.7928,3.8257,3.8556,3.902,3.9125,3.911,3.917,3.914,3.9065,3.9224,3.9388,3.9388,3.9388,3.9388,3.9388,3.9388,3.9388,3.9388,3.9388,3.9388,3.9388,3.9388,3.9388,3.9388,3.9388,3.9612,4.0157,4.0711,4.1175,4.1235,4.1205,4.11,4.1025,4.1115,4.1212,4.1482,4.1564,4.1429,4.1309,4.1145,4.0935,4.0801,4.0472,4.0127,3.9783,3.9403,3.9418,3.9493,3.9403,3.9388,3.9433,3.9463,3.9418,3.9418,3.9388,3.9388,3.3124,3.3144,3.3633,3.3884,3.3834,3.3395,3.3174,3.3174,3.3596,3.3558,3.3174,3.3124,3.3124,3.3124,3.3124,3.3124,3.3124,3.3124,3.3124,3.3124,3.3124,3.3124,3.3124,3.3124,3.3124,3.3124,3.3124,3.3167,3.3313,3.3526,3.4131,3.5073,3.5733,3.6423,3.7225,3.7943,3.8341,3.8485,3.8451,3.8575,3.8859,3.8796,3.8442,3.8138,3.7494,3.6836,3.7045,3.7015,3.6821,3.718,3.7345,3.727,3.724,3.721,3.6956,3.706,3.7315,3.7614,3.7913,3.8392,3.8512,3.8751,3.9035,3.9275,3.9298,3.9284,3.9209,3.9194,3.9358,3.9388,3.9388,3.9388,3.9388,3.9388,3.9388,3.9388,3.9388,3.9388,3.9388,3.9388,3.9388,3.9388,3.9388,3.9418,3.9873,4.0397,4.092,4.1504,4.1968,4.1938,4.1833,4.1728,4.1893,4.2013,4.1968,4.2028,4.1833,4.1698,4.1683,4.1602,4.1474,4.098,4.0367,3.9948,3.9523,3.9619,3.9649,3.9783,3.9873,3.9657,3.9642,3.9508,3.9463,3.9463,3.9433,3.3124,3.3136,3.3219,3.3495,3.3809,3.3307,3.3124,3.3136,3.325,3.3262,3.3093,3.3124,3.3124,3.3124,3.3124,3.3124,3.3124,3.3124,3.3124,3.3124,3.3124,3.3124,3.3124,3.3124,3.3124,3.3124,3.3167,3.3283,3.3598,3.415,3.4883,3.5776,3.6688,3.7668,3.8225,3.8848,3.9177,3.9271,3.9203,3.9125,3.9275,3.9245,3.8975,3.8571,3.7928,3.7629,3.7644,3.7375,3.727,3.7389,3.7404,3.7389,3.7389,3.7419,3.7614,3.7883,3.8018,3.8347,3.8661,3.8901,3.9005,3.9095,3.9305,3.9328,3.9388,3.9388,3.9388,3.9388,3.9388,3.9388,3.9388,3.9388,3.9433,3.9433,3.9448,3.9448,3.9433,3.9403,3.9403,3.9433,3.9433,3.9463,3.9478,3.9753,4.0142,4.0591,4.1055,4.1669,4.2551,4.2821,4.2716,4.2671,4.2836,4.2856,4.2716,4.2566,4.2432,4.2536,4.2626,4.2432,4.2171,4.1339,4.0546,4.0053,3.9723,3.9843,4.0157,4.0681,4.0666,4.0202,3.9948,3.9828,3.9738,3.9738,3.9649,3.3124,3.3124,3.3124,3.3395,3.3746,3.3307,3.3124,3.3124,3.3124,3.3124,3.3124,3.3124,3.3124,3.3124,3.3124,3.3124,3.3124,3.3124,3.3124,3.3124,3.3124,3.3124,3.3124,3.3124,3.3124,3.3124,3.3167,3.3368,3.3882,3.4635,3.544,3.6413,3.7515,3.8337,3.8775,3.9192,3.9388,3.9388,3.9388,3.9388,3.9388,3.9313,3.929,3.8886,3.8527,3.8317,3.8347,3.8123,3.8063,3.8197,3.8377,3.8108,3.8138,3.8242,3.8317,3.8422,3.8631,3.902,3.9269,3.9388,3.9388,3.9388,3.9388,3.9388,3.9388,3.9388,3.9388,3.9388,3.9388,3.9388,3.9388,3.9388,3.9702,3.9858,3.9933,3.9978,3.9798,3.9634,3.9783,3.9978,4.0053,4.0202,4.0292,4.0561,4.0965,4.1467,4.1841,4.2043,4.2865,4.3305,4.3305,4.3305,4.3305,4.3305,4.308,4.3035,4.305,4.3215,4.3305,4.2781,4.2222,4.1444,4.0726,4.0277,4.0053,4.0202,4.0591,4.119,4.0965,4.0397,4.0232,4.0157,4.0083,4.0053,4.0127,3.3124,3.3124,3.3124,3.3345,3.3696,3.3282,3.3124,3.3124,3.3124,3.3124,3.3124,3.3124,3.3124,3.3124,3.3124,3.3124,3.3124,3.3124,3.3124,3.3124,3.3124,3.3124,3.3124,3.3124,3.3124,3.3124,3.3124,3.3581,3.416,3.4992,3.5975,3.7039,3.7947,3.8811,3.9068,3.9265,3.9388,3.9388,3.9388,3.9388,3.9388,3.9388,3.9379,3.917,3.8945,3.8886,3.902,3.905,3.8945,3.9035,3.9185,3.8916,3.8796,3.8886,3.8826,3.8886,3.9035,3.9239,3.9388,3.9388,3.9388,3.9388,3.9388,3.9388,3.9388,3.9388,3.9388,3.9388,3.9388,3.9418,3.9418,3.9612,3.9978,4.0292,4.0382,4.0531,4.0277,4.0038,4.0247,4.0502,4.0651,4.0868,4.104,4.1309,4.1707,4.2201,4.256,4.2821,4.309,4.3215,4.3305,4.3305,4.3305,4.3305,4.3305,4.3305,4.3305,4.3305,4.3245,4.2796,4.2333,4.1863,4.125,4.0531,4.0427,4.0831,4.1145,4.1639,4.122,4.0846,4.095,4.098,4.0591,4.0606,4.0756,3.3124,3.3124,3.3124,3.3144,3.3262,3.3119,3.3124,3.3124,3.3124,3.3124,3.3124,3.3124,3.3124,3.3124,3.3124,3.3124,3.3124,3.3124,3.3124,3.3124,3.3124,3.3124,3.3124,3.3124,3.3124,3.3124,3.324,3.3611,3.4509,3.5534,3.6515,3.7477,3.8634,3.9192,3.9265,3.9388,3.9388,3.9388,3.9388,3.9388,3.9388,3.9388,3.9388,3.9298,3.9269,3.9269,3.9298,3.929,3.9269,3.9343,3.9388,3.929,3.926,3.929,3.9215,3.9185,3.9298,3.9328,3.9388,3.9388,3.9388,3.9388,3.9388,3.9388,3.9388,3.9388,3.9388,3.9439,3.9454,3.9529,3.9619,3.9978,4.0322,4.0651,4.0846,4.107,4.1085,4.0965,4.101,4.113,4.1257,4.1392,4.1474,4.1698,4.1916,4.2306,4.253,4.2806,4.3155,4.3245,4.3305,4.3305,4.3305,4.3305,4.3305,4.3305,4.3305,4.3305,4.323,4.2931,4.2701,4.2521,4.1893,4.1055,4.1294,4.1871,4.2141,4.2102,4.2117,4.1893,4.2036,4.1976,4.1437,4.119,4.1437]}]]